[[{"header":{"parameterUnit":"m.s-1","parameterCategory":1,"la1":30.6,"la2":28.766,"lo1":-90.7593,"lo2":-88.6598,"dy":0.0162,"dx":0.0183,"nx":116,"ny":114,"refTime":"2023-11-12T06:00:00:Z","depth":0,"parameterNumber":2,"parameterNumberName":"U-component_of_WINDS"},"data":[0.0,0.0,0.0,0.0,0.0,0.0,0.0,0.0,0.0,0.0,0.0,0.0,0.0,0.0,0.0,0.0,0.0,0.0,0.0,0.0,0.0,0.0,0.0,0.0,0.0,0.0,0.0,0.0,0.0,0.0,0.0,0.0,0.0,0.0,0.0,0.0,0.0,0.0,0.0,0.0,0.0,0.0,0.0,0.0,0.0,0.0,0.0,0.0,0.0,0.0,0.0,0.0,0.0,0.0,0.0,0.0,0.0,0.0,0.0,0.0,0.0,0.0,0.0,0.0,0.0,0.0,0.0,0.0,0.0,0.0,0.0,0.0,0.0,0.0,0.0,0.0,0.0,0.0,0.0,0.0,0.0,0.0,0.0,0.0,0.0,0.0,0.0,0.0,0.0,0.0,0.0,0.0,0.0,0.0,0.0,0.0,0.0,0.0,0.0,0.0,0.0,0.0,0.0,0.0,0.0,0.0,0.0,0.0,0.0,0.0,0.0,0.0,0.0,0.0,0.0,0.0,0.0,0.0,0.0,0.0,0.0,0.0,0.0,0.0,0.0,0.0,0.0,0.0,0.0,0.0,0.0,0.0,0.0,0.0,0.0,0.0,0.0,0.0,0.0,0.0,0.0,0.0,0.0,0.0,0.0,0.0,0.0,0.0,0.0,0.0,0.0,0.0,0.0,0.0,0.0,0.0,0.0,0.0,0.0,0.0,0.0,0.0,0.0,0.0,0.0,0.0,0.0,0.0,0.0,0.0,0.0,0.0,0.0,0.0,0.0,0.0,0.0,0.0,0.0,0.0,0.0,0.0,0.0,0.0,0.0,0.0,0.0,0.0,0.0,0.0,0.0,0.0,0.0,0.0,0.0,0.0,0.0,0.0,0.0,0.0,0.0,0.0,0.0,0.0,0.0,0.0,0.0,0.0,0.0,0.0,0.0,0.0,0.0,0.0,0.0,0.0,0.0,0.0,0.0,0.0,0.0,0.0,0.0,0.0,0.0,0.0,0.0,0.0,0.0,0.0,0.0,0.0,0.0,0.0,0.0,0.0,0.0,0.0,0.0,0.0,0.0,0.0,0.0,0.0,0.0,0.0,0.0,0.0,0.0,0.0,0.0,0.0,0.0,0.0,0.0,0.0,0.0,0.0,0.0,0.0,0.0,0.0,0.0,0.0,0.0,0.0,0.0,0.0,0.0,0.0,0.0,0.0,0.0,0.0,0.0,0.0,0.0,0.0,0.0,0.0,0.0,0.0,0.0,0.0,0.0,0.0,0.0,0.0,0.0,0.0,0.0,0.0,0.0,0.0,0.0,0.0,0.0,0.0,0.0,0.0,0.0,0.0,0.0,0.0,0.0,0.0,0.0,0.0,0.0,0.0,0.0,0.0,0.0,0.0,0.0,0.0,0.0,0.0,0.0,0.0,0.0,0.0,0.0,0.0,0.0,0.0,0.0,0.0,0.0,0.0,0.0,0.0,0.0,0.0,0.0,0.0,0.0,0.0,0.0,0.0,0.0,0.0,0.0,0.0,0.0,0.0,0.0,0.0,0.0,0.0,0.0,0.0,0.0,0.0,0.0,0.0,0.0,0.0,0.0,0.0,0.0,0.0,0.0,0.0,0.0,0.0,0.0,0.0,0.0,0.0,0.0,0.0,0.0,0.0,0.0,0.0,0.0,0.0,0.0,0.0,0.0,0.0,0.0,0.0,0.0,0.0,0.0,0.0,0.0,0.0,0.0,0.0,0.0,0.0,0.0,0.0,0.0,0.0,0.0,0.0,0.0,0.0,0.0,0.0,0.0,0.0,0.0,0.0,0.0,0.0,0.0,0.0,0.0,0.0,0.0,0.0,0.0,0.0,0.0,0.0,0.0,0.0,0.0,0.0,0.0,0.0,0.0,0.0,0.0,0.0,0.0,0.0,0.0,0.0,0.0,0.0,0.0,0.0,0.0,0.0,0.0,0.0,0.0,0.0,0.0,0.0,0.0,0.0,0.0,0.0,0.0,0.0,0.0,0.0,0.0,0.0,0.0,0.0,0.0,0.0,0.0,0.0,0.0,0.0,0.0,0.0,0.0,0.0,0.0,0.0,0.0,0.0,0.0,0.0,0.0,0.0,0.0,0.0,0.0,0.0,0.0,0.0,0.0,0.0,0.0,0.0,0.0,0.0,0.0,0.0,0.0,0.0,0.0,0.0,0.0,0.0,0.0,0.0,0.0,0.0,0.0,0.0,0.0,0.0,0.0,0.0,0.0,0.0,0.0,0.0,0.0,0.0,0.0,0.0,0.0,0.0,0.0,0.0,0.0,0.0,0.0,0.0,0.0,0.0,0.0,0.0,0.0,0.0,0.0,0.0,0.0,0.0,0.0,0.0,0.0,0.0,0.0,0.0,0.0,0.0,0.0,0.0,0.0,0.0,0.0,0.0,0.0,0.0,0.0,0.0,0.0,0.0,0.0,0.0,0.0,0.0,0.0,0.0,0.0,0.0,0.0,0.0,0.0,0.0,0.0,0.0,0.0,0.0,0.0,0.0,0.0,0.0,0.0,0.0,0.0,0.0,0.0,0.0,0.0,0.0,0.0,0.0,0.0,0.0,0.0,0.0,0.0,0.0,0.0,0.0,0.0,0.0,0.0,0.0,0.0,0.0,0.0,0.0,0.0,0.0,0.0,0.0,0.0,0.0,0.0,0.0,0.0,0.0,0.0,0.0,0.0,0.0,0.0,0.0,0.0,0.0,0.0,0.0,0.0,0.0,0.0,0.0,0.0,0.0,0.0,0.0,0.0,0.0,0.0,0.0,0.0,0.0,0.0,0.0,0.0,0.0,0.0,0.0,0.0,0.0,0.0,0.0,0.0,0.0,0.0,0.0,0.0,0.0,0.0,0.0,0.0,0.0,0.0,0.0,0.0,0.0,0.0,0.0,0.0,0.0,0.0,0.0,0.0,0.0,0.0,0.0,0.0,0.0,0.0,0.0,0.0,0.0,0.0,0.0,0.0,0.0,0.0,0.0,0.0,0.0,0.0,0.0,0.0,0.0,0.0,0.0,0.0,0.0,0.0,0.0,0.0,0.0,0.0,0.0,0.0,0.0,0.0,0.0,0.0,0.0,0.0,0.0,0.0,0.0,0.0,0.0,0.0,0.0,0.0,0.0,0.0,0.0,0.0,0.0,0.0,0.0,0.0,0.0,0.0,0.0,0.0,0.0,0.0,0.0,0.0,0.0,0.0,0.0,0.0,0.0,0.0,0.0,0.0,0.0,0.0,0.0,0.0,0.0,0.0,0.0,0.0,0.0,0.0,0.0,0.0,0.0,0.0,0.0,0.0,0.0,0.0,0.0,0.0,0.0,0.0,0.0,0.0,0.0,0.0,0.0,0.0,0.0,0.0,0.0,0.0,0.0,0.0,0.0,0.0,0.0,0.0,0.0,0.0,0.0,0.0,0.0,0.0,0.0,0.0,0.0,0.0,0.0,0.0,0.0,0.0,0.0,0.0,0.0,0.0,0.0,0.0,0.0,0.0,0.0,0.0,0.0,0.0,0.0,0.0,0.0,0.0,0.0,0.0,0.0,0.0,0.0,0.0,0.0,0.0,0.0,0.0,0.0,0.0,0.0,0.0,0.0,0.0,0.0,0.0,0.0,0.0,0.0,0.0,0.0,0.0,0.0,0.0,0.0,0.0,0.0,0.0,0.0,0.0,0.0,0.0,0.0,0.0,0.0,0.0,0.0,0.0,0.0,0.0,0.0,0.0,0.0,0.0,0.0,0.0,0.0,0.0,0.0,0.0,0.0,0.0,0.0,0.0,0.0,0.0,0.0,0.0,0.0,0.0,0.0,0.0,0.0,0.0,0.0,0.0,0.0,0.0,0.0,0.0,0.0,0.0,0.0,0.0,0.0,0.0,0.0,0.0,0.0,0.0,0.0,0.0,0.0,0.0,0.0,0.0,0.0,0.0,0.0,0.0,0.0,0.0,0.0,0.0,0.0,0.0,0.0,0.0,0.0,0.0,0.0,0.0,0.0,0.0,0.0,0.0,0.0,0.0,0.0,0.0,0.0,0.0,0.0,0.0,0.0,0.0,0.0,0.0,0.0,0.0,0.0,0.0,0.0,0.0,0.0,0.0,0.0,0.0,0.0,0.0,0.0,0.0,0.0,0.0,0.0,0.0,0.0,0.0,0.0,0.0,0.0,0.0,0.0,0.0,0.0,0.0,0.0,0.0,0.0,0.0,0.0,0.0,0.0,0.0,0.0,0.0,0.0,0.0,0.0,0.0,0.0,0.0,0.0,0.0,0.0,0.0,0.0,0.0,0.0,0.0,0.0,0.0,0.0,0.0,0.0,0.0,0.0,0.0,0.0,0.0,0.0,0.0,0.0,0.0,0.0,0.0,0.0,0.0,0.0,0.0,0.0,0.0,0.0,0.0,0.0,0.0,0.0,0.0,0.0,0.0,0.0,0.0,0.0,0.0,0.0,0.0,0.0,0.0,0.0,0.0,0.0,0.0,0.0,0.0,0.0,0.0,0.0,0.0,0.0,0.0,0.0,0.0,0.0,0.0,0.0,0.0,0.0,0.0,0.0,0.0,0.0,0.0,0.0,0.0,0.0,0.0,0.0,0.0,0.0,0.0,0.0,0.0,0.0,0.0,0.0,0.0,0.0,0.0,0.0,0.0,0.0,0.0,0.0,0.0,0.0,0.0,0.0,0.0,0.0,0.0,0.0,0.0,0.0,0.0,0.0,0.0,0.0,0.0,0.0,0.0,0.0,0.0,0.0,0.0,0.0,0.0,0.0,0.0,0.0,0.0,0.0,0.0,0.0,0.0,0.0,0.0,0.0,0.0,0.0,0.0,0.0,0.0,0.0,0.0,0.0,0.0,0.0,0.0,0.0,0.0,0.0,0.0,0.0,0.0,0.0,0.0,0.0,0.0,0.0,0.0,0.0,0.0,0.0,0.0,0.0,0.0,0.0,0.0,0.0,0.0,0.0,0.0,0.0,0.0,0.0,0.0,0.0,0.0,0.0,0.0,0.0,0.0,0.0,0.0,0.0,0.0,0.0,0.0,0.0,0.0,0.0,0.0,0.0,0.0,0.0,0.0,0.0,0.0,0.0,0.0,0.0,0.0,0.0,0.0,0.0,0.0,0.0,0.0,0.0,0.0,0.0,0.0,0.0,0.0,0.0,0.0,0.0,0.0,0.0,0.0,0.0,0.0,0.0,0.0,0.0,0.0,0.0,0.0,0.0,0.0,0.0,0.0,0.0,0.0,0.0,0.0,0.0,0.0,0.0,0.0,0.0,0.0,0.0,0.0,0.0,0.0,0.0,0.0,0.0,0.0,0.0,0.0,0.0,0.0,0.0,0.0,0.0,0.0,0.0,0.0,0.0,0.0,0.0,0.0,0.0,0.0,0.0,0.0,0.0,0.0,0.0,0.0,0.0,0.0,0.0,0.0,0.0,0.0,0.0,0.0,0.0,0.0,0.0,0.0,0.0,0.0,0.0,0.0,0.0,0.0,0.0,0.0,0.0,0.0,0.0,0.0,0.0,0.0,0.0,0.0,0.0,0.0,0.0,0.0,0.0,0.0,0.0,0.0,0.0,0.0,0.0,0.0,0.0,0.0,0.0,0.0,0.0,0.0,0.0,0.0,0.0,0.0,0.0,0.0,0.0,0.0,0.0,0.0,0.0,0.0,0.0,0.0,0.0,0.0,0.0,0.0,0.0,0.0,0.0,0.0,0.0,0.0,0.0,0.0,0.0,0.0,0.0,0.0,0.0,0.0,0.0,0.0,0.0,0.0,0.0,0.0,0.0,0.0,0.0,0.0,0.0,0.0,0.0,0.0,0.0,0.0,0.0,0.0,0.0,0.0,0.0,0.0,0.0,0.0,0.0,0.0,0.0,0.0,0.0,0.0,0.0,0.0,0.0,0.0,0.0,0.0,0.0,0.0,0.0,0.0,0.0,0.0,0.0,0.0,0.0,0.0,0.0,0.0,0.0,0.0,0.0,0.0,0.0,0.0,0.0,0.0,0.0,0.0,0.0,0.0,0.0,0.0,0.0,0.0,0.0,0.0,0.0,0.0,0.0,0.0,0.0,0.0,0.0,0.0,0.0,0.0,0.0,3.1133,3.0881,0.0,0.0,0.0,0.0,0.0,0.0,0.0,0.0,0.0,0.0,0.0,0.0,0.0,0.0,0.0,0.0,0.0,0.0,0.0,0.0,0.0,0.0,0.0,0.0,0.0,0.0,0.0,0.0,0.0,0.0,0.0,0.0,0.0,0.0,0.0,0.0,0.0,3.6016,3.623,3.666,3.7266,3.7031,3.6465,3.5625,0.0,0.0,0.0,0.0,0.0,0.0,0.0,0.0,0.0,0.0,0.0,0.0,0.0,0.0,0.0,0.0,0.0,0.0,0.0,0.0,0.0,0.0,0.0,0.0,0.0,0.0,0.0,0.0,0.0,0.0,0.0,0.0,0.0,0.0,0.0,0.0,0.0,0.0,0.0,0.0,0.0,0.0,0.0,0.0,0.0,0.0,0.0,0.0,0.0,0.0,0.0,0.0,0.0,0.0,0.0,0.0,0.0,0.0,0.0,0.0,0.0,0.0,0.0,0.0,0.0,0.0,0.0,0.0,0.0,0.0,3.0862,3.0621,0.0,0.0,0.0,0.0,0.0,0.0,0.0,0.0,0.0,0.0,0.0,0.0,0.0,0.0,0.0,0.0,0.0,0.0,0.0,0.0,0.0,0.0,0.0,3.4062,3.4551,3.4902,3.541,3.584,3.6113,0.0,0.0,0.0,0.0,0.0,3.6133,3.6211,3.6426,3.6777,3.6934,3.7402,3.8164,3.8594,3.8242,3.7187,3.6328,0.0,0.0,0.0,0.0,0.0,0.0,0.0,0.0,0.0,0.0,0.0,0.0,0.0,0.0,0.0,0.0,0.0,0.0,0.0,0.0,0.0,0.0,0.0,0.0,0.0,0.0,0.0,0.0,0.0,0.0,0.0,0.0,0.0,0.0,0.0,0.0,0.0,0.0,0.0,0.0,0.0,0.0,0.0,0.0,0.0,0.0,0.0,0.0,0.0,0.0,0.0,0.0,0.0,0.0,0.0,0.0,0.0,0.0,0.0,0.0,0.0,0.0,0.0,3.1936,3.1356,3.1704,3.1944,3.2211,3.2478,3.2238,3.2011,3.1784,3.1236,0.0,0.0,0.0,0.0,0.0,0.0,0.0,0.0,0.0,0.0,0.0,0.0,0.0,0.0,0.0,0.0,0.0,0.0,0.0,3.3926,3.3984,3.5059,3.5781,3.584,3.6582,3.6914,3.6601,3.6582,3.6426,3.6035,3.6387,3.6582,3.6582,3.6934,3.7168,3.7226,3.7969,3.8574,3.9043,3.9512,3.9629,3.9434,3.8555,3.8144,3.8105,0.0,0.0,0.0,0.0,0.0,0.0,0.0,0.0,0.0,0.0,0.0,0.0,0.0,0.0,0.0,0.0,0.0,0.0,0.0,0.0,0.0,0.0,0.0,0.0,0.0,0.0,0.0,0.0,0.0,0.0,0.0,0.0,0.0,0.0,0.0,0.0,0.0,0.0,0.0,0.0,0.0,3.4442,3.4859,0.0,0.0,0.0,0.0,0.0,0.0,0.0,0.0,0.0,0.0,0.0,0.0,0.0,3.4668,3.5374,3.338,3.234,3.2831,3.274,3.2986,3.3534,3.3574,3.3748,3.4028,3.3988,0.0,3.2398,3.2064,0.0,0.0,0.0,0.0,0.0,0.0,0.0,0.0,0.0,0.0,0.0,0.0,0.0,0.0,0.0,0.0,0.0,0.0,0.0,0.0,0.0,3.5527,3.6211,3.6699,3.7305,3.7578,3.7383,3.7383,3.7187,3.6758,3.6914,3.7031,3.7031,3.7441,3.8008,3.875,3.9844,4.0605,4.1035,4.1719,4.2031,4.2012,4.1387,4.0293,3.8867,3.8008,0.0,0.0,0.0,0.0,0.0,0.0,0.0,0.0,0.0,0.0,0.0,0.0,0.0,0.0,0.0,0.0,0.0,0.0,0.0,0.0,0.0,0.0,0.0,0.0,0.0,0.0,0.0,0.0,0.0,0.0,0.0,0.0,0.0,0.0,0.0,0.0,0.0,0.0,0.0,3.3951,3.4196,3.3406,3.4612,3.5459,0.0,0.0,0.0,0.0,0.0,0.0,0.0,0.0,0.0,3.4695,3.397,3.3723,3.4157,3.3687,3.3414,3.3547,3.4002,3.4362,3.4629,3.4963,3.5004,3.4817,3.499,3.4576,3.3721,3.2919,3.2425,3.2118,0.0,0.0,0.0,0.0,3.1717,3.1757,0.0,0.0,0.0,0.0,0.0,0.0,0.0,0.0,0.0,0.0,0.0,0.0,3.5488,3.6309,3.7051,3.7578,3.8223,3.8496,3.8262,3.8144,3.7891,3.748,3.7461,3.7461,3.7461,3.8203,3.9238,4.0547,4.1719,4.2558,4.3105,4.375,4.4043,4.4023,4.3613,4.2148,3.9961,3.9004,3.8281,3.7553,0.0,0.0,0.0,0.0,0.0,0.0,0.0,0.0,0.0,0.0,0.0,0.0,0.0,0.0,0.0,0.0,0.0,0.0,0.0,0.0,0.0,0.0,0.0,0.0,0.0,0.0,0.0,0.0,0.0,0.0,0.0,0.0,0.0,0.0,0.0,0.0,0.0,3.2266,3.3014,3.1742,3.336,3.4392,0.0,0.0,0.0,0.0,0.0,0.0,3.1504,3.3281,3.4106,3.3187,3.344,3.3721,3.4095,3.4536,3.4803,3.4883,3.5404,3.5685,3.5778,3.6286,3.6233,3.5765,3.5979,3.5698,3.5004,3.3895,3.3173,3.2719,3.2291,3.2024,3.1931,3.2225,3.2372,3.2478,0.0,0.0,0.0,0.0,0.0,0.0,0.0,0.0,0.0,0.0,0.0,3.5937,3.5996,3.7812,3.8906,3.8535,3.9668,4.0039,3.9199,3.8769,3.8359,3.791,3.7891,3.7891,3.7891,3.9531,4.1016,4.2305,4.3183,4.4043,4.4902,4.4941,4.4961,4.4941,4.4512,4.3555,4.2187,4.0918,3.9902,3.9004,3.7592,0.0,0.0,0.0,0.0,0.0,0.0,0.0,0.0,0.0,0.0,0.0,0.0,0.0,0.0,0.0,0.0,0.0,0.0,0.0,0.0,0.0,0.0,0.0,0.0,0.0,0.0,0.0,0.0,0.0,0.0,0.0,0.0,0.0,0.0,0.0,0.0,0.0,0.0,2.9972,3.0052,0.0,0.0,0.0,0.0,3.0859,3.1181,3.1853,3.2812,3.3359,3.3855,3.503,3.507,3.5364,3.5939,3.5965,3.6126,3.6393,3.6714,3.7008,3.7275,3.7595,3.7555,3.7275,3.7275,3.6794,3.5939,3.503,3.4148,3.336,3.3334,3.2986,3.2532,3.2826,3.3106,3.3387,0.0,0.0,0.0,0.0,0.0,0.0,0.0,0.0,3.416,3.4434,3.5371,3.6543,3.791,3.9258,4.043,4.1387,4.1641,4.1504,4.0918,3.9961,3.9219,3.8769,3.8496,3.873,3.957,4.1016,4.2383,4.3691,4.4824,4.5683,4.625,4.6543,4.666,4.6641,4.6211,4.5625,4.4766,4.2363,4.0996,4.0179,3.7387,3.5085,0.0,0.0,0.0,0.0,0.0,0.0,0.0,0.0,0.0,0.0,0.0,0.0,0.0,0.0,0.0,0.0,0.0,0.0,0.0,0.0,0.0,0.0,0.0,0.0,0.0,0.0,0.0,0.0,0.0,0.0,0.0,0.0,0.0,0.0,0.0,0.0,0.0,3.0996,3.1383,0.0,3.2024,3.1784,3.1851,3.2438,3.2933,3.3641,3.4629,3.4977,3.5498,3.6286,3.6687,3.6981,3.7195,3.7595,3.7742,3.7635,3.8143,3.8317,3.825,3.8758,3.8691,3.825,3.825,3.7849,3.7155,3.6647,3.5591,3.4282,3.4282,3.4042,3.3708,3.3801,3.3908,3.4015,0.0,0.0,0.0,0.0,0.0,0.0,0.0,3.3906,3.4434,3.4883,3.6074,3.7598,3.9453,4.082,4.2051,4.3183,4.3027,4.2558,4.1855,4.0605,3.9687,3.9219,3.9082,3.9687,4.1133,4.2422,4.3808,4.5254,4.6543,4.7383,4.7812,4.8242,4.8457,4.8437,4.8008,4.6999,4.5706,4.4214,4.2773,4.1308,3.781,3.5477,3.4189,0.0,0.0,0.0,0.0,0.0,0.0,0.0,0.0,0.0,0.0,0.0,0.0,0.0,0.0,0.0,0.0,0.0,0.0,0.0,0.0,0.0,0.0,0.0,0.0,0.0,0.0,0.0,0.0,0.0,0.0,0.0,0.0,0.0,0.0,3.0688,3.1784,3.2078,3.2893,3.348,3.3574,3.3587,3.3788,3.4269,3.4776,3.5444,3.6326,3.654,3.6981,3.7662,3.8063,3.8357,3.8571,3.8865,3.8985,3.8878,3.9265,3.9346,3.9199,3.9666,3.964,3.9159,3.9159,3.8838,3.825,3.8063,3.7128,3.5752,3.5364,3.5017,3.475,3.4656,3.4616,3.4422,0.0,0.0,0.0,0.0,0.0,0.0,3.3418,3.4141,3.4863,3.5312,3.7246,3.9082,4.041,4.2461,4.3769,4.3828,4.3769,4.3203,4.1953,4.0625,3.9687,3.9238,3.9707,4.0762,4.2461,4.3808,4.5312,4.6992,4.8281,4.9121,4.9551,5.0,5.0195,4.9986,4.9766,4.778,4.4984,4.6257,4.497,4.2017,3.8791,3.5817,3.3496,0.0,0.0,0.0,0.0,0.0,0.0,0.0,0.0,0.0,0.0,0.0,0.0,0.0,0.0,0.0,0.0,0.0,0.0,0.0,0.0,0.0,0.0,0.0,0.0,0.0,0.0,0.0,0.0,0.0,0.0,0.0,0.0,0.0,3.0822,3.1851,3.2719,3.304,3.4362,3.5151,3.4883,3.5364,3.5805,3.6112,3.6433,3.6981,3.7849,3.7889,3.8317,3.9185,3.9225,3.9493,4.0067,3.9786,3.9786,4.0067,4.0067,4.0067,4.0067,4.0361,4.0334,4.0067,4.0067,3.9733,3.9199,3.9185,3.8651,3.7742,3.658,3.5939,3.5631,3.5351,3.5231,3.4623,0.0,0.0,0.0,0.0,0.0,0.0,3.3418,3.4141,3.4746,3.4883,3.7051,3.9316,4.123,4.3379,4.5156,4.6406,4.5371,4.4238,4.3242,4.1113,3.9844,3.9707,4.1016,4.2402,4.3828,4.5723,4.7246,4.8359,4.9336,4.9883,5.0,5.043,4.9435,4.7637,4.9819,4.8034,4.3455,4.3603,4.2518,4.0679,3.9192,3.6249,3.2701,0.0,0.0,0.0,0.0,0.0,0.0,0.0,0.0,0.0,0.0,0.0,0.0,0.0,0.0,0.0,0.0,0.0,0.0,0.0,0.0,0.0,0.0,0.0,0.0,0.0,0.0,0.0,0.0,0.0,0.0,0.0,3.1623,3.1917,3.149,3.2812,3.4175,3.511,3.5952,3.6607,3.6941,3.6941,3.7128,3.7609,3.8143,3.8718,3.9372,3.9813,4.0174,4.0428,4.0615,4.0829,4.0976,4.0909,4.0909,4.0976,4.0976,4.0976,4.0976,4.1056,4.1056,4.0949,4.0548,4.0254,4.008,3.9666,3.9346,3.8985,3.7809,3.7021,3.654,3.6259,3.458,3.2337,0.0,0.0,0.0,0.0,0.0,0.0,3.3418,3.4141,3.4824,3.5215,3.7832,4.041,4.2383,4.4531,4.6152,4.6973,4.5469,4.3945,4.2734,4.0918,4.0215,4.0918,4.2422,4.4023,4.5703,4.748,4.8828,4.9707,5.0566,5.0378,4.9158,4.9591,4.8432,4.5732,4.7795,4.5956,4.169,4.2709,4.1208,3.8021,3.8278,3.6227,3.3051,3.3816,3.1692,2.896,3.2888,3.3018,3.178,3.4649,0.0,0.0,0.0,0.0,0.0,0.0,0.0,0.0,0.0,0.0,0.0,0.0,0.0,0.0,0.0,0.0,0.0,0.0,0.0,0.0,0.0,0.0,0.0,0.0,3.2919,3.3561,3.3841,3.487,3.5859,3.654,3.7448,3.8183,3.8544,3.8624,3.8878,3.9346,3.9813,4.0281,4.0735,4.0976,4.1163,4.1269,4.131,4.1416,4.1523,4.1523,4.1603,4.171,4.171,4.171,4.171,4.1603,4.1523,4.1497,4.1056,4.0842,4.0802,4.0334,3.9319,0.0,0.0,0.0,0.0,0.0,3.1026,2.8131,0.0,0.0,0.0,0.0,0.0,0.0,3.3496,3.418,3.5019,3.5898,3.8906,4.1562,4.3164,4.5234,4.6426,4.625,4.459,4.291,4.1348,4.0527,4.0898,4.2637,4.4062,4.5801,4.7891,4.8827,4.9722,5.0552,5.1147,5.0078,4.7606,4.8015,4.6907,4.4272,4.4695,4.3051,4.0039,4.2719,4.0469,3.5496,3.6738,3.5868,3.4029,3.5065,3.329,3.0299,3.1655,3.0821,2.9381,3.2811,0.0,0.0,0.0,0.0,0.0,0.0,0.0,0.0,0.0,0.0,0.0,0.0,0.0,0.0,0.0,0.0,0.0,0.0,0.0,0.0,0.0,0.0,0.0,0.0,3.4229,3.5538,3.6941,3.7489,3.7716,3.7676,3.8878,3.9706,3.9786,4.0294,4.0735,4.0989,4.131,4.1603,4.1857,4.167,0.0,0.0,0.0,4.167,4.1924,4.1937,4.2071,4.2325,4.2325,4.2325,4.2298,4.2044,4.1924,4.1857,4.1052,4.092,4.084,4.0057,3.8,3.5193,3.7116,3.6131,3.2926,2.9026,2.5912,2.37,0.0,0.0,0.0,0.0,0.0,0.0,3.3887,3.4375,3.5019,3.5898,3.8105,3.998,4.1035,4.2754,4.4355,4.5683,4.3887,4.2383,4.1719,4.1523,4.2363,4.4433,4.6406,4.832,5.0137,4.9002,4.8982,4.9786,4.7704,4.6448,4.6023,4.6423,4.5107,4.2562,4.497,4.3175,3.8331,4.1104,3.9907,3.654,3.6462,3.5294,3.3516,3.45,3.3071,3.1457,3.4932,3.4717,3.3041,3.3586,3.2907,3.2219,3.3076,3.1256,0.0,0.0,0.0,0.0,0.0,0.0,0.0,0.0,0.0,0.0,0.0,0.0,0.0,0.0,0.0,0.0,0.0,0.0,0.0,3.4229,3.5792,3.7235,3.825,3.9239,3.9786,3.9559,4.0,4.0481,4.0949,4.131,4.1563,4.1603,4.2111,4.2445,4.2485,4.2659,4.2766,4.2846,4.2806,4.2766,4.2846,4.2846,4.2873,4.2913,4.2913,0.0,4.2913,4.2873,4.2699,4.2458,3.9323,3.7782,3.7312,3.4237,3.2488,3.1693,3.1502,3.0848,2.965,2.6436,2.4751,2.4011,0.0,0.0,0.0,0.0,0.0,0.0,3.4004,3.4434,3.5098,3.6211,3.8223,3.9883,4.0762,4.2187,4.3164,4.3398,4.1816,4.1094,4.1758,4.2402,4.3906,4.6504,4.8476,4.9435,4.9479,4.9453,4.886,4.7937,4.6772,4.5736,4.4221,4.4407,4.3023,4.0503,4.2055,4.116,3.8477,3.9878,3.9429,3.7782,3.7342,3.654,3.563,3.4834,3.3863,3.2902,3.4708,3.4407,3.3228,3.3993,3.3205,3.2067,3.2955,3.1331,2.9367,0.0,0.0,0.0,0.0,0.0,0.0,0.0,0.0,0.0,0.0,0.0,0.0,0.0,0.0,3.2024,3.2478,0.0,3.4696,3.5872,3.7301,3.8584,3.9493,4.0361,4.0762,4.0294,4.0762,4.131,4.1737,4.2044,4.2298,4.2445,4.2699,4.2953,4.31,4.3233,4.3314,4.3314,4.3314,4.3233,4.31,4.338,4.3461,4.3314,4.3781,4.2756,4.087,4.087,3.9647,3.7491,3.5551,3.453,3.4142,3.0093,2.8532,2.8047,2.5889,2.5877,2.691,2.3648,2.2412,2.1913,0.0,0.0,0.0,0.0,0.0,0.0,3.4121,3.4551,3.5273,3.6504,3.832,3.9746,4.0351,4.1484,4.1797,4.0762,3.9922,4.0234,4.2051,4.3379,4.5469,4.8574,5.0371,5.0497,4.8891,4.9602,4.8597,4.5881,4.5853,4.4597,4.2367,4.2367,4.1369,3.9332,3.9265,3.9225,3.9225,3.9225,3.9118,3.8865,3.8544,3.829,3.7889,3.6112,3.5124,3.4576,3.3935,3.308,3.2418,3.4041,3.2911,3.1245,3.2916,3.2015,3.01,2.9753,2.9446,0.0,0.0,0.0,0.0,0.0,0.0,0.0,0.0,3.0969,3.1677,3.2104,3.2839,3.3587,3.4202,3.5271,3.6433,3.7555,3.8691,3.9706,4.0508,4.1096,4.1269,4.0802,4.1416,4.2004,4.2365,4.2699,4.2993,4.3167,4.3273,4.342,4.3607,4.3634,4.3634,4.3714,4.3714,4.3607,4.3461,4.3928,4.3771,4.2704,4.3382,4.1531,3.7551,3.7517,3.5711,3.247,3.1492,3.0509,2.9648,2.6587,2.4998,2.4557,2.1648,2.2242,2.4058,2.122,2.0187,2.0187,0.0,0.0,0.0,0.0,0.0,0.0,0.0,0.0,3.5644,3.6562,3.7539,3.8027,3.7754,3.8535,3.9023,3.8887,3.9785,4.1269,4.3359,4.4726,4.6973,5.0371,5.2168,5.2379,5.0956,4.884,4.6736,4.4426,4.2034,4.0569,4.0358,4.0358,4.0132,3.992,3.9666,3.9559,3.9559,3.9559,3.9533,3.9493,3.9159,3.9052,3.8931,3.8143,3.7048,3.5765,3.4923,3.3868,3.2879,3.3233,3.2283,3.1223,3.1854,3.1531,3.0969,3.0421,3.0047,2.9686,2.9098,2.9152,2.9446,2.9713,3.0434,3.1209,0.0,3.2332,3.3013,3.3855,3.4509,3.5124,3.5725,3.6794,3.7889,3.8798,3.9746,4.0548,4.1163,4.1523,4.171,4.1644,4.1964,4.2405,4.2953,4.3527,4.3754,4.3487,4.3968,4.4182,4.3968,4.3968,4.4075,4.4329,4.4329,4.4436,4.4663,4.473,4.3091,3.9751,3.9608,3.759,3.3999,3.3814,3.3464,3.2249,2.868,2.528,2.2302,2.1984,2.1541,2.1284,2.1013,2.091,2.1013,2.0492,2.0485,2.0471,0.0,0.0,0.0,0.0,0.0,0.0,0.0,0.0,3.5703,3.6562,3.7187,3.75,3.7324,3.7402,3.7656,3.8144,3.8926,4.0742,4.3906,4.5781,4.832,5.1758,5.1871,5.0933,4.896,4.6639,4.4225,4.1688,4.0841,4.0294,4.0294,4.0294,4.0294,4.0294,4.0147,4.0107,4.0107,4.0107,4.0107,4.0107,3.996,3.9706,3.9346,3.8758,3.7408,3.5725,3.5017,3.3988,0.0,3.2185,3.1744,3.1503,3.1623,3.1356,3.0929,3.0688,3.0167,2.9646,2.9566,2.9766,3.01,3.0568,3.1463,3.2398,3.3,3.3721,3.4469,3.5191,3.5939,3.6687,3.7489,3.8437,3.9346,4.0067,4.0762,4.131,4.1563,4.171,4.171,4.1563,4.1777,4.2258,4.302,4.3487,4.3821,4.4035,4.4142,4.4289,4.4516,4.4516,4.346,4.1361,4.1522,4.0498,3.8225,3.8374,3.7758,3.5811,3.5994,3.4204,3.0038,3.0366,2.8725,2.6127,2.4561,2.2795,2.1333,2.1245,2.1089,2.0892,2.0811,2.0682,2.0539,2.0539,2.0539,2.0539,0.0,0.0,0.0,0.0,0.0,0.0,0.0,0.0,0.0,0.0,3.6934,3.7129,3.7129,3.6953,3.709,3.7695,3.8262,4.0137,4.3789,4.6035,4.8828,5.2383,5.1307,4.9856,4.7716,4.538,4.2856,4.0147,4.0361,4.0481,4.0481,4.0481,4.0481,4.0481,4.0481,4.0481,4.0481,4.0481,4.0481,4.0481,4.0481,4.004,3.9265,3.8504,3.6941,3.5097,3.467,3.3547,3.2131,3.137,3.1089,3.1102,3.1356,3.1142,3.0782,3.0702,3.0167,2.9686,3.006,3.0488,3.0996,3.1664,3.2719,3.3761,3.4456,3.5231,3.5992,3.666,3.7448,3.825,3.9052,3.9786,4.0468,4.1056,4.1497,4.179,4.179,4.1644,4.1416,4.1016,4.1016,4.1416,4.2298,4.298,4.3634,4.4142,4.4142,4.4302,4.473,4.399,4.2126,3.9444,3.8522,3.6615,3.3743,3.4152,3.3486,3.2029,3.2546,3.0466,2.6195,2.6454,2.4897,2.1862,2.1686,2.1509,2.1367,2.1211,2.1068,2.0933,2.077,2.0648,2.0539,2.0539,2.0539,2.0539,0.0,0.0,0.0,0.0,0.0,0.0,0.0,0.0,0.0,0.0,3.668,3.668,3.668,3.7051,3.7285,3.7324,3.8086,3.9863,4.291,4.5137,4.8066,5.1933,5.1159,4.9866,4.8423,4.5843,4.3173,4.0468,4.0481,4.0481,4.0481,4.0481,4.0481,4.0481,4.0481,4.0481,4.0481,4.0481,4.0481,4.0481,4.0481,3.9786,3.8611,3.7448,3.5725,3.3935,3.3921,3.2412,3.0474,3.0728,3.0247,2.97,3.0555,3.0808,3.0742,3.0461,3.0154,3.0034,3.0608,3.1396,3.2265,3.3133,3.4242,3.5351,3.6233,3.6874,3.7569,3.8464,3.9118,3.9706,4.0334,4.0695,4.1096,4.167,4.179,4.179,4.179,4.131,4.0722,4.0147,3.9586,3.9599,4.0481,4.2111,4.3233,4.3527,4.4102,4.4436,4.4436,4.1128,3.9444,3.9691,3.6094,3.4243,3.4455,3.4486,3.2673,2.8841,2.867,2.6561,2.2805,2.2373,2.1889,2.1862,2.1584,2.1353,2.1211,2.1068,2.0912,2.077,2.0614,2.0539,2.0539,2.0539,2.0539,2.0539,0.0,0.0,0.0,0.0,0.0,0.0,0.0,0.0,0.0,0.0,0.0,0.0,0.0,0.0,0.0,0.0,3.7969,3.9297,4.2051,4.4785,4.7383,4.9844,4.8033,4.6939,4.7043,4.2738,4.0315,3.9893,3.9893,4.0,4.0187,4.0187,4.0294,4.0481,4.0481,4.0481,4.0481,4.0254,4.0187,4.0107,3.9319,3.8651,3.7916,3.5952,3.4162,3.2572,0.0,3.0488,2.9406,2.8911,2.8818,2.8991,2.9472,2.9633,2.9606,2.9513,2.9833,3.0461,3.1637,3.2612,3.3641,3.5097,3.6059,3.6874,3.7782,3.829,3.8758,3.9452,3.9132,3.8905,3.9493,3.9519,3.9706,4.0508,4.1122,4.1563,4.175,4.1456,4.0682,3.9346,3.9493,3.9559,3.9052,4.0441,4.0943,3.9934,3.9965,3.9227,3.7533,3.6257,3.4747,3.2481,3.0955,2.9061,2.7014,2.6887,2.5917,2.463,2.4357,2.3392,2.2255,2.1903,2.1794,2.1862,2.1564,2.1408,2.1353,2.1197,2.1055,2.0912,2.0756,2.0627,2.0539,2.0539,2.0539,2.0539,0.0,0.0,0.0,0.0,0.0,0.0,0.0,0.0,0.0,0.0,0.0,0.0,0.0,0.0,0.0,0.0,0.0,3.8672,4.0976,4.2529,4.4281,4.6266,4.3521,4.2516,4.314,3.9081,3.7235,3.7702,3.7823,3.8036,3.8317,3.8397,3.8691,3.9052,3.9052,3.9132,3.9199,3.8905,3.8651,3.8397,3.7529,3.666,3.5738,3.3908,3.2291,0.0,2.9579,2.8818,2.835,2.7976,2.811,2.847,2.8657,2.8791,2.8951,2.9259,3.0127,3.1303,3.2786,3.4055,3.5324,3.6767,3.7569,3.821,3.9012,3.9346,3.9479,3.9559,3.8945,3.8437,3.8504,3.8357,3.8504,3.9265,3.9893,4.0428,4.0949,4.0548,3.9362,3.7153,3.7332,3.6849,3.5145,3.5904,3.6684,3.7494,3.762,3.6745,3.3818,3.2637,3.0881,2.8577,2.7305,2.5362,2.3008,2.2798,2.2608,2.2391,2.2201,2.2079,2.2025,2.1828,2.1774,2.1794,2.1543,2.1441,2.1421,2.1211,2.1089,2.098,2.077,2.0627,2.0539,2.0539,2.0539,2.0539,0.0,0.0,0.0,0.0,0.0,0.0,0.0,0.0,0.0,0.0,0.0,0.0,0.0,0.0,0.0,0.0,0.0,0.0,3.9687,3.8713,3.9232,4.1714,3.81,3.6571,3.7733,3.5193,3.3935,3.4229,3.4509,3.4803,3.5084,3.5364,3.5792,3.6353,3.6353,3.6513,3.6767,3.6473,3.6019,3.5485,3.5137,3.3988,3.2398,3.1463,3.0261,2.8951,2.8043,2.7549,2.7388,2.7936,2.8136,2.8163,2.8163,2.839,2.8831,2.9726,3.1022,3.2505,3.4015,3.5698,3.7235,3.8116,3.8758,3.9346,3.992,4.0,3.9733,3.8865,3.8611,3.829,3.7422,3.7065,3.7277,3.7888,3.8047,3.82,3.9098,3.8491,3.6833,3.3959,3.3094,3.1586,2.9188,2.901,3.109,3.5703,3.679,3.5868,3.2861,2.9742,2.8111,2.8262,2.4777,2.2832,2.2974,2.2696,2.2391,2.2093,2.2093,2.2025,2.1862,2.1862,2.1794,2.1672,2.1509,2.1441,2.1421,2.1123,2.1001,2.0967,2.0661,2.0539,2.0539,2.0539,2.0285,2.0278,0.0,0.0,0.0,0.0,0.0,0.0,0.0,0.0,0.0,0.0,0.0,0.0,0.0,0.0,0.0,0.0,0.0,0.0,3.8379,3.8229,3.8326,3.9104,3.6434,3.5333,3.5831,3.3601,3.2706,3.3,3.3066,3.3267,3.3547,3.3627,3.3855,3.4229,3.4229,3.4389,3.4629,3.4108,3.3921,3.3881,3.2706,3.2104,3.173,3.0181,2.9499,2.9259,2.835,2.7976,2.7909,2.7843,2.811,2.8484,2.8484,2.8845,2.9472,3.0568,3.1944,3.3521,3.5431,3.6914,3.8183,3.9306,3.9706,3.9853,4.0,3.9519,3.8945,3.8477,3.7168,3.6019,3.5792,3.4159,3.2893,3.4004,3.3109,3.2585,3.3481,3.3306,3.2409,3.0941,3.0941,3.032,2.9241,2.9642,2.941,2.8429,2.8802,2.8136,2.5285,2.4438,2.3998,2.4034,2.307,2.2466,2.2513,2.2425,2.2181,2.1774,2.1882,2.1862,2.1726,2.1597,2.1597,2.1672,2.1509,2.1441,2.1421,2.1123,2.1001,2.0967,2.0661,2.0539,2.0539,2.0539,1.9,1.6689,0.0,0.0,0.0,0.0,0.0,0.0,0.0,0.0,0.0,0.0,0.0,0.0,0.0,0.0,0.0,0.0,0.0,0.0,0.0,3.6683,3.6093,3.5347,3.3492,3.2022,3.1498,3.0301,2.9993,3.0421,3.0421,3.0635,3.1062,3.1062,3.1289,3.1704,3.1704,3.1864,3.2118,3.165,3.1396,0.0,0.0,3.002,2.9833,2.8978,2.8751,2.8831,2.8323,2.8136,2.8177,2.8404,2.8711,2.9032,2.9299,2.9953,3.0889,3.2198,3.3627,3.5177,3.6981,3.825,3.9239,4.004,4.0147,3.992,3.9559,3.8985,3.8183,3.6981,3.5024,3.3492,3.413,3.1252,2.9333,3.1447,3.0175,2.9301,3.0384,3.0414,2.9816,2.8002,2.8095,2.753,2.5468,2.5716,2.5516,2.3737,2.5396,2.5062,2.2393,2.2269,2.2411,2.2554,2.2289,2.2113,2.2038,2.2038,2.1882,2.1564,2.1726,2.1706,2.1564,2.155,2.155,2.1564,2.1475,2.1408,2.1319,2.1089,2.0967,2.0878,2.0627,1.9516,1.8224,1.8224,1.6168,1.3094,0.0,0.0,0.0,0.0,0.0,0.0,0.0,0.0,0.0,0.0,0.0,0.0,0.0,0.0,0.0,0.0,0.0,0.0,0.0,0.0,3.3705,3.2309,3.0498,2.866,2.7227,2.6921,2.7014,2.7522,2.7522,2.7802,2.831,2.831,2.8591,2.9072,2.9072,2.9232,2.9486,2.9232,2.8858,2.843,2.843,2.8136,2.7722,0.0,2.811,2.8136,2.8136,2.8136,2.8283,2.9232,2.9593,2.978,3.0434,3.145,3.2692,3.4175,3.5591,3.6981,3.8437,3.9452,4.0147,4.0401,4.0174,3.964,3.8838,3.825,3.7275,3.5177,3.2932,3.1585,3.2455,2.8746,2.655,2.9098,2.7774,2.6611,2.816,2.8086,2.7302,2.5362,2.5156,2.3862,2.1089,2.0824,2.0933,2.1197,2.3952,2.4718,2.2139,2.2004,2.2201,2.2445,2.2059,2.1794,2.1672,2.1692,2.1618,2.1441,2.1597,2.1584,2.1441,2.1584,2.1564,2.1441,2.1441,2.1353,2.1197,2.1055,2.0912,2.075,2.0084,1.7964,1.5403,1.4883,1.2574,0.9506,0.0,0.0,0.0,0.0,0.0,0.0,0.0,0.0,0.0,0.0,0.0,0.0,0.0,0.0,0.0,0.0,0.0,0.0,0.0,0.0,0.0,3.4925,3.1389,2.9323,2.8915,2.7388,2.6507,2.6613,2.6613,2.6667,2.6774,2.6774,2.6827,2.6921,2.6921,2.7081,2.7362,2.7308,2.7362,2.7495,2.7495,2.7575,2.7709,2.7749,2.7923,0.0,2.8136,2.8136,2.831,2.9459,3.0167,3.0755,3.1824,3.2986,3.4229,3.5698,3.6834,3.7849,3.9118,3.992,4.0401,4.0481,3.9706,3.8838,3.8437,3.6981,3.5538,3.4897,3.3778,3.2402,3.0319,2.7622,2.5253,2.4576,2.2361,2.1151,2.2383,2.2441,2.2234,2.2068,2.1991,2.1645,2.1143,2.1143,2.1157,2.1211,2.1881,2.2097,2.1869,2.1903,2.195,2.1991,2.1815,2.1692,2.1672,2.1794,2.1706,2.1441,2.1597,2.1584,2.1441,2.1475,2.1455,2.1441,2.1441,2.1353,2.1197,2.1055,2.0912,2.0486,1.75,1.5908,1.5143,1.2319,0.899,0.5917,0.0,0.0,0.0,0.0,0.0,0.0,0.0,0.0,0.0,0.0,3.7079,3.6055,0.0,0.0,0.0,0.0,0.0,0.0,0.0,0.0,0.0,3.4866,3.314,3.1381,2.9434,2.8374,2.7546,2.6613,0.0,2.6466,2.6613,2.6466,2.6386,2.6386,2.6386,2.6547,2.6827,2.6827,2.6987,2.7281,2.7428,2.7575,2.7722,2.7869,2.8016,0.0,2.8136,2.8136,2.8323,2.9513,3.0408,3.1276,3.2772,3.4162,3.5525,3.6981,3.7929,3.8731,3.9786,4.0254,4.0441,4.0294,3.9346,3.825,3.7342,3.6006,3.471,3.3801,3.1239,2.9474,3.0977,2.5902,2.213,2.4298,2.144,1.9325,2.0363,2.0594,2.0824,2.1265,2.1333,2.1333,2.1333,2.1333,2.1333,2.1333,2.1408,2.153,2.176,2.1848,2.1815,2.1652,2.1672,2.1638,2.155,2.1618,2.1584,2.1441,2.1509,2.1509,2.1441,2.1441,2.1408,2.1319,2.1319,2.1197,2.098,1.9062,1.8178,1.7547,1.4145,1.1555,0.9766,0.8224,0.5405,0.2319,0.0,0.0,0.0,0.0,0.0,0.0,0.0,4.1789,4.086,3.9948,3.8656,3.7525,3.6074,3.6016,0.0,0.0,0.0,0.0,0.0,0.0,0.0,0.0,3.4903,3.3306,3.0207,0.0,0.0,2.6734,2.6507,0.0,0.0,0.0,0.0,0.0,2.6453,2.6613,2.6827,2.6961,2.7148,0.0,0.0,2.7789,2.7816,0.0,0.0,0.0,0.0,2.8136,2.831,2.9446,3.0327,3.1236,3.2893,3.4589,3.6246,3.7569,3.8504,3.9265,4.0147,4.0441,4.0401,4.0027,3.8945,3.7423,3.5685,3.4372,3.3084,3.1349,2.8422,2.7003,2.9851,2.4135,2.0198,2.3855,2.1024,1.8728,1.9698,2.0085,2.0492,2.1055,2.1279,2.1387,2.1353,2.1367,2.1387,2.1387,2.1421,2.1496,2.1618,2.1726,2.1686,2.1441,2.1564,2.1564,2.1441,2.1441,2.1421,2.1387,2.1387,2.1367,2.1353,2.1353,2.1279,2.1157,2.1157,2.0487,1.9465,1.6861,1.4986,1.3861,1.0531,0.7456,0.489,0.4379,0.2319,0.0,0.0,0.0,0.0,0.0,0.0,0.0,0.0,4.4419,4.4038,4.1158,4.1616,4.0485,3.6502,3.6016,0.0,0.0,0.0,0.0,0.0,0.0,0.0,0.0,0.0,0.0,0.0,0.0,0.0,2.6426,2.64,0.0,0.0,0.0,0.0,0.0,0.0,2.68,2.6854,2.7388,0.0,0.0,0.0,0.0,0.0,0.0,0.0,0.0,0.0,2.8136,2.8283,2.9205,2.9753,3.0247,3.149,3.3614,3.5845,3.6794,3.7889,3.8945,3.9853,4.0254,4.0334,3.9786,3.833,3.6197,3.3102,3.1126,2.8982,2.6402,2.7443,2.7465,2.2931,2.3381,2.3262,1.9287,1.8336,1.8342,1.9522,1.9942,2.0295,2.0756,2.1055,2.1177,2.1055,2.1157,2.1231,2.1231,2.1367,2.1441,2.1455,2.1475,2.1475,2.1441,2.1455,2.1455,2.1441,2.1441,2.1367,2.1231,2.1231,2.1157,2.1034,2.1034,2.1034,2.1021,2.1021,1.908,1.6087,1.5824,1.3696,1.0528,0.694,0.5405,0.4633,0.1547,0.0258,0.0,0.0,0.0,0.0,0.0,0.0,0.0,0.0,4.3487,4.3383,4.3555,4.319,4.1878,3.8842,3.8262,3.7375,0.0,0.0,0.0,0.0,0.0,0.0,0.0,0.0,0.0,0.0,0.0,2.9604,2.6386,2.6386,0.0,0.0,0.0,0.0,0.0,0.0,2.6921,2.7121,2.7522,0.0,0.0,0.0,0.0,0.0,0.0,0.0,0.0,0.0,0.0,2.823,2.8778,2.9152,2.9472,2.994,3.141,3.336,3.5311,3.6874,3.8143,3.9225,3.9853,4.004,3.9265,3.7849,3.6215,3.418,3.1365,2.8866,2.7683,2.5726,2.4187,2.3568,2.1717,2.0168,1.982,1.8388,1.7623,1.8464,1.883,1.9325,2.0139,2.0492,2.077,2.098,2.1055,2.1089,2.1089,2.1143,2.1177,2.1177,2.1265,2.1353,2.1441,2.1353,2.1353,2.1441,2.1353,2.1265,2.1211,2.1123,2.1055,2.1001,2.1001,2.0946,2.0858,1.8766,1.6861,1.5208,1.1091,0.8503,0.694,0.3348,0.2062,0.1805,0.0516,0.0,0.0,0.0,0.0,0.0,0.0,0.0,0.0,4.3388,4.2928,4.3,4.4436,4.3556,4.1993,4.0066,3.8865,3.7522,3.574,0.0,0.0,0.0,0.0,0.0,0.0,0.0,0.0,0.0,0.0,3.036,2.6266,2.6346,2.6386,0.0,0.0,2.6386,2.64,0.0,0.0,0.0,0.0,0.0,0.0,0.0,0.0,0.0,0.0,0.0,0.0,0.0,0.0,0.0,0.0,0.0,2.8778,2.8778,2.9606,3.1062,3.3547,3.5444,3.7021,3.829,3.9052,3.9306,3.8504,3.6669,3.4733,3.2747,2.9399,2.6595,2.5612,2.3054,2.1518,2.2545,2.0279,1.8634,1.9662,1.8222,1.7175,1.7724,1.8111,1.862,1.9447,1.9854,2.0227,2.0627,2.0824,2.0933,2.0933,2.098,2.098,2.0933,2.1034,2.1157,2.1299,2.1211,2.1197,2.1319,2.1211,2.1123,2.1089,2.098,2.0912,2.0858,2.0858,2.0289,1.9151,1.6559,1.4439,1.2071,0.7199,0.4631,0.3348,0.1032,0.0,0.0,0.0,0.0,0.0,0.0,0.0,0.0,0.0,0.0,0.0,0.0,4.3463,4.3671,4.3517,4.2201,4.0735,3.9361,3.6938,3.5566,3.5976,0.0,0.0,0.0,0.0,0.0,0.0,0.0,0.0,0.0,0.0,2.9868,2.5959,2.6253,2.6386,2.6386,2.6386,2.6386,2.64,0.0,0.0,0.0,0.0,0.0,0.0,0.0,0.0,2.8136,0.0,0.0,0.0,0.0,0.0,0.0,0.0,0.0,0.0,0.0,2.8564,2.9472,3.153,3.3601,3.5538,3.7021,3.7823,3.8143,3.7529,3.4701,3.0917,2.7144,2.3662,2.0488,1.7594,1.9253,2.0279,1.7601,1.9253,2.0288,1.7391,1.6978,1.7134,1.7589,1.8036,1.8423,1.8742,1.9169,1.9556,1.9854,2.0417,2.077,2.077,2.0912,2.0933,2.079,2.077,2.0845,2.1001,2.1001,2.1001,2.1001,2.1001,2.0933,2.077,2.077,2.0702,2.0539,2.0539,1.8739,1.5403,1.5403,1.1551,0.5147,0.5147,0.3092,0.0,0.0,0.0,0.0,0.0,0.0,0.0,0.0,0.0,0.0,0.0,0.0,0.0,0.0,4.2082,4.2912,4.3671,4.401,4.3525,4.1903,3.9803,3.8125,3.7328,0.0,0.0,0.0,0.0,0.0,0.0,0.0,0.0,0.0,0.0,0.0,0.0,0.0,2.668,2.668,2.668,2.668,2.6694,2.6987,2.7175,0.0,0.0,0.0,0.0,0.0,2.8136,2.8136,0.0,0.0,0.0,0.0,0.0,0.0,0.0,0.0,0.0,0.0,0.0,0.0,3.0354,3.2211,3.4215,3.5297,3.6313,3.6914,3.6326,3.5016,3.3467,3.1875,2.7491,2.3568,2.2752,2.0279,1.8013,1.7188,1.7811,1.8013,1.7188,1.6978,1.7032,1.7175,1.7582,1.8091,1.8694,1.961,2.022,2.0315,2.0505,2.0614,2.0614,2.0661,2.0661,2.0614,2.0614,2.0736,2.1001,2.0892,2.0892,2.1001,2.0892,2.0824,2.077,2.0668,2.0594,2.0539,1.7964,1.6429,1.5143,1.0528,0.7199,0.489,0.2577,0.1032,0.0,0.0,0.0,0.0,0.0,0.0,0.0,0.0,0.0,0.0,0.0,0.0,0.0,0.0,4.1103,4.2007,4.3313,4.3432,4.3183,4.2851,4.0127,3.8239,3.7842,0.0,0.0,0.0,0.0,0.0,0.0,0.0,0.0,0.0,0.0,0.0,0.0,0.0,0.0,0.0,0.0,2.6934,2.6827,2.7014,2.7161,0.0,0.0,0.0,0.0,2.8136,2.8136,2.8136,0.0,0.0,0.0,0.0,0.0,0.0,0.0,0.0,0.0,0.0,0.0,0.0,0.0,3.1022,3.2666,3.3788,3.487,3.5365,3.3922,3.2499,3.1046,2.9477,2.6345,2.3362,2.2338,2.0279,1.8222,1.7188,1.6978,1.6978,1.6978,1.6978,1.6978,1.6978,1.7317,1.7826,1.8511,1.9501,2.0119,2.0119,2.0275,2.0397,2.0451,2.0404,2.0397,2.0451,2.0404,2.0471,2.0648,2.0682,2.0736,2.0824,2.0736,2.0668,2.0614,2.0505,1.9692,1.8405,1.6315,1.4046,1.1296,0.6901,0.4353,0.0,0.0772,0.0,0.0,0.0,0.0,0.0,0.0,0.0,0.0,0.0,0.0,0.0,0.0,0.0,0.0,0.0,0.0,0.0,0.0,4.1159,4.0683,4.2542,3.8642,3.6476,0.0,0.0,0.0,0.0,0.0,0.0,0.0,0.0,0.0,0.0,0.0,0.0,0.0,2.9613,2.9022,2.7268,0.0,0.0,2.6854,2.6854,2.7014,0.0,0.0,0.0,0.0,2.8136,2.8136,0.0,0.0,0.0,0.0,0.0,0.0,0.0,0.0,0.0,0.0,0.0,0.0,0.0,0.0,0.0,0.0,0.0,3.348,3.3534,3.1024,2.8521,2.569,2.2401,2.1509,0.0,1.7811,1.9253,2.0079,1.7391,1.6978,1.6978,1.6978,1.6978,1.6978,1.6978,1.727,1.7704,1.8301,1.9006,1.9468,1.9468,1.9854,2.0153,2.0295,2.0187,2.0173,2.0309,2.0173,2.0098,2.0098,2.0363,2.0505,2.0505,2.0505,2.0438,2.0309,2.0051,1.8277,1.522,1.4607,1.1138,0.5134,0.4811,0.3048,0.0,0.0,0.0,0.0,0.0,0.0,0.0,0.0,0.0,0.0,0.0,0.0,0.0,0.0,0.0,0.0,0.0,0.0,0.0,0.0,4.1629,4.1929,4.2846,3.9731,3.7912,0.0,0.0,0.0,0.0,0.0,0.0,0.0,0.0,0.0,0.0,0.0,0.0,3.0643,3.0098,2.8862,2.7268,2.7495,0.0,0.0,0.0,0.0,0.0,0.0,0.0,0.0,2.8136,2.8136,0.0,0.0,0.0,0.0,2.8136,2.8297,0.0,0.0,0.0,0.0,0.0,0.0,0.0,0.0,3.0127,3.0581,3.1156,0.0,3.247,3.209,3.1701,3.0588,0.0,2.5695,2.3362,2.0696,1.9044,1.7811,1.7188,1.6978,1.6978,1.6978,1.6978,1.6978,1.6978,1.7629,1.8287,1.8776,1.9379,1.9766,1.9766,1.9976,2.0119,2.0153,2.0119,2.0119,2.0153,2.0119,2.0098,2.0098,2.0173,2.0207,2.0207,2.0207,2.0187,2.0153,1.7625,1.6103,1.5097,0.9809,0.6553,0.5061,0.2272,0.0759,0.0,0.0,0.0,0.0,0.0,0.0,0.0,0.0,0.0,0.0,0.0,0.0,0.0,0.0,0.0,0.0,0.0,0.0,0.0,0.0,0.0,0.0,0.0,0.0,0.0,0.0,0.0,0.0,0.0,0.0,0.0,0.0,0.0,0.0,0.0,0.0,0.0,0.0,0.0,3.019,0.0,0.0,0.0,0.0,0.0,0.0,0.0,0.0,2.8016,2.8136,2.8136,0.0,0.0,0.0,0.0,0.0,2.8136,2.8243,0.0,2.8711,2.9018,2.9325,0.0,0.0,0.0,0.0,3.0034,3.0247,3.0675,3.133,3.1806,3.0827,3.0935,3.0366,2.7851,2.6145,2.4392,2.1725,1.9871,1.8424,1.7188,1.6978,1.6978,1.6978,1.6978,1.7026,1.7161,1.7772,1.8355,1.8742,1.9237,1.9569,1.9569,1.9644,1.9712,1.9786,1.9732,1.9712,1.9786,1.9732,1.9698,1.9698,1.9698,1.982,2.0098,2.0031,1.9215,1.7646,1.5853,1.3374,1.0437,0.6699,0.4241,0.277,0.0751,0.0,0.0,0.0,0.0,0.0,0.0,0.0,0.0,0.0,-0.1013,-0.227,0.0,0.0,0.0,0.0,0.0,0.0,0.0,0.0,0.0,0.0,0.0,0.0,0.0,0.0,0.0,0.0,0.0,0.0,0.0,0.0,0.0,0.0,0.0,0.0,0.0,0.0,0.0,0.0,0.0,0.0,0.0,0.0,2.7589,0.0,0.0,0.0,0.0,0.0,2.7869,2.8136,2.8136,0.0,0.0,0.0,0.0,0.0,0.0,0.0,0.0,2.8804,2.9032,2.9192,2.97,0.0,0.0,0.0,0.0,0.0,3.0635,3.0956,3.07,2.9323,2.9267,2.8719,2.6328,2.5799,2.5009,2.1717,2.1103,2.0279,1.7601,1.6978,1.6978,1.6978,1.6978,1.7087,1.7378,1.7772,1.8124,1.8423,1.883,1.9115,1.9128,1.9128,1.9203,1.9379,1.9257,1.9237,1.9393,1.9271,1.9203,1.9203,1.9203,1.92,1.9215,1.9078,1.7739,1.4927,1.3847,1.0219,0.4904,0.4389,0.2705,0.0,0.0,0.0,0.0,0.0,0.0,0.0,0.0,0.0,0.0,-0.0503,-0.251,-0.5008,0.0,0.0,0.0,0.0,0.0,0.0,0.0,0.0,0.0,0.0,0.0,0.0,0.0,0.0,0.0,0.0,0.0,0.0,0.0,0.0,0.0,0.0,0.0,3.6191,3.6562,0.0,0.0,0.0,0.0,0.0,3.0349,2.8814,2.7789,0.0,0.0,0.0,0.0,2.7575,2.7869,2.8136,2.8136,0.0,0.0,0.0,0.0,0.0,0.0,0.0,0.0,2.8644,2.9005,2.9432,2.9526,0.0,0.0,0.0,0.0,0.0,3.0635,2.9327,2.8241,3.0972,3.1789,3.1475,2.8919,2.8537,2.7272,2.2131,2.1103,2.0279,1.7601,1.6978,1.6978,1.6978,1.6978,1.7087,1.7378,1.7589,1.7826,1.8124,1.8443,1.8687,1.8816,1.883,1.8938,1.9217,1.9094,1.9081,1.9237,1.9217,1.9203,1.9203,1.9203,1.8046,1.5456,1.5445,1.5184,1.4445,0.8907,0.5786,0.4829,0.1932,0.0484,0.0,0.0,0.0,0.0,0.0,0.0,0.0,0.0,0.0,-0.0243,-0.3197,-0.4427,-0.5384,0.0,0.0,0.0,0.0,0.0,0.0,0.0,0.0,0.0,0.0,0.0,0.0,0.0,0.0,0.0,0.0,0.0,0.0,0.0,0.0,0.0,0.0,3.6035,3.623,3.666,3.6894,0.0,0.0,0.0,3.4418,3.4034,3.0971,2.8646,2.7255,0.0,0.0,0.0,2.7575,2.7869,2.8136,0.0,0.0,0.0,0.0,0.0,0.0,0.0,0.0,0.0,0.0,2.8791,2.9058,2.9379,0.0,0.0,0.0,0.0,0.0,3.0635,2.9844,2.9118,2.9904,2.9236,2.8042,2.701,2.5747,2.4187,2.1725,1.9871,1.8424,1.7188,1.6978,1.6978,1.6978,1.6978,1.7087,1.7378,1.7555,1.7758,1.8057,1.8287,1.8443,1.8511,1.8518,1.8599,1.883,1.8776,1.8816,1.8959,1.8959,1.8959,1.8959,1.7302,1.5633,1.4205,1.0895,0.9262,0.9305,0.6183,0.381,0.2154,0.0719,0.0,0.0,0.0,0.0,0.0,0.0,0.0,0.0,0.0,-0.0964,-0.3135,-0.8271,-1.0011,-1.0756,0.0,0.0,0.0,0.0,0.0,0.0,0.0,0.0,0.0,0.0,0.0,0.0,0.0,0.0,0.0,0.0,0.0,0.0,0.0,0.0,3.5469,3.6328,3.6152,3.6309,3.6953,3.7285,3.7871,3.873,3.7258,3.6605,3.664,3.2602,2.9705,0.0,0.0,0.0,2.7281,2.7575,2.7869,2.8136,0.0,0.0,0.0,0.0,0.0,0.0,0.0,0.0,0.0,0.0,0.0,0.0,0.0,0.0,0.0,2.9833,2.9913,3.0034,3.0555,3.036,2.9704,2.8593,2.6893,2.5461,2.5318,2.3568,2.1924,2.131,1.9462,1.7811,1.7188,1.6978,1.6978,1.6978,1.6978,1.7073,1.7331,1.75,1.7684,1.7948,1.8124,1.8233,1.8267,1.8233,1.8287,1.8464,1.8477,1.8552,1.8694,1.8742,1.8523,1.782,1.547,1.3363,1.1954,0.7038,0.4711,0.4742,0.4008,0.2361,0.0,0.0,0.0,0.0,0.0,0.0,0.0,0.0,-0.0481,-0.1202,-0.12,-0.3598,-0.7692,-1.2558,-1.5092,-1.621,0.0,0.0,0.0,0.0,0.0,0.0,0.0,0.0,0.0,0.0,0.0,0.0,0.0,0.0,0.0,0.0,0.0,0.0,0.0,0.0,3.457,3.5449,3.582,3.6582,3.7812,3.7851,3.8301,3.916,3.7792,3.6483,3.478,3.2158,3.0719,3.01,0.0,2.7241,2.7281,2.7575,2.7869,2.8136,2.8136,0.0,0.0,0.0,0.0,0.0,0.0,0.0,0.0,0.0,0.0,0.0,0.0,0.0,2.9539,2.9833,2.9913,2.998,3.0301,2.8875,2.7369,2.7968,2.8148,2.7656,2.5726,2.5009,2.4187,2.1725,2.0895,2.0079,1.7391,1.6978,1.6978,1.6978,1.6978,1.7032,1.7188,1.7338,1.75,1.7663,1.7806,1.7948,1.8091,1.7989,1.8023,1.8321,1.8335,1.8389,1.8545,1.8694,1.7349,1.4533,1.4295,1.1245,0.54,0.4932,0.4698,0.4703,0.1648,0.0236,0.0,0.0,0.0,0.0,0.0,0.0,0.0,0.0,-0.1668,-0.4279,-0.4248,-0.8302,-1.3916,-1.4404,-1.6484,-1.9408,0.0,0.0,0.0,0.0,0.0,0.0,0.0,0.0,0.0,0.0,0.0,0.0,0.0,0.0,0.0,0.0,0.0,0.0,0.0,0.0,3.459,3.5742,3.5684,3.623,3.75,3.8301,3.9141,4.0019,3.9817,3.8605,3.6253,3.3799,0.0,0.0,2.8219,2.7362,2.7549,2.7843,2.8043,2.8136,2.8136,2.8136,0.0,0.0,0.0,0.0,0.0,0.0,0.0,0.0,2.8217,2.8377,2.8671,2.8978,2.9259,2.9566,2.978,2.998,3.0274,2.8678,2.7134,2.7564,2.6834,2.5461,2.3063,2.2752,2.1924,1.9044,1.8634,1.8222,1.7188,1.6978,1.6978,1.6978,1.6978,1.7032,1.7175,1.7324,1.7473,1.7629,1.7772,1.788,1.7948,1.7901,1.7948,1.8158,1.8267,1.8389,1.8531,1.6804,1.5237,1.4062,1.0311,0.7038,0.4698,0.2823,0.1882,0.1646,0.0471,0.0,0.0,0.0,0.0,0.0,0.0,0.0,-0.0237,-0.2127,-0.3788,-0.5225,-0.9229,-1.2088,-1.4539,-1.6757,-1.8355,-1.9535,0.0,0.0,0.0,0.0,0.0,0.0,0.0,0.0,0.0,0.0,0.0,0.0,0.0,0.0,0.0,0.0,0.0,0.0,0.0,3.5619,3.4814,3.5351,3.5254,3.5781,3.707,3.8223,3.9297,4.0332,4.0762,4.0008,3.8272,3.5175,3.2949,3.122,2.8627,2.7509,2.7722,2.8016,2.8136,2.8136,2.8136,2.8136,0.0,0.0,0.0,0.0,0.0,0.0,0.0,0.0,2.8136,2.819,2.8511,2.8751,2.8965,2.9259,2.9007,2.8719,2.8912,2.7989,2.6923,2.6467,2.5983,2.4859,2.1836,2.1103,2.0279,1.7601,1.6978,1.6978,1.6978,1.6978,1.6978,1.6978,1.6978,1.7012,1.7114,1.7256,1.7405,1.7561,1.7704,1.7812,1.786,1.786,1.7901,1.8002,1.8158,1.7835,1.7004,1.5088,1.3077,1.1204,0.7033,0.4228,0.329,0.1177,0.0,0.0,0.0,0.0,0.0,0.0,0.0,0.0,0.0,-0.0471,-0.1648,-0.3761,-0.589,-0.8278,-1.3699,-1.5885,-1.6201,-1.8451,-1.9325,-1.9522,0.0,0.0,0.0,0.0,0.0,0.0,0.0,0.0,0.0,0.0,0.0,0.0,0.0,0.0,0.0,0.0,0.0,0.0,3.8342,3.6639,3.5293,3.4171,3.4473,3.5312,3.6641,3.748,3.8574,3.9883,4.0312,4.0508,4.0335,3.5799,3.3578,3.3438,2.9492,2.7696,2.7722,2.8016,2.8136,2.8136,2.8136,2.8136,2.8136,0.0,0.0,0.0,0.0,0.0,0.0,0.0,2.8136,2.819,2.8511,2.8604,2.8671,2.8951,2.7448,2.5854,2.5854,2.6417,2.6547,2.4532,2.6179,2.7059,2.224,2.1103,2.0279,1.7601,1.6978,1.6978,1.6978,1.6978,1.6978,1.6978,1.6978,1.6978,1.6978,1.71,1.7249,1.7399,1.7555,1.7704,1.7846,1.786,1.786,1.786,1.8002,1.6727,1.3787,1.3772,1.0876,0.4873,0.4675,0.3055,0.0,0.0,0.0,0.0,0.0,0.0,0.0,0.0,0.0,0.0,0.0,-0.1882,-0.4698,-0.4698,-0.8444,-1.4533,-1.7581,-1.8938,-1.9203,-1.9203,-1.94,-1.9664,0.0,0.0,0.0,0.0,0.0,0.0,0.0,0.0,0.0,0.0,0.0,0.0,0.0,0.0,0.0,0.0,0.0,0.0,4.0269,3.7418,3.579,3.5787,3.5102,3.5039,3.5762,3.7187,3.8418,3.9414,3.9863,3.9766,3.916,3.654,3.5515,3.5487,3.1718,3.0079,3.0281,2.8755,2.8136,2.8136,2.8136,2.8136,2.8136,0.0,0.0,0.0,0.0,0.0,0.0,0.0,0.0,0.0,2.8243,2.843,2.8631,2.8711,2.8548,2.8397,2.8397,2.6406,2.4608,2.5872,2.4484,2.2599,2.1037,2.1001,2.0279,1.7601,1.6978,1.6978,1.6978,1.6978,1.6978,1.6978,1.6978,1.6978,1.6978,1.71,1.7209,1.7256,1.7494,1.7663,1.7704,1.7812,1.786,1.786,1.5976,1.4461,1.3562,0.9593,0.646,0.4641,0.2561,0.0936,0.0,0.0,0.0,0.0,0.0,0.0,0.0,0.0,0.0,-0.0236,-0.2339,-0.3741,-0.5169,-0.9676,-1.3899,-1.76,-1.8644,-1.8972,-1.9061,-1.9169,-1.9325,-1.9522,0.0,0.0,0.0,0.0,0.0,0.0,0.0,0.0,0.0,0.0,4.2233,4.2735,0.0,0.0,0.0,0.0,0.0,0.0,0.0,0.0,3.663,3.6519,3.518,3.4824,3.5625,3.7148,3.8008,3.8203,3.8809,3.8926,3.8574,3.6867,3.6345,3.6433,3.3787,3.2507,3.2694,3.1407,3.026,2.9439,2.9439,2.8964,2.8136,0.0,0.0,0.0,0.0,0.0,0.0,0.0,0.0,0.0,2.8136,2.827,2.8417,2.8417,2.8139,2.7889,2.7991,2.5662,2.3304,2.4094,2.2397,2.0198,1.9442,1.9376,1.9044,1.7398,1.6978,1.6978,1.6978,1.6978,1.6978,1.6978,1.6978,1.6978,1.6978,1.7053,1.7127,1.7182,1.7358,1.7514,1.7629,1.7717,1.7352,1.6286,1.4575,1.2596,1.0123,0.6582,0.4121,0.276,0.0928,0.0,0.0,0.0,0.0,0.0,0.0,0.0,0.0,0.0,0.0,-0.0235,-0.4672,-0.7241,-0.8915,-1.3904,-1.7185,-1.8782,-1.8938,-1.9027,-1.9094,-1.9237,-1.9393,-1.9535,0.0,0.0,0.0,0.0,0.0,0.0,0.0,0.0,0.0,0.0,4.2057,4.2283,0.0,0.0,0.0,0.0,0.0,0.0,0.0,0.0,3.7725,3.6769,3.5187,3.4844,3.6113,3.7266,3.75,3.6719,3.75,3.8066,3.8476,3.6961,3.6479,3.6913,3.5618,3.4975,3.4975,3.4813,3.3349,3.1392,3.1557,3.026,2.8136,2.8473,0.0,0.0,0.0,0.0,0.0,0.0,0.0,0.0,2.8136,2.8136,2.8136,2.8136,2.6992,2.5701,2.614,2.4745,2.2793,2.0905,2.0225,1.9473,1.7538,1.6978,1.6978,1.6978,1.6978,1.6978,1.6978,1.6978,1.6978,1.6978,1.6978,1.6978,1.6978,1.6978,1.7026,1.7154,1.7182,1.7304,1.7582,1.7629,1.6369,1.359,1.3162,1.0496,0.47,0.4285,0.2721,0.0,0.0,0.0,0.0,0.0,0.0,0.0,0.0,0.0,0.0,0.0,-0.0233,-0.1174,-0.726,-1.1707,-1.4745,-1.7581,-1.8762,-1.8796,-1.8938,-1.9081,-1.9237,-1.9379,-1.9535,-1.9664,0.0,0.0,0.0,0.0,0.0,0.0,0.0,0.0,0.0,0.0,0.0,0.0,0.0,0.0,0.0,0.0,0.0,0.0,0.0,0.0,3.8208,3.8331,3.6575,3.6055,3.6992,3.7285,3.7344,3.7168,3.7344,3.748,3.7598,3.7904,3.8509,3.9127,3.7867,3.7241,3.7082,3.546,3.3349,3.1557,3.3349,3.1737,2.8305,3.0093,2.9607,0.0,0.0,0.0,0.0,0.0,0.0,0.0,2.8136,2.8136,2.8136,2.8136,2.8221,2.8387,2.8673,2.5857,2.2994,2.3062,2.0426,1.7517,1.7174,1.6978,1.6978,1.6978,1.6978,1.6978,1.6978,1.6978,1.6978,1.6978,1.6978,1.6978,1.6978,1.6978,1.6992,1.7026,1.7127,1.7216,1.7283,1.7507,1.6338,1.3481,1.1116,0.8268,0.47,0.2245,0.0677,0.0,0.0,0.0,0.0,0.0,0.0,0.0,0.0,0.0,0.0,0.0,-0.2739,-0.7528,-1.1307,-1.4622,-1.7652,-1.847,-1.883,-1.8938,-1.8972,-1.9149,-1.9379,-1.9413,-1.9535,-1.9664,0.0,0.0,0.0,0.0,0.0,0.0,0.0,0.0,0.0,0.0,0.0,0.0,0.0,0.0,0.0,0.0,0.0,0.0,0.0,0.0,0.0,3.6939,3.6723,3.6738,3.6992,3.7402,3.75,3.7305,3.7305,3.7402,3.7617,3.8476,3.9238,3.9941,3.966,3.9418,3.9093,3.8158,3.6498,3.4404,3.5714,3.3676,2.9774,3.091,3.0093,2.8136,2.8136,0.0,0.0,0.0,0.0,0.0,0.0,0.0,2.8136,2.8136,2.8564,2.9112,2.9406,2.7148,2.4346,2.2595,1.9537,1.6978,1.6978,1.6978,1.6978,1.6978,1.6978,1.6978,1.6978,1.6978,1.6978,1.6978,1.6978,1.6978,1.6978,1.6978,1.6978,1.6978,1.7046,1.7121,1.7182,1.6037,1.42,1.1229,0.8417,0.5569,0.2465,0.0897,0.0,0.0,0.0,0.0,0.0,0.0,0.0,0.0,0.0,-0.0685,-0.2045,-0.2052,-0.5456,-1.1316,-1.3101,-1.5504,-1.8552,-1.8694,-1.885,-1.8993,-1.9061,-1.9237,-1.9447,-1.959,-1.9644,-1.9678,0.0,0.0,0.0,0.0,0.0,0.0,0.0,0.0,0.0,0.0,0.0,0.0,0.0,0.0,0.0,0.0,0.0,0.0,0.0,0.0,0.0,3.552,3.6583,3.7168,3.6894,3.7637,3.7871,3.7519,3.7519,3.7734,3.8164,3.8789,3.9336,3.9805,4.0605,4.0762,4.043,4.0801,3.9448,3.7246,3.7886,3.5468,3.1317,3.1632,3.0383,2.8136,2.8136,2.8136,2.8136,2.8136,0.0,0.0,0.0,0.0,2.8136,2.8136,2.8537,2.9045,2.9392,2.7962,2.5235,2.0725,1.8321,1.6917,1.6971,1.6937,1.691,1.6937,1.6965,1.6978,1.6978,1.6978,1.6978,1.6978,1.6978,1.6978,1.6978,1.6978,1.6978,1.6978,1.6978,1.6815,1.6498,1.4377,1.1671,0.8114,0.5729,0.3104,0.0223,0.0,0.0,0.0,0.0,0.0,0.0,0.0,0.0,0.0,-0.0455,-0.2256,-0.5371,-0.59,-0.886,-1.3547,-1.4223,-1.6175,-1.8511,-1.8694,-1.8871,-1.904,-1.9149,-1.9325,-1.9535,-1.9752,-1.9786,-1.9712,0.0,0.0,0.0,0.0,0.0,0.0,0.0,0.0,0.0,0.0,3.9873,4.0124,0.0,0.0,0.0,0.0,0.0,0.0,4.2986,0.0,0.0,3.8124,3.7568,3.7441,3.7754,3.8242,3.8457,3.8398,3.8398,3.8613,3.9023,3.8769,3.8887,3.9316,3.9824,4.0039,3.998,4.0039,3.8766,3.6814,3.8766,3.6131,3.1136,3.2904,3.1317,2.8136,2.8136,2.8136,2.8136,2.8136,2.8136,0.0,0.0,0.0,2.8136,2.8136,2.839,2.8791,2.9339,2.6931,2.2897,1.8066,1.6659,1.6653,1.6924,1.6775,1.6619,1.6754,1.689,1.6978,1.6978,1.6978,1.6978,1.6978,1.6978,1.6978,1.6978,1.6978,1.6978,1.6978,1.6978,1.6131,1.3586,1.3046,1.0755,0.5185,0.4603,0.3086,0.022,0.0,0.0,0.0,0.0,0.0,0.0,0.0,0.0,0.0,-0.2694,-0.5373,-0.8491,-1.0966,-1.2762,-1.3652,-1.6395,-1.7888,-1.8375,-1.8654,-1.8918,-1.9183,-1.9203,-1.9447,-1.98,-1.9712,-1.9752,-1.9841,0.0,0.0,0.0,0.0,0.0,0.0,0.0,0.0,0.0,0.0,0.0,4.0023,0.0,0.0,0.0,4.2534,4.2836,4.275,4.2086,4.1636,4.041,3.8329,3.8315,3.8066,3.7559,3.7988,3.834,3.8574,3.8574,3.8789,3.9199,3.9004,3.9297,3.9961,4.041,4.0351,3.9902,4.0156,3.9317,3.8123,3.9465,3.6958,3.2648,3.3416,3.1432,0.0,2.7949,2.8003,2.8136,2.8136,2.8136,2.8136,2.8136,0.0,0.0,0.0,2.8364,2.8419,2.7877,2.5566,2.2433,1.9256,1.7343,1.6558,1.6693,1.6619,1.6537,1.6605,1.668,1.6748,1.6836,1.6924,1.6978,1.6978,1.6978,1.6978,1.6978,1.6978,1.6978,1.6978,1.5487,1.3996,1.2716,0.9792,0.7061,0.4307,0.2822,0.131,0.0,0.0,0.0,0.0,0.0,0.0,0.0,0.0,0.0,0.0,-0.4676,-0.7558,-0.9156,-1.3838,-1.588,-1.6187,-1.7451,-1.8287,-1.8443,-1.8586,-1.885,-1.9203,-1.9203,-1.9434,-1.9752,-1.9766,-1.9766,-1.9752,0.0,0.0,0.0,0.0,0.0,0.0,0.0,0.0,0.0,0.0,0.0,0.0,0.0,0.0,0.0,0.0,4.2811,4.2786,4.2248,4.2688,4.1862,3.9474,3.9226,3.878,3.7788,3.7822,3.793,3.8242,3.8359,3.8672,3.9199,3.9316,3.9844,4.0684,4.0801,4.0488,3.9902,4.0098,3.9805,3.9238,3.8971,3.6814,3.3799,3.3143,3.0914,0.0,0.0,2.7949,2.8136,2.8136,2.8136,2.8136,2.8136,2.8136,0.0,0.0,0.0,2.822,2.6318,2.469,2.2944,2.0456,1.848,1.717,1.6653,1.6435,1.6422,1.6463,1.6469,1.6503,1.6619,1.6795,1.6937,1.6971,1.6978,1.6978,1.6978,1.6978,1.6768,1.5914,1.3996,1.2084,1.0602,0.6793,0.3839,0.3221,0.1293,0.0,0.0,0.0,0.0,0.0,0.0,0.0,0.0,0.0,-0.0446,-0.1114,-0.6411,-0.929,-1.0242,-1.5383,-1.7948,-1.8091,-1.8091,-1.8213,-1.8423,-1.8498,-1.8762,-1.9094,-1.9169,-1.9393,-1.9678,-1.9786,-1.9766,-1.9732,0.0,0.0,0.0,0.0,0.0,0.0,0.0,0.0,0.0,0.0,0.0,0.0,0.0,0.0,4.1354,4.1404,4.2384,4.3438,4.4377,4.3505,4.3037,4.3411,4.0716,0.0,3.9041,3.7908,3.7344,3.7363,3.7754,3.8379,3.9219,3.9648,4.0312,4.1113,4.0312,3.9941,3.9863,3.9453,3.9238,3.9051,3.7089,3.5155,3.3329,3.1588,2.9821,0.0,0.0,0.0,0.0,0.0,2.8136,2.8136,2.8136,2.8136,2.8136,0.0,0.0,0.0,2.5634,2.531,2.4657,2.0082,1.9096,1.8874,1.6848,1.6205,1.6144,1.6293,1.632,1.6327,1.6334,1.6571,1.6809,1.6958,1.6978,1.6978,1.6978,1.6978,1.5914,1.3353,1.2716,1.0602,0.5101,0.4464,0.3191,0.0426,0.0,0.0,0.0,0.0,0.0,0.0,0.0,0.0,0.0,0.0,-0.1313,-0.3934,-0.7255,-1.036,-1.3012,-1.6464,-1.7948,-1.8091,-1.8091,-1.8091,-1.8145,-1.8409,-1.864,-1.8816,-1.9094,-1.9393,-1.9664,-1.9664,-1.9752,-1.9841,0.0,0.0,0.0,0.0,0.0,0.0,0.0,0.0,0.0,0.0,0.0,0.0,0.0,4.0877,4.148,4.1831,4.3187,4.4367,4.5121,4.5077,4.4181,4.2201,4.1239,3.9933,3.7986,3.7488,3.7422,3.7695,3.7851,3.8223,3.8809,3.9238,3.9766,4.0371,4.0605,4.0566,4.0293,4.0117,3.9902,3.9498,3.7288,3.5331,3.3591,3.1274,2.9485,0.0,0.0,0.0,0.0,0.0,0.0,2.8136,2.8136,2.8136,2.8136,2.8136,2.8217,2.7827,2.5538,2.5208,2.4699,2.1673,2.0011,1.8822,1.8191,1.6998,1.5947,1.6008,1.6096,1.6191,1.6293,1.6469,1.6653,1.6809,1.6836,1.687,1.6965,1.6978,1.5914,1.3143,1.1024,0.8487,0.4676,0.2553,0.1065,0.0,0.0,0.0,0.0,0.0,0.0,0.0,0.0,0.0,0.0,0.0,-0.1521,-0.4142,-0.7388,-1.0252,-1.3221,-1.6369,-1.7806,-1.7948,-1.7948,-1.8057,-1.8247,-1.8355,-1.8531,-1.8782,-1.8993,-1.9257,-1.9522,-1.9522,-1.961,-1.9732,0.0,0.0,0.0,0.0,0.0,0.0,0.0,0.0,0.0,0.0,0.0,0.0,0.0,0.0,4.1907,4.2635,4.389,4.4869,4.5447,4.5494,4.4446,4.2326,4.1458,4.0018,3.8227,3.7271,3.7148,3.7715,3.7578,3.7871,3.8574,3.8867,3.9316,3.9922,4.0332,4.0508,4.0527,4.0527,4.0371,3.9794,3.6922,3.5487,3.4744,3.1749,3.005,2.9258,0.0,0.0,0.0,0.0,0.0,0.0,2.8136,2.8136,2.8136,2.8136,2.8136,2.7838,2.6448,2.6178,2.5723,2.3386,2.1423,1.9727,1.9048,1.723,1.5716,1.5771,1.59,1.6035,1.6137,1.6273,1.6435,1.6639,1.6673,1.6707,1.6815,1.5983,1.4522,1.1601,0.8657,0.5928,0.2977,0.1065,0.0,0.0,0.0,0.0,0.0,0.0,0.0,0.0,0.0,-0.0431,-0.13,-0.1508,-0.3227,-0.7126,-0.9254,-1.1671,-1.4639,-1.6717,-1.7704,-1.7792,-1.7846,-1.7989,-1.8165,-1.8213,-1.8389,-1.864,-1.883,-1.9061,-1.9291,-1.9393,-1.9501,-1.959,0.0,0.0,0.0,0.0,0.0,0.0,0.0,0.0,0.0,0.0,0.0,0.0,0.0,0.0,0.0,4.3765,4.4342,4.4895,4.5354,4.4354,4.382,4.4215,4.0979,3.9364,3.9825,3.7425,3.6484,3.7324,3.6894,3.7324,3.8535,3.8535,3.8984,3.9805,3.9375,3.9668,4.0469,4.0508,4.0527,4.0201,3.5887,3.5412,3.6745,3.2896,3.1392,3.1227,3.1227,2.9941,0.0,2.8136,0.0,0.0,0.0,0.0,2.8136,2.8136,2.8136,2.8136,0.0,0.0,0.0,2.5574,2.3643,2.1517,1.9358,1.7147,1.5438,1.5594,1.5737,1.5839,1.5845,1.5974,1.6171,1.6456,1.651,1.6517,1.6524,1.4247,1.1395,0.857,0.5866,0.3158,0.0213,0.0,0.0,0.0,0.0,0.0,0.0,0.0,0.0,0.0,0.0,-0.1278,-0.4253,-0.4253,-0.7005,-1.2716,-1.2833,-1.4389,-1.7202,-1.7507,-1.765,-1.765,-1.7806,-1.786,-1.788,-1.8036,-1.8179,-1.8355,-1.864,-1.885,-1.9027,-1.9325,-1.9434,-1.9447,0.0,0.0,0.0,0.0,0.0,0.0,0.0,0.0,0.0,0.0,0.0,0.0,0.0,0.0,0.0,4.4895,4.5171,4.4973,4.4231,4.3907,4.2627,4.0345,3.982,3.9172,3.8107,3.7626,3.7519,3.7754,3.7324,3.7305,3.7656,3.7656,3.7793,3.8027,3.8535,3.8887,3.918,4.0117,4.0527,4.0221,3.7783,3.6286,3.5164,3.2499,3.0426,2.9132,0.0,2.8628,2.8136,0.0,2.8136,2.8136,0.0,0.0,2.8136,2.8136,2.8136,2.8136,2.8136,0.0,0.0,0.0,0.0,0.0,2.1106,1.9062,1.715,1.5646,1.5432,1.5567,1.5676,1.5818,1.594,1.6029,1.6225,1.6402,1.651,1.4247,1.1367,0.8703,0.5812,0.3121,0.0209,0.0,0.0,0.0,0.0,0.0,0.0,0.0,0.0,0.0,0.0,-0.1278,-0.4253,-0.4253,-0.7005,-1.2716,-1.2752,-1.4303,-1.7202,-1.7392,-1.7541,-1.765,-1.7806,-1.786,-1.788,-1.8145,-1.8287,-1.8355,-1.864,-1.885,-1.9006,-1.9203,-1.9345,-1.9447,0.0,0.0,0.0,0.0,0.0,0.0,0.0,0.0,0.0,0.0,0.0,0.0,0.0,0.0,0.0,0.0,4.5497,4.4957,4.3831,4.3083,4.1617,3.9298,3.889,3.8547,3.7832,3.7715,3.7832,3.8203,3.7598,3.748,3.7832,3.7637,3.7656,3.7832,3.7969,3.8242,3.8633,3.9394,4.0019,4.0221,3.7396,3.6126,3.5621,3.253,3.0578,2.9607,0.0,0.0,2.8136,2.8136,2.8136,0.0,0.0,0.0,0.0,0.0,2.8136,2.8136,2.8136,2.8136,2.8136,2.8136,0.0,0.0,2.171,1.8919,1.6438,1.5334,1.512,1.5269,1.5418,1.5567,1.5689,1.575,1.5913,1.6103,1.6307,1.4083,1.1241,0.8416,0.5757,0.3094,0.0208,0.0,0.0,0.0,0.0,0.0,0.0,0.0,0.0,0.0,-0.1065,-0.319,-0.5947,-0.7217,-0.9968,-1.4417,-1.4417,-1.5313,-1.7107,-1.7256,-1.7405,-1.7561,-1.7704,-1.7812,-1.788,-1.8199,-1.8321,-1.8335,-1.8565,-1.8796,-1.9006,-1.9149,-1.9305,-1.9447,0.0,0.0,0.0,0.0,0.0,0.0,0.0,0.0,0.0,0.0,0.0,0.0,0.0,0.0,0.0,0.0,4.5573,4.5006,4.3559,4.2074,0.0,3.9604,3.8067,3.7676,3.8476,3.7793,3.7793,3.8496,3.7734,3.7734,3.8418,3.7988,3.7988,3.834,3.7559,3.7656,3.8359,3.8457,3.9051,3.9682,3.5817,3.5583,3.7029,3.3006,3.1241,3.1076,3.1076,2.9774,2.8136,2.8136,2.8136,0.0,0.0,0.0,0.0,0.0,2.8136,0.0,0.0,0.0,0.0,2.8136,2.502,0.0,2.1474,1.8186,1.5061,1.4679,1.4821,1.4964,1.5106,1.5255,1.5411,1.556,1.5601,1.571,1.5995,1.3819,1.1045,0.8308,0.569,0.2861,0.0207,0.0,0.0,0.0,0.0,0.0,0.0,0.0,0.0,0.0,-0.2765,-0.5523,-0.8487,-1.1235,-1.4207,-1.6978,-1.6978,-1.6978,-1.6985,-1.7127,-1.7277,-1.7433,-1.7582,-1.7738,-1.788,-1.8199,-1.8321,-1.8335,-1.8498,-1.8728,-1.8993,-1.9149,-1.9291,-1.9434,0.0,0.0,0.0,0.0,0.0,0.0,0.0,0.0,0.0,0.0,0.0,0.0,0.0,0.0,0.0,0.0,0.0,4.4915,0.0,0.0,0.0,3.743,3.7249,3.7539,3.8047,3.8223,3.8242,3.8047,3.7891,3.7715,3.7539,3.7109,3.6953,3.7031,3.6875,3.6875,3.709,3.7754,3.7486,3.6549,3.6612,3.5921,3.4575,3.2273,3.026,2.8796,2.8796,2.8642,2.8136,2.8136,2.8136,2.8136,0.0,0.0,0.0,2.8136,0.0,0.0,0.0,0.0,0.0,0.0,2.7448,0.0,2.2136,2.0598,1.8909,1.5234,1.4577,1.4645,1.4801,1.495,1.5106,1.5248,1.5377,1.552,1.5696,1.3355,1.0806,0.8074,0.5561,0.28,0.0201,0.0,0.0,0.0,0.0,0.0,0.0,0.0,0.0,0.0,-0.2757,-0.5523,-0.8487,-1.1235,-1.4207,-1.6978,-1.6978,-1.6978,-1.6985,-1.7127,-1.7277,-1.7433,-1.7582,-1.7738,-1.788,-1.8199,-1.8321,-1.8335,-1.862,-1.8762,-1.883,-1.9094,-1.9217,-1.9291,0.0,0.0,0.0,0.0,0.0,0.0,0.0,0.0,0.0,0.0,0.0,0.0,0.0,0.0,0.0,0.0,0.0,0.0,0.0,0.0,0.0,3.7093,3.7187,3.7598,3.8242,3.8457,3.8476,3.8242,3.8242,3.8027,3.7598,3.7402,3.6746,3.5652,3.6321,3.634,3.5689,3.6997,3.7259,3.6679,3.5757,3.4275,3.2227,3.0461,2.9118,2.8136,2.8136,2.8136,2.8136,2.8136,2.8136,0.0,2.8136,2.8136,2.8136,0.0,2.8136,2.8136,0.0,0.0,0.0,2.8136,0.0,0.0,0.0,2.1221,1.8828,1.6656,1.5283,1.4448,1.4597,1.4692,1.4787,1.4936,1.5025,1.5106,1.5181,1.4285,1.211,0.8203,0.6673,0.4337,0.0395,0.0,0.0,0.0,0.0,0.0,0.0,0.0,-0.063,-0.1879,-0.4833,-0.7592,-1.0534,-1.3332,-1.5487,-1.6978,-1.6978,-1.6978,-1.6985,-1.7053,-1.7168,-1.7317,-1.7467,-1.7623,-1.7792,-1.8158,-1.8321,-1.8355,-1.864,-1.8816,-1.8905,-1.9115,-1.9257,-1.9345,4.3693,0.0,0.0,0.0,0.0,0.0,0.0,0.0,0.0,0.0,0.0,0.0,0.0,0.0,0.0,0.0,0.0,0.0,0.0,0.0,0.0,3.7289,3.7168,3.7539,3.832,3.834,3.8281,3.8203,3.8281,3.8105,3.7676,3.7676,3.6751,3.495,3.5724,3.5565,3.4857,3.6199,3.6751,3.6412,3.4265,3.2539,3.125,2.9381,2.8352,2.7976,2.8043,2.8096,2.8136,2.8136,2.8136,2.8136,2.8136,2.8136,0.0,0.0,0.0,0.0,0.0,0.0,0.0,0.0,0.0,2.5203,0.0,0.0,0.0,1.7938,1.5858,1.4333,1.4448,1.4468,1.4509,1.4631,1.4679,1.4699,1.4699,1.514,1.3716,0.8884,0.7931,0.582,0.117,0.0196,0.0,0.0,0.0,0.0,0.0,0.0,-0.1244,-0.3922,-0.6873,-0.9836,-1.2558,-1.5419,-1.6978,-1.6978,-1.6978,-1.6978,-1.6978,-1.6978,-1.7073,-1.7243,-1.7365,-1.7521,-1.7717,-1.8145,-1.8321,-1.8355,-1.864,-1.883,-1.8972,-1.9128,-1.9271,-1.9413,4.3504,4.1591,0.0,0.0,0.0,0.0,0.0,0.0,0.0,0.0,0.0,0.0,0.0,0.0,0.0,0.0,0.0,0.0,3.8729,0.0,0.0,0.0,3.6738,3.6953,3.7441,3.7441,3.7266,3.6894,3.7266,3.7226,3.6816,3.6816,3.6638,3.6421,3.4418,3.4408,3.578,3.5067,3.3783,3.199,3.2654,3.2806,3.2452,3.1058,2.9193,2.7402,2.7655,2.7923,2.8136,0.0,2.8136,2.8136,0.0,2.8136,2.8136,2.8136,0.0,0.0,0.0,0.0,0.0,0.0,2.7968,0.0,2.5203,0.0,2.0183,1.8279,0.0,1.4306,1.4319,0.0,0.0,1.4346,1.4455,1.4536,1.4536,1.4713,1.3726,1.0936,0.878,0.6415,0.3431,0.1165,0.0,0.0,0.0,0.0,0.0,0.0,-0.124,-0.3885,-0.685,-0.9836,-1.2558,-1.5419,-1.6978,-1.6978,-1.6978,-1.6978,-1.6978,-1.6978,-1.7134,-1.7399,-1.7412,-1.7582,-1.786,-1.8179,-1.8321,-1.8355,-1.864,-1.8782,-1.8816,-1.9094,-1.9217,-1.9748,4.2544,4.0945,0.0,0.0,0.0,0.0,0.0,0.0,0.0,0.0,0.0,0.0,0.0,0.0,0.0,0.0,0.0,3.7822,0.0,0.0,0.0,0.0,0.0,0.0,0.0,3.7305,3.7207,3.7031,3.7207,3.709,3.668,3.668,3.5951,3.4575,3.3757,3.3214,3.2985,3.2878,3.247,3.163,3.2304,3.1952,3.0639,2.9281,2.8166,2.7281,2.7402,2.7522,2.7463,0.0,2.6607,0.0,0.0,0.0,0.0,2.6297,0.0,0.0,0.0,0.0,0.0,0.0,0.0,0.0,2.6588,0.0,2.2611,0.0,0.0,0.0,0.0,0.0,0.0,0.0,1.4346,1.4387,1.4387,1.4441,1.363,1.1211,0.9977,0.7817,0.3956,0.1333,0.0,0.0,0.0,0.0,0.0,0.0,-0.2026,-0.627,-0.7821,-1.0587,-1.4747,-1.6223,-1.6978,-1.6978,-1.6978,-1.6978,-1.6985,-1.7066,-1.7168,-1.7297,-1.7473,-1.7623,-1.7758,-1.8057,-1.8233,-1.8335,-1.8552,-1.8694,-1.9022,-2.1179,-2.1993,-2.2528,4.1629,0.0,0.0,0.0,0.0,0.0,0.0,0.0,0.0,0.0,0.0,0.0,4.0969,3.8701,0.0,0.0,0.0,3.6016,0.0,0.0,3.5917,0.0,0.0,0.0,0.0,0.0,3.6953,3.6953,3.6953,3.6797,3.6484,3.6484,3.5601,3.39,3.3599,3.2773,3.1625,3.1679,3.1414,3.1093,3.1446,3.0361,2.8431,2.7483,2.7121,2.7255,2.7175,2.6862,2.6082,2.4576,2.4741,0.0,2.2001,0.0,2.5231,0.0,0.0,0.0,2.6697,0.0,0.0,0.0,0.0,0.0,0.0,0.0,0.0,0.0,0.0,0.0,0.0,0.0,1.4285,1.4245,0.0,1.4285,1.4245,1.4272,1.3655,1.2029,1.1164,0.9015,0.4088,0.2053,0.0753,0.0,0.0,0.0,0.0,0.0,-0.2393,-0.7808,-0.8357,-1.112,-1.6517,-1.6781,-1.6937,-1.6978,-1.6978,-1.6978,-1.6985,-1.7087,-1.7175,-1.727,-1.7487,-1.7629,-1.7717,-1.7982,-1.8179,-1.8342,-1.937,-2.0008,-2.0459,-2.3056,-2.4598,-2.5852,4.0976,4.0049,0.0,0.0,0.0,0.0,0.0,0.0,0.0,0.0,0.0,0.0,0.0,0.0,0.0,0.0,0.0,3.6016,3.6016,0.0,3.5349,0.0,0.0,3.523,0.0,0.0,3.6055,3.6055,3.6055,3.6055,3.6035,3.6035,3.6035,3.5879,3.4038,3.3247,3.3482,3.198,3.0426,2.8985,2.9314,2.8218,2.6544,0.0,2.6774,2.7228,2.6934,0.0,0.0,2.4069,2.2743,0.0,0.0,0.0,0.0,0.0,0.0,0.0,0.0,0.0,0.0,2.7617,0.0,0.0,0.0,0.0,2.3995,0.0,0.0,0.0,0.0,0.0,0.0,0.0,0.0,0.0,0.0,1.4204,1.4306,1.4135,1.209,0.8898,0.4003,0.349,0.259,0.0185,0.0,0.0,0.0,0.0,-0.2386,-0.7735,-0.828,-1.0848,-1.6517,-1.668,-1.6836,-1.6978,-1.6978,-1.6978,-1.6978,-1.6985,-1.7141,-1.7412,-1.7426,-1.7589,-1.786,-1.8023,-1.8179,-1.8555,-2.184,-2.325,-2.3605,-2.3791,-2.6078,-2.9334,0.0,0.0,0.0,0.0,0.0,0.0,0.0,4.1484,0.0,0.0,0.0,0.0,0.0,0.0,3.6016,0.0,0.0,3.6016,3.6016,3.6016,0.0,0.0,0.0,3.5496,0.0,0.0,0.0,3.6016,3.6016,3.6016,3.6016,3.6016,3.5314,3.4038,3.2438,3.1032,3.0092,2.8505,2.7634,2.7167,2.7421,2.6881,2.6119,0.0,0.0,2.6507,2.4937,2.3973,0.0,2.0119,1.9627,1.9677,1.6902,1.8032,1.9931,1.8746,1.9437,0.0,0.0,0.0,2.0702,2.2944,0.0,0.0,0.0,0.0,0.0,0.0,0.0,0.0,0.0,0.0,0.0,0.0,0.0,0.0,0.0,1.4116,1.415,1.415,1.2131,0.9361,0.6169,0.4529,0.2549,0.0185,0.0,0.0,0.0,0.0,-0.2326,-0.7779,-0.8176,-1.0918,-1.6232,-1.6476,-1.6673,-1.6829,-1.6829,-1.6883,-1.6985,-1.708,-1.7229,-1.7426,-1.7528,-1.8762,-2.0701,-2.0757,-2.2047,-2.4325,-2.5496,-2.7436,-2.9801,-3.0057,-3.0978,-3.2675,4.0793,0.0,0.0,0.0,0.0,0.0,0.0,0.0,0.0,0.0,3.8641,0.0,3.7217,0.0,3.6094,0.0,3.6113,3.6094,3.623,3.5525,0.0,3.2785,3.3964,0.0,0.0,0.0,0.0,0.0,3.5664,3.5587,3.5021,3.5021,3.3946,3.1983,3.1077,2.9647,2.8015,2.7278,2.6512,2.6079,2.6079,2.6026,0.0,0.0,2.5097,2.4952,0.0,2.2166,2.0382,1.762,1.6975,1.7182,1.4405,1.5544,1.7442,1.6076,1.6944,1.847,1.924,1.8668,0.0,2.0702,2.1221,0.0,2.3126,0.0,0.0,0.0,0.0,0.0,0.0,0.0,0.0,0.0,0.0,0.0,0.0,1.3987,1.4007,1.4061,1.2777,1.0743,0.7398,0.5744,0.342,0.0183,0.0,0.0,0.0,-0.0945,-0.3244,-0.7667,-0.8841,-1.1575,-1.6083,-1.6273,-1.6497,-1.6748,-1.6748,-1.6829,-1.6985,-1.7073,-1.7202,-1.7344,-1.8568,-2.0225,-2.2117,-2.3266,-2.5005,-2.7095,-2.8281,-3.0477,-3.2666,-3.3054,-3.433,-3.5892,4.061,0.0,0.0,0.0,4.1731,0.0,0.0,0.0,4.0665,0.0,3.838,3.7197,3.6093,3.6016,3.6191,3.6641,3.6269,0.0,3.6521,3.477,0.0,0.0,3.1121,3.041,2.8803,0.0,0.0,0.0,3.4916,3.4846,3.3031,3.2977,3.1792,2.9814,3.0003,2.9186,2.742,2.8044,2.7136,2.5518,2.5352,2.5511,2.5594,2.3369,2.2414,2.2437,2.2715,2.0059,1.6647,1.6483,1.5028,1.3424,1.3573,1.362,1.362,1.362,1.3824,1.4534,1.6584,1.7304,1.8095,2.0356,0.0,0.0,0.0,0.0,1.9625,0.0,0.0,0.0,0.0,0.0,0.0,0.0,0.0,0.0,1.3831,1.3831,1.3885,1.4041,1.4015,1.232,0.7502,0.7146,0.5186,0.0359,0.0,0.0,0.0,-0.243,-0.4932,-0.7774,-1.0235,-1.2987,-1.6056,-1.6069,-1.6293,-1.6741,-1.6741,-1.6822,-1.6978,-1.6978,-1.706,-1.7621,-2.0505,-2.1959,-2.2587,-2.5566,-2.6867,-2.7549,-3.0642,-3.2159,-3.2668,-3.3235,-3.563,-3.8758,4.061,4.04,4.04,0.0,4.0852,4.0575,0.0,0.0,0.0,0.0,3.6746,3.6063,3.5976,3.6016,3.6191,3.6641,3.6269,0.0,0.0,0.0,0.0,2.9547,3.0916,3.0814,2.8818,3.0908,0.0,3.1574,0.0,3.1322,3.1017,3.0598,2.9625,2.8075,2.7875,2.7097,2.5703,2.5855,2.5759,2.5352,2.3932,2.323,2.2826,0.0,1.9063,1.7585,1.8096,1.762,1.6319,1.4698,1.3887,1.341,1.3444,1.3458,1.3458,1.3458,1.3593,1.3926,1.4493,1.483,1.5191,1.5828,1.7422,1.8261,0.0,0.0,0.0,0.0,0.0,0.0,0.0,0.0,0.0,0.0,0.0,0.0,1.3682,1.3682,1.3736,1.3885,1.2451,1.0268,0.7321,0.7146,0.5186,0.0359,0.0,0.0,0.0,-0.2374,-0.4797,-0.761,-1.0032,-1.2741,-1.575,-1.5859,-1.6137,-1.6578,-1.6578,-1.672,-1.6978,-1.6978,-1.8092,-2.0328,-2.1002,-2.3934,-2.8322,-2.9035,-3.1035,-3.3437,-3.4171,-3.5106,-3.5896,-3.6687,-3.7548,-3.8437,4.0178,0.0,0.0,4.0526,0.0,0.0,3.9617,0.0,0.0,3.7128,3.6133,0.0,3.5723,3.5918,3.5898,3.5471,3.4972,0.0,0.0,0.0,0.0,2.894,2.9243,2.8872,2.7819,2.9305,0.0,2.9802,0.0,2.96,2.879,2.8392,2.7384,2.5956,2.5755,2.5291,2.4516,2.3722,2.3555,2.3744,2.1613,2.078,0.0,1.8572,1.7051,1.583,1.5184,1.4969,1.4807,1.369,1.3247,1.3302,1.3302,1.3349,1.3403,1.3403,1.3512,1.3661,1.3804,1.3953,1.4109,1.4265,1.5344,1.5843,1.459,1.438,1.3468,0.0,0.0,0.0,0.0,0.0,0.0,1.3619,0.0,0.0,1.3532,1.3587,1.3682,1.3824,1.2749,1.11,0.8862,0.6773,0.3938,0.0359,0.0,0.0,0.0,-0.3256,-0.6022,-0.7551,-1.1036,-1.3737,-1.5635,-1.5716,-1.6015,-1.6524,-1.6524,-1.668,-1.6978,-1.6978,-1.8476,-2.1255,-2.2589,-2.5889,-3.0141,-3.1647,-3.3428,-3.5284,-3.5672,-3.6206,-3.6834,-3.7595,-3.8036,-3.829,3.9798,0.0,0.0,0.0,0.0,0.0,0.0,3.8133,0.0,3.6871,0.0,3.5469,3.5469,3.5801,3.5467,3.3993,0.0,3.265,3.1121,2.9374,2.8505,2.8403,2.7167,2.6386,2.6386,2.7463,0.0,0.0,0.0,2.8193,2.6683,2.6283,2.5326,2.3781,2.3995,2.3824,2.334,2.1849,2.1324,2.1243,1.9088,1.8379,1.8241,1.6251,1.5582,1.5407,1.3525,1.2929,1.2963,1.2963,1.3044,1.3146,1.3166,1.3261,1.3376,1.3397,1.3498,1.3634,1.3777,1.3912,1.4055,1.4231,1.4272,1.4272,1.3938,1.1965,0.9468,0.7146,0.6433,0.5008,0.0,0.0,0.0,1.2631,0.0,0.0,1.2586,1.2869,1.3173,1.333,1.3288,0.0,1.0719,0.6564,0.3037,0.0716,0.0179,0.0,0.0,-0.4693,-0.7467,-0.7551,-1.2443,-1.5167,-1.5635,-1.5642,-1.5934,-1.6524,-1.6524,-1.668,-1.6978,-1.7398,-1.9044,-2.1725,-2.4795,-2.7796,-3.0576,-3.3408,-3.475,-3.4897,-3.5698,-3.6166,-3.6473,-3.7048,-3.7609,-3.8116,4.0275,0.0,0.0,0.0,0.0,3.815,3.9055,3.7898,3.6655,3.5858,3.5779,3.5918,3.5918,3.5976,3.5467,3.3993,3.3387,0.0,0.0,0.0,0.0,2.6908,2.6517,2.6386,2.6386,2.6107,2.5963,0.0,0.0,2.48,2.4603,2.3926,2.3691,2.3768,2.3567,2.2705,2.1426,2.1254,2.0365,1.8808,1.6848,1.6015,1.5888,1.3913,1.3169,1.3042,1.2738,1.2745,1.2963,1.2963,1.2976,1.3017,1.3139,1.3193,1.3241,1.3363,1.3417,1.3471,1.3627,1.3688,1.377,1.4041,1.4116,1.3611,1.1765,0.9464,0.7146,0.4651,0.2687,0.1614,0.2687,0.0,0.0,0.0,0.0,0.0,0.0,0.9521,1.08,1.1014,0.9302,0.8786,1.0369,0.8101,0.547,0.3004,0.1062,0.0,0.0,-0.448,-0.7231,0.0,-1.2174,0.0,0.0,0.0,-1.5934,-1.6524,-1.6524,-1.668,-1.6978,-1.9253,-2.1924,-2.4598,-2.7509,-3.0334,-3.3284,-3.4037,-3.4683,-3.5164,-3.5551,-3.5738,-3.5859,-3.6433,-3.6874,-3.7235,4.0902,0.0,0.0,0.0,0.0,0.0,0.0,3.6665,0.0,3.5132,3.543,3.5703,3.5703,3.5024,3.3817,3.2138,3.0852,2.9344,2.7079,2.6843,2.6516,2.5919,2.6079,0.0,2.6159,2.5732,2.5518,2.5518,0.0,2.3848,2.3968,2.322,2.31,2.3527,2.2371,2.1457,2.0826,1.8749,0.0,1.6609,1.471,1.3868,1.3868,1.2804,1.2501,1.2501,1.2501,1.2596,1.2725,1.2725,1.2773,1.2868,1.3017,1.3112,1.32,1.3356,1.3403,1.3437,1.3587,1.3627,1.3682,1.3899,1.3953,1.3641,1.2722,1.058,0.8093,0.5845,0.3359,0.2112,0.3148,0.5364,0.0,0.0,0.0,0.0,0.0,0.7738,0.8515,0.8602,0.7735,0.7367,0.8544,0.7671,0.6121,0.3522,0.1242,0.0,0.0,-0.4472,-0.7214,0.0,0.0,0.0,0.0,0.0,0.0,-1.6415,-1.6483,-1.7497,-1.9253,-2.0488,-2.3362,-2.7476,-2.8698,-3.1036,-3.3668,-3.4135,-3.4576,-3.5017,-3.5458,-3.5631,-3.5685,-3.6126,-3.6473,-3.6794,0.0,4.1957,0.0,0.0,3.9034,0.0,3.6706,3.5429,3.4726,3.4824,3.5234,3.5527,3.5527,3.4109,3.2455,3.0451,2.8629,2.6779,2.5214,2.5077,2.5211,2.5504,2.5732,2.5865,2.5865,2.5571,2.5424,0.0,0.0,2.3768,2.3754,2.314,2.2855,2.251,2.1072,2.0071,0.0,0.0,1.4794,1.4533,1.3048,1.2501,1.2501,1.2501,1.2501,1.2501,1.2501,1.2501,1.2501,1.2501,1.2583,1.2712,1.2861,1.299,1.3112,1.3302,1.3349,1.3383,1.3539,1.358,1.3614,1.3756,1.3797,1.3838,1.3987,1.2182,0.9707,0.752,0.4705,0.2767,0.3259,0.4442,0.0,0.0,0.0,0.0,0.0,0.6073,0.6144,0.6174,0.6341,0.6479,0.6928,0.6589,0.5572,0.3508,0.1776,0.0537,0.0,-0.4472,-0.7207,0.0,0.0,-1.4936,-1.5357,0.0,-1.5852,0.0,-1.7038,-1.8694,-2.1044,-2.232,-2.5215,-2.9319,-2.9939,-3.1403,-3.3547,-3.4095,-3.4496,-3.4817,-3.5338,-3.5538,-3.5578,-3.5872,-3.6126,-3.6393,0.0,0.0,0.0,0.0,0.0,0.0,0.0,3.5429,3.4844,3.5273,3.5703,3.5957,3.5957,3.4277,3.2455,3.0451,2.8629,2.6779,2.5214,2.5077,2.5211,2.5504,2.5545,2.5558,2.5558,2.5264,2.5117,0.0,0.0,2.3768,2.3754,2.314,2.2035,2.0376,2.0237,0.0,0.0,1.5061,1.4066,1.2602,1.2594,1.2501,1.2501,1.2501,1.2501,1.2501,1.2501,1.2501,1.2501,1.2501,1.2508,1.2549,1.2705,1.2759,1.2827,1.3112,1.3193,1.3227,1.3376,1.3424,1.3458,1.3614,1.3648,1.3688,1.3831,1.1939,0.9683,0.7446,0.3469,0.1042,0.3118,0.1892,0.205,0.0,0.0,0.0,0.0,0.3641,0.3846,0.3923,0.3898,0.4733,0.6755,0.5068,0.3855,0.3474,0.3333,0.2305,0.0179,-0.4472,-0.7187,-0.745,0.0,-1.4889,-1.5201,-1.5493,-1.5798,-1.6103,-1.8978,-2.0443,-2.1054,-2.6145,-2.8913,-2.9522,-3.1982,-3.3373,-3.3868,-3.4189,-3.4496,-3.479,-3.511,-3.5231,-3.5271,-3.5565,-3.5685,-3.5792,0.0,0.0,0.0,0.0,0.0,0.0,0.0,3.4626,3.4766,3.4961,3.5586,3.5587,3.4452,3.2595,3.0751,2.8772,2.6925,2.5548,2.481,2.481,2.4863,2.4983,2.5157,2.5251,2.5251,2.5144,2.5077,0.0,0.0,0.0,2.3754,2.314,2.1885,2.0063,1.7814,1.6072,1.4591,1.3714,1.2979,1.2305,1.2447,1.2501,1.2501,1.2501,1.2501,1.2501,1.2501,1.2501,1.2501,1.2501,1.2501,1.2528,1.2684,1.2732,1.2773,1.2983,1.3105,1.3186,1.3247,1.3329,1.3417,1.3478,1.3492,1.3532,1.3682,1.2959,1.1216,0.7696,0.3246,0.0341,0.1192,0.1697,0.2199,0.0,0.0,0.0,0.0,0.0,0.1397,0.1418,0.14,0.1728,0.2751,0.3296,0.2962,0.1389,0.1412,0.1072,0.0,-0.4472,-0.7184,-0.7439,0.0,-1.4841,-1.5052,-1.5445,-1.5744,-1.5947,-1.9115,-2.1643,-2.346,-2.7558,-3.0141,-3.1768,-3.3,-3.348,-3.3641,-3.4122,-3.4389,-3.4536,-3.5017,-3.5191,-3.5204,-3.5324,-3.5485,-3.5658,4.2986,0.0,4.2012,0.0,3.8223,3.7188,3.408,3.4238,3.4746,3.4883,3.5547,3.5314,3.3448,3.1456,2.9615,2.765,2.5786,2.4636,2.4636,2.4636,2.4636,2.4636,2.4836,0.0,2.4957,2.4957,2.4957,2.4957,2.4249,0.0,0.0,0.0,0.0,0.0,1.6174,1.4537,1.3885,1.2792,1.2318,1.2359,1.2461,1.2501,1.2501,1.2501,1.2501,1.2501,1.2501,1.2501,1.2501,1.2501,1.2501,1.2522,1.263,1.2664,1.2691,1.2847,1.2963,1.3057,1.3152,1.3254,1.3342,1.339,1.3403,1.3431,1.3539,1.3478,1.2081,0.778,0.3199,0.0,0.0,0.1342,0.2014,0.1172,0.0,0.0,0.0,0.0346,0.0,0.0,0.0,0.0,0.0,0.0864,0.0694,-0.0872,-0.1774,-0.1793,-0.1076,-0.4829,0.0,0.0,0.0,0.0,0.0,-1.6138,-1.6831,-1.6947,-2.1036,-2.4016,-2.62,-2.9166,-3.1567,-3.3414,-3.3414,-3.3414,-3.3454,-3.4068,-3.4322,-3.4376,-3.4963,-3.5191,-3.5191,-3.5191,-3.5324,-3.5511,4.2986,4.2986,4.2012,3.8817,3.8223,3.7297,3.4497,3.4434,3.4863,3.5332,3.5762,3.5314,3.3448,3.1456,2.9615,2.765,2.5786,2.4636,2.4636,2.4636,2.4636,0.0,0.0,2.4636,2.4636,2.4636,2.4636,2.4636,0.0,0.0,2.4195,0.0,1.9793,1.7895,1.5856,1.3909,1.2284,1.2291,1.2372,1.2501,1.2501,1.2501,1.2501,1.2501,1.2501,1.2501,1.2501,1.2501,1.2501,1.2501,1.2501,1.2501,1.2501,1.2508,1.2535,1.2684,1.2732,1.28,1.3091,1.3173,1.3214,1.3363,1.3403,1.3403,1.3403,1.3403,1.2056,0.7706,0.3161,0.0,0.0,0.0,0.0671,0.2978,0.0,0.0,0.0,0.1368,0.0,0.0,0.0,0.0,0.0,-0.2082,-0.3483,-0.352,0.0,0.0,0.0,0.0,0.0,-1.054,-1.3307,0.0,-1.474,-1.7938,-1.9429,-1.9437,-2.569,-2.8555,-2.8765,-3.1926,-3.3414,-3.3414,-3.3414,-3.3414,-3.3454,-3.4068,-3.4322,-3.4376,-3.4963,-3.5191,-3.5191,-3.5191,-3.5204,-3.5244,4.2986,4.2986,4.2012,3.8817,3.8223,3.721,3.41,3.4004,3.4316,3.4473,3.5137,3.4312,3.1219,3.0443,2.9043,0.0,2.4918,2.4636,0.0,2.4636,2.4636,2.4636,2.4636,2.4636,2.4636,2.4636,2.4636,2.4636,0.0,0.0,0.0,1.9692,1.7759,1.5718,1.394,1.2842,1.2298,1.2393,1.2461,1.2501,1.2501,1.2501,1.2501,1.2501,1.2501,1.2501,1.2501,1.2501,1.2501,1.2501,1.2501,1.2501,1.2501,1.2501,1.2508,1.2562,1.2651,1.2752,1.2847,1.3017,1.3159,1.3112,1.3173,1.322,1.3125,1.0796,0.8341,0.6873,0.3108,0.0,0.0,0.0,0.0164,0.0981,0.0495,0.0,0.0,0.0,0.0,0.0,0.0,-0.0685,-0.223,-0.3129,-0.3675,-0.366,0.0,0.0,0.0,0.0,0.0,0.0,-1.3214,0.0,-1.474,-1.7819,-1.9483,-1.962,-2.569,-2.9736,-3.1926,-3.292,-3.3414,-3.3414,-3.3414,-3.3414,-3.344,-3.3855,-3.4028,-3.4082,-3.467,-3.4897,-3.4923,-3.5124,-3.5191,-3.5204,4.2986,4.2488,4.1378,3.8948,3.7856,3.6481,3.3994,3.3887,3.4121,3.4297,3.4373,3.3193,3.0243,2.947,0.0,2.4918,2.4636,2.4636,2.4636,2.4636,2.4636,2.4636,2.4636,2.4636,2.4636,0.0,0.0,2.4636,2.3702,2.2472,2.0974,1.8295,1.6378,1.5052,1.3224,1.2372,1.2372,1.2467,1.2501,1.2501,1.2501,1.2501,1.2501,1.2501,1.2501,1.2501,1.2501,1.2501,1.2501,1.2501,1.2501,1.2501,1.2501,1.2501,1.2501,1.2501,1.2569,1.2657,1.2712,1.2868,1.2996,1.2969,1.303,1.2903,1.1999,0.9031,0.6281,0.55,0.2426,0.0,0.0,0.0,0.0,0.0,0.0,0.0,0.0,0.0,0.0,0.0,0.0,0.0,0.0,-0.434,-0.5242,0.0,0.0,0.0,0.0,0.0,0.0,-1.1971,-1.3713,0.0,-1.5992,-1.9233,-2.1301,-2.2466,-2.765,-3.1183,-3.3253,-3.336,-3.3414,-3.3414,-3.3414,-3.3414,-3.344,-3.3761,-3.3881,-3.3948,-3.4536,-3.4763,-3.4803,-3.5084,-3.5191,-3.5191,4.2986,4.1672,0.0,0.0,3.7184,0.0,3.4241,3.4082,3.4219,3.4648,3.3401,3.1979,3.0368,2.8582,2.6619,2.4784,0.0,0.0,0.0,2.4636,2.4636,2.4636,2.4636,2.4636,2.4636,2.4636,2.4636,2.4636,2.2657,2.1601,2.1291,1.736,1.5387,1.5234,1.3414,1.2501,1.2501,1.2501,1.2501,1.2501,1.2501,1.2501,1.2501,1.2501,1.2501,1.2501,1.2501,1.2501,1.2501,1.2488,1.2488,1.2488,1.2474,1.2474,1.2474,1.2494,1.2501,1.2535,1.2678,1.2718,1.2759,1.2895,1.2929,1.2275,1.0169,0.7999,0.5737,0.3713,0.1606,0.0,0.0,0.0,0.0,0.0,0.0,0.0,0.0,0.0,0.0,0.0,0.0,0.0,0.0,-0.5891,-0.8169,0.0,-1.2784,0.0,0.0,0.0,-1.1971,-1.4299,-1.4606,-1.5995,-1.8313,-2.1781,-2.466,-2.745,-3.0998,-3.2679,-3.2986,-3.3253,-3.3387,-3.3414,-3.3414,-3.3414,-3.3427,-3.3734,-3.3855,-3.3908,-3.4482,-3.4696,-3.4736,-3.5057,-3.5151,-3.5137,0.0,0.0,4.0152,3.8619,3.6967,3.5356,3.4241,3.4082,3.4219,3.4648,3.3292,3.159,3.0004,2.8224,2.6503,2.4757,2.4636,2.4636,2.4636,2.4636,2.4636,2.4636,2.4636,2.4636,2.4636,2.4636,2.4636,2.4636,2.2657,2.0841,1.9176,1.6751,1.4629,1.3267,1.2649,1.2501,1.2501,1.2501,1.2501,1.2501,1.2501,1.2501,1.2501,1.2501,1.2501,1.2501,1.2501,1.2501,1.2488,1.2379,1.2338,1.2318,1.2203,1.2169,1.221,1.2433,1.2501,1.2508,1.2549,1.2637,1.2712,1.263,1.1504,1.0085,0.961,0.6605,0.3774,0.3313,0.142,0.0,0.0,0.0,0.0,0.0,0.0,0.0,0.0,0.0,0.0,0.0,-0.1503,-0.3555,-0.6046,-0.8366,-0.9957,0.0,0.0,0.0,0.0,-1.2729,-1.3761,-1.4299,-1.6072,-1.746,-1.8313,-2.2934,-2.7109,-3.0681,-3.1766,-3.2478,-3.2986,-3.3053,-3.32,-3.3414,-3.3414,-3.3414,-3.3414,-3.3494,-3.3521,-3.3561,-3.3948,-3.4095,-3.4162,-3.467,-3.4723,-3.4589,4.2986,4.1076,3.9239,3.8635,3.6444,3.4524,3.4132,3.3906,3.3926,3.4355,3.2786,3.1184,2.9622,2.8006,2.6214,2.4569,2.4556,2.4636,2.4636,2.4636,2.4636,2.4636,2.4636,2.4636,2.4636,2.4636,2.4636,2.4636,2.2657,2.0542,1.8572,1.6447,1.4475,1.2501,1.2501,1.2501,1.2501,1.2501,1.2501,1.2501,1.2501,1.2501,1.2501,1.2501,1.2501,1.2501,1.2501,1.2461,1.2393,1.2318,1.2244,1.2169,1.2088,1.206,1.2094,1.225,1.2352,1.242,1.2481,1.2562,1.2291,1.1268,0.9532,0.7656,0.6718,0.4691,0.2819,0.188,0.0784,0.0,0.0,0.0,0.0,0.0,0.0,0.0,0.0,-0.0801,0.0,-0.1474,-0.3474,-0.5882,-0.8452,-0.9735,-1.0988,-1.2027,0.0,0.0,-1.2211,-1.4493,-1.5858,-1.5858,-1.7071,-1.899,-2.17,-2.6053,-2.9231,-3.1476,-3.1904,-3.2265,-3.2585,-3.2853,-3.3066,-3.3213,-3.336,-3.3414,-3.3414,-3.3414,-3.3414,-3.344,-3.3761,-3.3881,-3.3935,-3.4389,-3.4456,-3.4362,4.2986,4.0361,3.8358,3.8784,3.5852,3.3574,3.4004,3.375,3.3672,3.4101,3.2226,3.0484,2.9406,2.7461,2.5841,2.4407,2.4489,2.4636,2.4636,2.4636,2.4636,2.4636,2.4636,2.4636,2.4636,2.4636,2.4636,2.4636,2.2211,2.023,1.8572,1.6142,1.4176,1.2501,1.2501,1.2501,1.2501,1.2501,1.2501,1.2501,1.2481,1.2467,1.2467,1.244,1.2433,1.2433,1.2433,1.2359,1.225,1.223,1.2135,1.202,1.1999,1.1993,1.1999,1.202,1.2135,1.2284,1.2433,1.2313,1.1528,0.9506,0.7317,0.5289,0.358,0.2803,0.2183,0.0313,0.0,0.0,0.0,0.0,0.0,0.0,0.0,-0.0157,-0.047,0.0,-0.3347,-0.3884,-0.5718,-0.7987,-1.032,-1.0714,-1.1807,-1.3854,-1.4197,-1.4231,0.0,-1.6459,-1.7929,-1.8279,-1.8627,-2.1259,-2.5994,-2.9235,-3.0875,-3.1169,-3.1717,-3.2011,-3.2118,-3.2666,-3.2933,-3.2986,-3.328,-3.3414,-3.3414,-3.3414,-3.3414,-3.344,-3.3708,-3.3814,-3.3855,-3.4148,-3.4229,-3.4202,4.2986,4.0361,3.8246,3.8335,3.5644,3.3574,3.4004,3.4023,3.4121,3.4551,3.145,2.9227,2.9616,2.6446,2.4309,2.4529,2.4609,2.4636,2.4636,2.4636,2.4636,2.4636,2.4636,2.4636,2.4636,2.4636,2.4636,2.4636,2.0841,1.8874,1.8572,1.4782,1.2804,1.2501,1.2501,1.2501,1.2501,1.2501,1.2501,1.2488,1.2372,1.2325,1.2311,1.2182,1.2128,1.2128,1.2128,1.2115,1.2081,1.1945,1.1884,1.1843,1.1728,1.1687,1.1714,1.183,1.1979,1.2128,1.2284,1.1085,0.9387,0.7233,0.5199,0.3493,0.319,0.1673,0.0458,0.0,0.0,0.0,0.0,0.0,0.0,0.0,0.0,-0.0618,-0.2316,0.0,-0.3756,-0.5808,-0.794,-0.9539,-1.0208,-1.2045,-1.3502,-1.3871,-1.4136,-1.4231,-1.4082,-1.6459,-1.8627,-2.0529,-2.2611,-2.511,-2.8496,-2.9774,-3.0568,-3.0862,-3.1196,-3.1623,-3.2118,-3.2452,-3.2746,-3.2986,-3.328,-3.3414,-3.3414,-3.3414,-3.3414,-3.3414,-3.3467,-3.348,-3.3521,-3.3841,-3.3788,-3.3627,4.2986,4.1076,3.917,3.8342,3.6295,3.4443,3.3819,3.373,3.3789,3.3984,3.176,2.9781,2.9154,2.6919,2.5082,2.4382,2.4543,2.4636,2.4636,2.4636,2.4636,2.4636,2.4636,2.4636,2.4636,2.4636,2.4031,2.2967,2.1141,1.9025,1.6904,1.4982,1.3479,1.2494,1.2338,1.2311,1.2379,1.2298,1.2264,1.2257,1.2196,1.2169,1.2162,1.2088,1.206,1.206,1.206,1.2006,1.1925,1.1857,1.1782,1.1708,1.164,1.1619,1.1633,1.1694,1.1884,1.1945,1.1018,0.9162,0.7141,0.5021,0.3035,0.1362,0.1362,0.0757,0.0,0.0,0.0,0.0,0.0,0.0,-0.031,-0.1376,-0.1534,0.0,0.0,-0.5682,-0.6844,-0.8054,-1.019,-1.1649,-1.2053,-1.3068,-1.3871,-1.396,-1.5381,-1.6171,-1.6094,-1.9615,-2.1911,-2.3126,-2.5518,-2.7547,-2.9032,-2.9913,-3.0501,-3.0795,-3.1249,-3.161,-3.1877,-3.2171,-3.2385,-3.2532,-3.2986,-3.3173,-3.3187,-3.3347,-3.3414,-3.3414,-3.3414,-3.3414,-3.3427,-3.3574,-3.3534,-3.3454,4.2986,4.1672,4.0129,3.8461,3.6902,3.5211,3.367,3.3418,3.3457,3.3555,3.2264,3.0663,2.9075,2.7648,2.6171,2.4434,2.4502,2.4636,2.4636,2.4569,2.4569,2.4636,2.4636,2.4636,2.4636,2.4179,2.3116,2.1601,2.0635,1.8512,1.5531,1.49,1.3862,1.2488,1.223,1.2182,1.2277,1.2128,1.206,1.206,1.202,1.2006,1.2006,1.1972,1.1959,1.1959,1.1959,1.1884,1.1782,1.1782,1.1708,1.1619,1.1619,1.1619,1.1476,1.1038,1.0748,1.0345,0.8975,0.6966,0.4807,0.2859,0.1203,0.0,0.0,0.0,0.0,0.0,0.0,0.0,0.0,-0.0305,-0.1224,-0.2724,0.0,0.0,0.0,-0.8283,-0.9629,-1.0434,-1.1961,-1.3112,-1.3485,-1.3688,-1.3844,-1.396,-1.6372,-1.7696,-1.7696,-2.2235,-2.5032,-2.5556,-2.7564,-2.8751,-2.9032,-2.978,-3.0368,-3.0795,-3.1249,-3.1543,-3.1677,-3.1971,-3.2104,-3.2131,-3.2652,-3.2919,-3.3,-3.3213,-3.3347,-3.3414,-3.3414,-3.3414,-3.3414,-3.3414,-3.3414,-3.3414,4.2986,4.1672,4.0129,3.8461,3.6902,3.5211,3.367,3.3418,3.3574,3.3965,3.245,3.099,2.9771,2.8068,2.6401,2.4716,2.4623,2.4636,2.4636,2.4382,2.4356,2.4623,2.4636,2.4636,2.4636,2.2806,2.1751,2.1601,1.7611,1.5664,1.5531,1.3406,1.2519,1.2494,1.2338,1.2277,1.2277,1.2128,1.206,1.2047,1.1904,1.185,1.183,1.1701,1.1653,1.1653,1.1653,1.1647,1.1633,1.1633,1.1626,1.1619,1.1619,1.1619,1.1181,0.943,0.7702,0.6294,0.6298,0.4788,0.2821,0.0744,0.0148,0.0,0.0,0.0,0.0,0.0,0.0,0.0,0.0,-0.1513,-0.2722,-0.3021,0.0,0.0,-0.8883,-0.9356,-1.0218,-1.2233,-1.2715,-1.3024,-1.3193,-1.3471,-1.3648,-1.3661,-1.6128,-1.751,-1.751,-2.215,-2.5726,-2.7799,-2.8444,-2.8751,-2.9032,-2.9379,-2.9967,-3.0795,-3.0835,-3.1142,-3.1677,-3.1971,-3.2104,-3.2118,-3.2438,-3.2732,-3.2973,-3.3,-3.3173,-3.3414,-3.3414,-3.3414,-3.3414,-3.3414,-3.3414,-3.3414,4.2986,4.2513,4.1305,3.8698,3.7746,3.6417,3.3776,3.3418,3.3476,3.3652,3.2525,3.0962,2.9241,2.785,2.6255,2.4246,2.4102,2.4102,2.4102,2.3995,2.4062,2.4356,2.4369,2.4449,2.4636,2.387,2.2211,1.9779,1.8041,1.5896,1.342,1.2414,1.2088,1.2216,1.1979,1.1925,1.1993,1.185,1.1789,1.1782,1.1721,1.1701,1.1694,1.164,1.1619,1.1619,1.1619,1.1619,1.1619,1.1619,1.1619,1.1325,1.0161,0.9867,0.943,0.7399,0.5518,0.4078,0.4116,0.3527,0.2491,0.0441,0.0,0.0,0.0,0.0,0.0,0.0,0.0,-0.0442,-0.1623,-0.2376,-0.372,-0.6194,0.0,-0.86,-1.0769,-1.1151,-1.1619,-1.2534,-1.2868,-1.3017,-1.3159,-1.4758,-1.5661,-1.5931,-1.9542,-2.181,-2.1957,-2.5143,-2.7279,-2.8136,-2.8257,-2.847,-2.8764,-2.9245,-2.974,-3.0247,-3.0621,-3.1009,-3.1396,-3.1503,-3.1664,-3.1851,-3.2144,-3.2332,-3.2465,-3.2826,-3.304,-3.316,-3.3347,-3.3414,-3.3414,-3.3414,-3.3414,-3.3414,4.2986,4.2986,4.2012,3.8817,3.8223,3.7144,3.3902,3.3418,3.3476,3.3613,3.3065,3.1878,2.9833,2.8478,2.6869,2.4748,2.4181,2.3768,2.3768,2.3688,2.3768,2.4062,2.4062,2.4155,2.4356,2.3235,2.114,1.836,1.702,1.4886,1.2216,1.1999,1.1959,1.2054,1.185,1.1782,1.1823,1.1681,1.1619,1.1619,1.1619,1.1619,1.1619,1.1619,1.1619,1.1619,1.1619,1.1619,1.1619,1.1619,1.1619,1.1325,0.9285,0.7833,0.6673,0.5229,0.349,0.2037,0.2037,0.2037,0.1602,0.0292,0.0,0.0,0.0,0.0,0.0,0.0,-0.0437,-0.1311,-0.2618,-0.3951,-0.558,-0.8324,-0.9366,-1.0416,-1.1971,-1.2264,-1.2734,-1.3559,-1.3771,-1.4266,-1.5007,-1.6794,-1.7915,-1.828,-2.184,-2.4663,-2.5701,-2.7279,-2.8136,-2.8136,-2.8136,-2.8243,-2.8457,-2.9045,-2.9539,-2.9927,-3.0421,-3.0808,-3.1089,-3.1183,-3.1343,-3.1543,-3.1837,-3.2024,-3.2144,-3.2639,-3.2893,-3.3013,-3.3293,-3.3414,-3.3414,-3.3414,-3.3414,-3.3614,4.2986,4.2986,4.2012,3.8817,3.8223,3.7144,3.3902,3.3418,3.3574,3.4004,3.4082,3.357,3.2077,3.0326,2.8397,2.6489,2.4862,2.3768,2.3768,2.3487,2.346,2.3754,2.3768,2.3768,2.3768,2.005,1.798,1.7905,1.3964,1.206,1.206,1.206,1.206,1.206,1.206,1.1972,1.1823,1.1681,1.1619,1.1619,1.1619,1.1619,1.1619,1.1619,1.1619,1.1619,1.1619,1.1619,1.1619,1.1619,1.1619,1.1325,0.9285,0.5949,0.2909,0.2909,0.1456,0.0,0.0,0.0,0.0,0.0,0.0,0.0,0.0,0.0,0.0,0.0,-0.1602,-0.2909,-0.2909,-0.6094,-0.8739,-0.8856,-1.0761,-1.2115,-1.2271,-1.2413,-1.3259,-1.5234,-1.5869,-1.7038,-1.9083,-1.9644,-1.9998,-2.0385,-2.2598,-2.5317,-2.811,-2.8136,-2.8136,-2.8136,-2.8136,-2.8136,-2.8136,-2.8738,-2.9325,-2.9913,-3.0207,-3.0501,-3.0795,-3.1089,-3.1223,-3.1236,-3.1543,-3.1837,-3.2118,-3.2425,-3.2706,-3.3,-3.3293,-3.34,-3.3414,-3.3414,-3.3414,-3.38,4.2986,4.2986,4.2012,3.8817,3.8223,3.7144,3.3902,3.3418,3.3476,3.3594,3.3887,3.2933,2.9705,2.9111,2.7541,2.4218,2.3542,2.314,2.314,2.3046,2.3033,2.3126,2.334,2.2975,2.1845,2.0607,1.8706,1.6012,1.4717,1.3351,1.1898,1.1796,1.1755,1.1755,1.1755,1.1728,1.1681,1.164,1.1619,1.1619,1.1619,1.1619,1.1619,1.1619,1.1619,1.1619,1.1619,1.1619,1.1619,1.1619,1.1619,1.1038,0.7693,0.4939,0.2618,0.1311,0.0437,0.0,0.0,0.0,0.0,0.0,0.0,-0.0292,-0.1748,-0.2037,-0.2474,-0.378,-0.4504,-0.5373,-0.6673,-0.7977,-0.9152,-1.0504,-1.1596,-1.2081,-1.2121,-1.3543,-1.4782,-1.5387,-1.7107,-1.8612,-1.9083,-2.092,-2.2268,-2.2527,-2.5108,-2.7057,-2.8123,-2.8136,-2.8136,-2.8136,-2.8136,-2.8136,-2.8136,-2.8537,-2.8925,-2.9312,-2.9606,-3.0007,-3.0501,-3.0795,-3.1036,-3.1236,-3.1543,-3.1717,-3.1824,-3.2118,-3.2291,-3.2606,-3.4814,-3.4633,-3.3332,-3.5479,-3.4969,-3.3614,4.2986,4.2986,4.215,3.9639,3.858,3.7385,3.4736,3.3776,3.3418,3.3418,3.3809,3.3173,3.0781,2.9628,2.7948,2.547,2.3857,2.2859,2.2859,2.2859,2.2859,2.2859,2.3046,2.2649,2.1666,2.0318,1.831,1.5922,1.4438,1.2954,1.1748,1.1714,1.1674,1.1619,1.1681,1.1674,1.1619,1.1619,1.1619,1.1619,1.1619,1.1619,1.1619,1.1619,1.1619,1.1619,1.1619,1.1619,1.1619,1.1619,1.0599,0.8853,0.6536,0.3925,0.1456,0.0292,0.0,0.0,0.0,0.0,0.0,0.0,0.0,-0.0437,-0.2472,-0.2909,-0.3488,-0.5373,-0.6387,-0.7255,-0.8415,-0.9285,-1.0317,-1.1549,-1.2633,-1.326,-1.3319,-1.5354,-1.7056,-1.7815,-1.9347,-2.0692,-2.1579,-2.3224,-2.448,-2.4975,-2.6757,-2.7829,-2.8123,-2.8136,-2.8136,-2.8136,-2.8136,-2.8136,-2.8136,-2.8323,-2.8631,-2.9045,-2.9339,-2.9726,-3.0194,-3.0488,-3.0715,-3.0902,-3.1316,-3.2042,-3.2995,-3.3415,-3.3597,-3.383,-3.6768,-3.6401,-3.4548,-3.7566,-3.7478,-3.6334,4.2986,4.2986,4.2488,4.0822,3.9288,3.7626,3.6051,3.4363,3.3418,3.3418,3.3809,3.4062,3.3934,3.1043,2.9088,2.859,2.5033,2.2859,2.2859,2.2859,2.2859,2.2859,2.2722,2.2585,2.2585,1.9279,1.7166,1.6685,1.3465,1.1748,1.1619,1.1748,1.1742,1.1626,1.1755,1.1742,1.1619,1.1619,1.1619,1.1619,1.1619,1.1619,1.1619,1.1619,1.1619,1.1619,1.1619,1.1619,1.1619,1.1469,0.8997,0.5953,0.5663,0.3056,0.0292,0.0,0.0,0.0,0.0,0.0,0.0,-0.0146,-0.0292,-0.0729,-0.2763,-0.3342,-0.3923,-0.5953,-0.7688,-0.8992,-0.8992,-1.0587,-1.1949,-1.2095,-1.3853,-1.5345,-1.5526,-1.7529,-1.9478,-2.144,-2.1976,-2.3162,-2.5325,-2.5798,-2.6346,-2.7201,-2.7509,-2.7969,-2.8446,-2.8473,-2.8628,-2.8796,-2.8796,-2.8796,-2.8796,-2.8796,-2.8757,-2.9005,-2.9299,-2.9593,-2.9887,-3.0207,-3.0536,-3.0745,-3.0942,-3.2631,-3.5212,-3.5473,-3.593,-3.6336,-3.912,-3.8701,-3.6868,-3.9655,-4.0561,-4.0834,4.3184,4.2986,4.2488,4.0822,3.9288,3.7626,3.6051,3.4363,3.3418,3.3418,3.3809,3.3527,3.2189,3.0373,2.8542,2.6846,2.4365,2.2859,2.2859,2.2859,2.2859,2.2859,2.1459,2.0756,2.0756,1.8422,1.5744,1.2745,1.2079,1.1647,1.1619,1.1653,1.1647,1.1619,1.1653,1.1647,1.1619,1.1619,1.1619,1.1619,1.1619,1.1619,1.1619,1.1619,1.1619,1.1619,1.1619,1.1619,1.1325,0.9867,0.8703,0.7544,0.4504,0.2909,0.2037,0.0437,0.0,0.0,0.0,0.0,-0.0438,-0.1892,-0.2328,-0.2763,-0.4794,-0.6387,-0.7977,-0.9873,-1.0743,-1.1031,-1.1031,-1.2452,-1.3928,-1.4252,-1.6022,-1.739,-1.7605,-1.9628,-2.1141,-2.1601,-2.3204,-2.4717,-2.5478,-2.5985,-2.656,-2.7215,-2.7321,-2.8386,-3.0549,-3.0759,-3.1557,-3.3201,-3.3349,-3.3349,-3.3349,-3.3349,-3.1783,-2.8711,-2.8991,-2.9285,-2.9593,-3.0127,-3.1416,-3.3023,-3.1437,-3.3211,-3.6997,-3.5608,-3.6144,-3.8019,-4.124,-4.093,-3.9129,-4.1914,-4.1868,-4.0834,4.3295,4.2986,4.2737,4.1899,3.9756,3.7865,3.7002,3.4984,3.3418,3.3418,3.3809,3.3805,3.273,3.0641,2.7995,2.5106,2.3571,2.2859,2.2859,2.2859,2.2435,2.1596,2.0617,1.9206,1.7388,1.6404,1.4858,1.2888,1.2043,1.1619,1.1619,1.1619,1.1619,1.1619,1.1619,1.1619,1.1619,1.1619,1.1619,1.1619,1.1619,1.1619,1.1619,1.1619,1.1619,1.1619,1.1619,1.1031,1.0011,0.8992,0.7399,0.5515,0.3488,0.2328,0.1311,0.0292,0.0,0.0,0.0,-0.0729,-0.1602,-0.2618,-0.4356,-0.5949,-0.6966,-0.7977,-0.9285,-1.1181,-1.2323,-1.2888,-1.2888,-1.4432,-1.5763,-1.6109,-1.7898,-1.9446,-1.9686,-2.1585,-2.2967,-2.2967,-2.4162,-2.5473,-2.6805,-2.7565,-2.849,-3.0215,-3.0275,-3.1027,-3.2827,-3.3022,-3.3512,-3.4651,-3.4651,-3.4651,-3.4651,-3.4651,-3.3624,-3.1524,-3.1985,-3.2386,-3.2728,-3.3234,-3.4165,-3.5222,-3.4336,-3.5901,-3.9094,-3.8408,-3.8836,-4.029,-4.3243,-4.2963,-4.1335,-4.4123,-4.4709,-4.4173,4.3602,4.3184,4.2986,4.2986,4.0592,3.8461,3.8223,3.5704,3.365,3.3418,3.3809,3.4082,3.4082,3.1123,2.7673,2.4024,2.3171,2.2859,2.2859,2.2859,2.216,2.0617,1.9912,1.8089,1.4991,1.429,1.3872,1.3872,1.2323,1.1619,1.1619,1.1619,1.1619,1.1619,1.1619,1.1619,1.1619,1.1619,1.1619,1.1619,1.1619,1.1619,1.1619,1.1619,1.1619,1.1619,1.1181,0.9867,0.8121,0.7833,0.5515,0.2909,0.2472,0.1311,0.0,0.0,0.0,0.0,-0.0438,-0.1602,-0.3054,-0.3778,-0.6383,-0.8848,-0.9136,-0.9141,-0.9718,-1.1325,-1.3024,-1.4432,-1.4432,-1.6263,-1.7741,-1.7969,-1.9889,-2.1582,-2.2044,-2.3771,-2.5144,-2.5478,-2.5723,-2.6566,-2.8866,-2.9671,-3.095,-3.3372,-3.3578,-3.405,-3.5265,-3.5298,-3.546,-3.5799,-3.5799,-3.5799,-3.5799,-3.5799,-3.5799,-3.5799,-3.6464,-3.6492,-3.6187,-3.6632,-3.7003,-3.7363,-3.7334,-3.8856,-4.133,-4.1369,-4.1731,-4.2582,-4.4799,-4.4546,-4.3494,-4.6011,-4.7109,-4.7441,4.5048,4.3797,4.2986,4.2986,4.1533,3.9756,3.8461,3.666,3.4964,3.3544,3.3809,3.4082,3.4082,3.1025,2.7948,2.5888,2.3969,2.2859,2.2859,2.2859,2.2722,2.2585,1.9356,1.7388,1.6826,1.3595,1.2043,1.2043,1.1763,1.1619,1.1619,1.1619,1.1619,1.1619,1.1619,1.1619,1.1619,1.1619,1.1619,1.1619,1.1619,1.1619,1.1619,1.1619,1.1619,1.1332,0.9718,0.7837,0.5953,0.4213,0.3342,0.2618,0.0874,0.0146,0.0,0.0,0.0,-0.0438,-0.2037,-0.2763,-0.3778,-0.7106,-0.8266,-0.9136,-1.0887,-1.1181,-1.1325,-1.1619,-1.3024,-1.4432,-1.4432,-1.7248,-1.9854,-2.0109,-2.177,-2.3682,-2.5883,-2.6442,-2.7432,-2.9282,-3.0131,-3.055,-3.0941,-3.1609,-3.2495,-3.3529,-3.3578,-3.4683,-3.7365,-3.7419,-3.839,-4.0197,-4.0353,-4.0353,-4.0353,-4.0353,-4.0353,-4.0353,-4.0832,-3.9104,-3.5807,-3.6517,-3.7861,-3.9734,-3.774,-3.9313,-4.3145,-4.1652,-4.2215,-4.4083,-4.4791,-4.5199,-4.5493,-4.6464,-4.6738,-4.6582,4.5236,4.3907,4.2986,4.2986,4.1672,4.0361,3.9639,3.7363,3.556,3.484,3.4187,3.3711,3.3711,3.052,2.7729,2.5862,2.4008,2.2859,2.2859,2.2859,2.2435,2.1321,1.8659,1.6685,1.5698,1.3031,1.1619,1.1619,1.1619,1.1619,1.1619,1.1619,1.1619,1.1619,1.1619,1.1619,1.1619,1.1619,1.1619,1.1619,1.1619,1.1619,1.1619,1.1619,1.0887,0.9723,0.7837,0.5808,0.4068,0.3197,0.2183,0.1166,0.0292,0.0,0.0,0.0,-0.0729,-0.1746,-0.2618,-0.4501,-0.6528,-0.8266,-0.9574,-1.0875,-1.2738,-1.3167,-1.3167,-1.3167,-1.5557,-1.7529,-1.7529,-1.9773,-2.1634,-2.1761,-2.2636,-2.4148,-2.6498,-2.6863,-2.786,-3.0398,-3.1069,-3.1906,-3.3301,-3.3821,-3.4935,-3.6976,-3.7049,-3.7877,-3.9651,-3.9688,-4.0197,-4.1172,-4.1172,-4.1172,-4.1172,-4.1172,-4.1172,-4.1172,-4.1601,-4.0903,-3.9104,-3.9905,-4.0953,-4.182,-4.1026,-4.1807,-4.3711,-4.2869,-4.3285,-4.4414,-4.4609,-4.4941,-4.5391,-4.5996,-4.6113,-4.6074]},{"header":{"parameterUnit":"m.s-1","parameterCategory":1,"la1":30.6,"la2":28.766,"lo1":-90.7593,"lo2":-88.6598,"dy":0.0162,"dx":0.0183,"nx":116,"ny":114,"refTime":"2023-11-12T06:00:00:Z","depth":0,"parameterNumber":3,"parameterNumberName":"V-component_of_WINDS"},"data":[0.0,0.0,0.0,0.0,0.0,0.0,0.0,0.0,0.0,0.0,0.0,0.0,0.0,0.0,0.0,0.0,0.0,0.0,0.0,0.0,0.0,0.0,0.0,0.0,0.0,0.0,0.0,0.0,0.0,0.0,0.0,0.0,0.0,0.0,0.0,0.0,0.0,0.0,0.0,0.0,0.0,0.0,0.0,0.0,0.0,0.0,0.0,0.0,0.0,0.0,0.0,0.0,0.0,0.0,0.0,0.0,0.0,0.0,0.0,0.0,0.0,0.0,0.0,0.0,0.0,0.0,0.0,0.0,0.0,0.0,0.0,0.0,0.0,0.0,0.0,0.0,0.0,0.0,0.0,0.0,0.0,0.0,0.0,0.0,0.0,0.0,0.0,0.0,0.0,0.0,0.0,0.0,0.0,0.0,0.0,0.0,0.0,0.0,0.0,0.0,0.0,0.0,0.0,0.0,0.0,0.0,0.0,0.0,0.0,0.0,0.0,0.0,0.0,0.0,0.0,0.0,0.0,0.0,0.0,0.0,0.0,0.0,0.0,0.0,0.0,0.0,0.0,0.0,0.0,0.0,0.0,0.0,0.0,0.0,0.0,0.0,0.0,0.0,0.0,0.0,0.0,0.0,0.0,0.0,0.0,0.0,0.0,0.0,0.0,0.0,0.0,0.0,0.0,0.0,0.0,0.0,0.0,0.0,0.0,0.0,0.0,0.0,0.0,0.0,0.0,0.0,0.0,0.0,0.0,0.0,0.0,0.0,0.0,0.0,0.0,0.0,0.0,0.0,0.0,0.0,0.0,0.0,0.0,0.0,0.0,0.0,0.0,0.0,0.0,0.0,0.0,0.0,0.0,0.0,0.0,0.0,0.0,0.0,0.0,0.0,0.0,0.0,0.0,0.0,0.0,0.0,0.0,0.0,0.0,0.0,0.0,0.0,0.0,0.0,0.0,0.0,0.0,0.0,0.0,0.0,0.0,0.0,0.0,0.0,0.0,0.0,0.0,0.0,0.0,0.0,0.0,0.0,0.0,0.0,0.0,0.0,0.0,0.0,0.0,0.0,0.0,0.0,0.0,0.0,0.0,0.0,0.0,0.0,0.0,0.0,0.0,0.0,0.0,0.0,0.0,0.0,0.0,0.0,0.0,0.0,0.0,0.0,0.0,0.0,0.0,0.0,0.0,0.0,0.0,0.0,0.0,0.0,0.0,0.0,0.0,0.0,0.0,0.0,0.0,0.0,0.0,0.0,0.0,0.0,0.0,0.0,0.0,0.0,0.0,0.0,0.0,0.0,0.0,0.0,0.0,0.0,0.0,0.0,0.0,0.0,0.0,0.0,0.0,0.0,0.0,0.0,0.0,0.0,0.0,0.0,0.0,0.0,0.0,0.0,0.0,0.0,0.0,0.0,0.0,0.0,0.0,0.0,0.0,0.0,0.0,0.0,0.0,0.0,0.0,0.0,0.0,0.0,0.0,0.0,0.0,0.0,0.0,0.0,0.0,0.0,0.0,0.0,0.0,0.0,0.0,0.0,0.0,0.0,0.0,0.0,0.0,0.0,0.0,0.0,0.0,0.0,0.0,0.0,0.0,0.0,0.0,0.0,0.0,0.0,0.0,0.0,0.0,0.0,0.0,0.0,0.0,0.0,0.0,0.0,0.0,0.0,0.0,0.0,0.0,0.0,0.0,0.0,0.0,0.0,0.0,0.0,0.0,0.0,0.0,0.0,0.0,0.0,0.0,0.0,0.0,0.0,0.0,0.0,0.0,0.0,0.0,0.0,0.0,0.0,0.0,0.0,0.0,0.0,0.0,0.0,0.0,0.0,0.0,0.0,0.0,0.0,0.0,0.0,0.0,0.0,0.0,0.0,0.0,0.0,0.0,0.0,0.0,0.0,0.0,0.0,0.0,0.0,0.0,0.0,0.0,0.0,0.0,0.0,0.0,0.0,0.0,0.0,0.0,0.0,0.0,0.0,0.0,0.0,0.0,0.0,0.0,0.0,0.0,0.0,0.0,0.0,0.0,0.0,0.0,0.0,0.0,0.0,0.0,0.0,0.0,0.0,0.0,0.0,0.0,0.0,0.0,0.0,0.0,0.0,0.0,0.0,0.0,0.0,0.0,0.0,0.0,0.0,0.0,0.0,0.0,0.0,0.0,0.0,0.0,0.0,0.0,0.0,0.0,0.0,0.0,0.0,0.0,0.0,0.0,0.0,0.0,0.0,0.0,0.0,0.0,0.0,0.0,0.0,0.0,0.0,0.0,0.0,0.0,0.0,0.0,0.0,0.0,0.0,0.0,0.0,0.0,0.0,0.0,0.0,0.0,0.0,0.0,0.0,0.0,0.0,0.0,0.0,0.0,0.0,0.0,0.0,0.0,0.0,0.0,0.0,0.0,0.0,0.0,0.0,0.0,0.0,0.0,0.0,0.0,0.0,0.0,0.0,0.0,0.0,0.0,0.0,0.0,0.0,0.0,0.0,0.0,0.0,0.0,0.0,0.0,0.0,0.0,0.0,0.0,0.0,0.0,0.0,0.0,0.0,0.0,0.0,0.0,0.0,0.0,0.0,0.0,0.0,0.0,0.0,0.0,0.0,0.0,0.0,0.0,0.0,0.0,0.0,0.0,0.0,0.0,0.0,0.0,0.0,0.0,0.0,0.0,0.0,0.0,0.0,0.0,0.0,0.0,0.0,0.0,0.0,0.0,0.0,0.0,0.0,0.0,0.0,0.0,0.0,0.0,0.0,0.0,0.0,0.0,0.0,0.0,0.0,0.0,0.0,0.0,0.0,0.0,0.0,0.0,0.0,0.0,0.0,0.0,0.0,0.0,0.0,0.0,0.0,0.0,0.0,0.0,0.0,0.0,0.0,0.0,0.0,0.0,0.0,0.0,0.0,0.0,0.0,0.0,0.0,0.0,0.0,0.0,0.0,0.0,0.0,0.0,0.0,0.0,0.0,0.0,0.0,0.0,0.0,0.0,0.0,0.0,0.0,0.0,0.0,0.0,0.0,0.0,0.0,0.0,0.0,0.0,0.0,0.0,0.0,0.0,0.0,0.0,0.0,0.0,0.0,0.0,0.0,0.0,0.0,0.0,0.0,0.0,0.0,0.0,0.0,0.0,0.0,0.0,0.0,0.0,0.0,0.0,0.0,0.0,0.0,0.0,0.0,0.0,0.0,0.0,0.0,0.0,0.0,0.0,0.0,0.0,0.0,0.0,0.0,0.0,0.0,0.0,0.0,0.0,0.0,0.0,0.0,0.0,0.0,0.0,0.0,0.0,0.0,0.0,0.0,0.0,0.0,0.0,0.0,0.0,0.0,0.0,0.0,0.0,0.0,0.0,0.0,0.0,0.0,0.0,0.0,0.0,0.0,0.0,0.0,0.0,0.0,0.0,0.0,0.0,0.0,0.0,0.0,0.0,0.0,0.0,0.0,0.0,0.0,0.0,0.0,0.0,0.0,0.0,0.0,0.0,0.0,0.0,0.0,0.0,0.0,0.0,0.0,0.0,0.0,0.0,0.0,0.0,0.0,0.0,0.0,0.0,0.0,0.0,0.0,0.0,0.0,0.0,0.0,0.0,0.0,0.0,0.0,0.0,0.0,0.0,0.0,0.0,0.0,0.0,0.0,0.0,0.0,0.0,0.0,0.0,0.0,0.0,0.0,0.0,0.0,0.0,0.0,0.0,0.0,0.0,0.0,0.0,0.0,0.0,0.0,0.0,0.0,0.0,0.0,0.0,0.0,0.0,0.0,0.0,0.0,0.0,0.0,0.0,0.0,0.0,0.0,0.0,0.0,0.0,0.0,0.0,0.0,0.0,0.0,0.0,0.0,0.0,0.0,0.0,0.0,0.0,0.0,0.0,0.0,0.0,0.0,0.0,0.0,0.0,0.0,0.0,0.0,0.0,0.0,0.0,0.0,0.0,0.0,0.0,0.0,0.0,0.0,0.0,0.0,0.0,0.0,0.0,0.0,0.0,0.0,0.0,0.0,0.0,0.0,0.0,0.0,0.0,0.0,0.0,0.0,0.0,0.0,0.0,0.0,0.0,0.0,0.0,0.0,0.0,0.0,0.0,0.0,0.0,0.0,0.0,0.0,0.0,0.0,0.0,0.0,0.0,0.0,0.0,0.0,0.0,0.0,0.0,0.0,0.0,0.0,0.0,0.0,0.0,0.0,0.0,0.0,0.0,0.0,0.0,0.0,0.0,0.0,0.0,0.0,0.0,0.0,0.0,0.0,0.0,0.0,0.0,0.0,0.0,0.0,0.0,0.0,0.0,0.0,0.0,0.0,0.0,0.0,0.0,0.0,0.0,0.0,0.0,0.0,0.0,0.0,0.0,0.0,0.0,0.0,0.0,0.0,0.0,0.0,0.0,0.0,0.0,0.0,0.0,0.0,0.0,0.0,0.0,0.0,0.0,0.0,0.0,0.0,0.0,0.0,0.0,0.0,0.0,0.0,0.0,0.0,0.0,0.0,0.0,0.0,0.0,0.0,0.0,0.0,0.0,0.0,0.0,0.0,0.0,0.0,0.0,0.0,0.0,0.0,0.0,0.0,0.0,0.0,0.0,0.0,0.0,0.0,0.0,0.0,0.0,0.0,0.0,0.0,0.0,0.0,0.0,0.0,0.0,0.0,0.0,0.0,0.0,0.0,0.0,0.0,0.0,0.0,0.0,0.0,0.0,0.0,0.0,0.0,0.0,0.0,0.0,0.0,0.0,0.0,0.0,0.0,0.0,0.0,0.0,0.0,0.0,0.0,0.0,0.0,0.0,0.0,0.0,0.0,0.0,0.0,0.0,0.0,0.0,0.0,0.0,0.0,0.0,0.0,0.0,0.0,0.0,0.0,0.0,0.0,0.0,0.0,0.0,0.0,0.0,0.0,0.0,0.0,0.0,0.0,0.0,0.0,0.0,0.0,0.0,0.0,0.0,0.0,0.0,0.0,0.0,0.0,0.0,0.0,0.0,0.0,0.0,0.0,0.0,0.0,0.0,0.0,0.0,0.0,0.0,0.0,0.0,0.0,0.0,0.0,0.0,0.0,0.0,0.0,0.0,0.0,0.0,0.0,0.0,0.0,0.0,0.0,0.0,0.0,0.0,0.0,0.0,0.0,0.0,0.0,0.0,0.0,0.0,0.0,0.0,0.0,0.0,0.0,0.0,0.0,0.0,0.0,0.0,0.0,0.0,0.0,0.0,0.0,0.0,0.0,0.0,0.0,0.0,0.0,0.0,0.0,0.0,0.0,0.0,0.0,0.0,0.0,0.0,0.0,0.0,0.0,0.0,0.0,0.0,0.0,0.0,0.0,0.0,0.0,0.0,0.0,0.0,0.0,0.0,0.0,0.0,0.0,0.0,0.0,0.0,0.0,0.0,0.0,0.0,0.0,0.0,0.0,0.0,0.0,0.0,0.0,0.0,0.0,0.0,0.0,0.0,0.0,0.0,0.0,0.0,0.0,0.0,0.0,0.0,0.0,0.0,0.0,0.0,0.0,0.0,0.0,0.0,0.0,0.0,0.0,0.0,0.0,0.0,0.0,0.0,0.0,0.0,0.0,0.0,0.0,0.0,0.0,0.0,0.0,0.0,0.0,0.0,0.0,0.0,0.0,0.0,0.0,0.0,0.0,0.0,0.0,0.0,0.0,0.0,0.0,0.0,0.0,0.0,0.0,0.0,0.0,0.0,0.0,0.0,0.0,0.0,0.0,0.0,0.0,0.0,0.0,0.0,0.0,0.0,0.0,0.0,0.0,0.0,0.0,0.0,0.0,0.0,0.0,0.0,0.0,0.0,0.0,0.0,0.0,0.0,0.0,0.0,0.0,0.0,0.0,0.0,0.0,0.0,0.0,0.0,0.0,0.0,0.0,0.0,0.0,0.0,0.0,0.0,0.0,0.0,0.0,0.0,0.0,0.0,0.0,0.0,0.0,0.0,0.0,0.0,0.0,0.0,0.0,0.0,0.0,0.0,0.0,0.0,0.0,0.0,0.0,0.0,0.0,0.0,0.0,0.0,0.0,0.0,0.0,0.0,0.0,0.0,0.0,0.0,0.0,0.0,0.0,0.0,0.0,0.0,0.0,0.0,0.0,0.0,0.0,0.0,0.0,8.1105,8.0448,0.0,0.0,0.0,0.0,0.0,0.0,0.0,0.0,0.0,0.0,0.0,0.0,0.0,0.0,0.0,0.0,0.0,0.0,0.0,0.0,0.0,0.0,0.0,0.0,0.0,0.0,0.0,0.0,0.0,0.0,0.0,0.0,0.0,0.0,0.0,0.0,0.0,6.2381,6.2753,6.3497,6.4546,6.414,6.3159,6.1704,0.0,0.0,0.0,0.0,0.0,0.0,0.0,0.0,0.0,0.0,0.0,0.0,0.0,0.0,0.0,0.0,0.0,0.0,0.0,0.0,0.0,0.0,0.0,0.0,0.0,0.0,0.0,0.0,0.0,0.0,0.0,0.0,0.0,0.0,0.0,0.0,0.0,0.0,0.0,0.0,0.0,0.0,0.0,0.0,0.0,0.0,0.0,0.0,0.0,0.0,0.0,0.0,0.0,0.0,0.0,0.0,0.0,0.0,0.0,0.0,0.0,0.0,0.0,0.0,0.0,0.0,0.0,0.0,0.0,0.0,8.4792,8.4132,0.0,0.0,0.0,0.0,0.0,0.0,0.0,0.0,0.0,0.0,0.0,0.0,0.0,0.0,0.0,0.0,0.0,0.0,0.0,0.0,0.0,0.0,0.0,5.8998,5.9844,6.0452,6.1332,6.2076,6.255,0.0,0.0,0.0,0.0,0.0,6.2584,6.2719,6.3091,6.37,6.3971,6.4783,6.6102,6.6846,6.6237,6.441,6.2922,0.0,0.0,0.0,0.0,0.0,0.0,0.0,0.0,0.0,0.0,0.0,0.0,0.0,0.0,0.0,0.0,0.0,0.0,0.0,0.0,0.0,0.0,0.0,0.0,0.0,0.0,0.0,0.0,0.0,0.0,0.0,0.0,0.0,0.0,0.0,0.0,0.0,0.0,0.0,0.0,0.0,0.0,0.0,0.0,0.0,0.0,0.0,0.0,0.0,0.0,0.0,0.0,0.0,0.0,0.0,0.0,0.0,0.0,0.0,0.0,0.0,0.0,0.0,8.4853,8.6151,8.7105,8.7766,8.85,8.9234,8.8573,8.7949,8.7325,8.582,0.0,0.0,0.0,0.0,0.0,0.0,0.0,0.0,0.0,0.0,0.0,0.0,0.0,0.0,0.0,0.0,0.0,0.0,0.0,5.8761,5.8863,6.0723,6.1975,6.2076,6.3362,6.3937,6.3396,6.3362,6.3091,6.2415,6.3024,6.3362,6.3362,6.3971,6.4377,6.4478,6.5764,6.6812,6.7624,6.8436,6.8639,6.8301,6.6779,6.6068,6.6,0.0,0.0,0.0,0.0,0.0,0.0,0.0,0.0,0.0,0.0,0.0,0.0,0.0,0.0,0.0,0.0,0.0,0.0,0.0,0.0,0.0,0.0,0.0,0.0,0.0,0.0,0.0,0.0,0.0,0.0,0.0,0.0,0.0,0.0,0.0,0.0,0.0,0.0,0.0,0.0,0.0,7.3028,7.3911,0.0,0.0,0.0,0.0,0.0,0.0,0.0,0.0,0.0,0.0,0.0,0.0,0.0,8.3182,8.4876,8.6393,8.7662,8.8397,8.9346,9.0629,9.2134,9.2244,9.2721,9.3492,9.3382,0.0,8.9014,8.8096,0.0,0.0,0.0,0.0,0.0,0.0,0.0,0.0,0.0,0.0,0.0,0.0,0.0,0.0,0.0,0.0,0.0,0.0,0.0,0.0,0.0,6.1535,6.2719,6.3565,6.4613,6.5087,6.4749,6.4749,6.441,6.3666,6.3937,6.414,6.414,6.485,6.5831,6.7117,6.9011,7.0331,7.1075,7.2259,7.28,7.2766,7.1684,6.9789,6.732,6.5831,0.0,0.0,0.0,0.0,0.0,0.0,0.0,0.0,0.0,0.0,0.0,0.0,0.0,0.0,0.0,0.0,0.0,0.0,0.0,0.0,0.0,0.0,0.0,0.0,0.0,0.0,0.0,0.0,0.0,0.0,0.0,0.0,0.0,0.0,0.0,0.0,0.0,0.0,0.0,7.3645,7.5036,7.6373,7.6391,7.6476,0.0,0.0,0.0,0.0,0.0,0.0,0.0,0.0,0.0,8.5873,8.6792,8.7851,8.8982,9.0704,9.1803,9.217,9.3418,9.441,9.5144,9.6061,9.6171,9.5658,9.6135,9.4997,9.2648,9.0445,8.9087,8.8243,0.0,0.0,0.0,0.0,8.7142,8.7252,0.0,0.0,0.0,0.0,0.0,0.0,0.0,0.0,0.0,0.0,0.0,0.0,6.1467,6.2888,6.4174,6.5087,6.6203,6.6677,6.6271,6.6068,6.5628,6.4918,6.4884,6.4884,6.4884,6.617,6.7963,7.0229,7.2259,7.3713,7.4661,7.5777,7.6284,7.6251,7.554,7.3003,6.9214,6.7557,6.6305,6.5372,0.0,0.0,0.0,0.0,0.0,0.0,0.0,0.0,0.0,0.0,0.0,0.0,0.0,0.0,0.0,0.0,0.0,0.0,0.0,0.0,0.0,0.0,0.0,0.0,0.0,0.0,0.0,0.0,0.0,0.0,0.0,0.0,0.0,0.0,0.0,0.0,0.0,7.6013,7.7308,7.9061,7.9071,7.9096,0.0,0.0,0.0,0.0,0.0,0.0,8.5972,8.6138,8.7703,9.1179,9.1877,9.2648,9.3675,9.4887,9.5621,9.5841,9.7273,9.8043,9.83,9.9695,9.9548,9.8264,9.8851,9.808,9.6171,9.3125,9.1143,8.9895,8.872,8.7986,8.7729,8.8536,8.894,8.9234,0.0,0.0,0.0,0.0,0.0,0.0,0.0,0.0,0.0,0.0,0.0,6.2245,6.2347,6.5493,6.7387,6.6745,6.8707,6.935,6.7895,6.7151,6.644,6.5662,6.5628,6.5628,6.5628,6.847,7.1041,7.3274,7.4796,7.6284,7.7773,7.7841,7.7874,7.7841,7.7096,7.5439,7.3071,7.0872,6.9113,6.7557,6.544,0.0,0.0,0.0,0.0,0.0,0.0,0.0,0.0,0.0,0.0,0.0,0.0,0.0,0.0,0.0,0.0,0.0,0.0,0.0,0.0,0.0,0.0,0.0,0.0,0.0,0.0,0.0,0.0,0.0,0.0,0.0,0.0,0.0,0.0,0.0,0.0,0.0,0.0,8.1791,8.2011,0.0,0.0,0.0,0.0,8.4211,8.5092,8.6925,9.0152,9.1033,9.3015,9.6245,9.6355,9.7163,9.8741,9.8814,9.9255,9.9989,10.087,10.1677,10.2412,10.3293,10.3182,10.2412,10.2412,10.109,9.8741,9.6245,9.3822,9.1657,9.1583,9.0629,8.9381,9.0188,9.0959,9.173,0.0,0.0,0.0,0.0,0.0,0.0,0.0,0.0,5.9167,5.9641,6.1264,6.3294,6.5662,6.7996,7.0026,7.1684,7.2124,7.1887,7.0872,6.9214,6.7929,6.7151,6.6677,6.7083,6.8538,7.1041,7.3409,7.5676,7.7638,7.9126,8.0107,8.0615,8.0818,8.0784,8.004,7.9025,7.7536,7.3375,7.1007,6.9945,6.7796,6.6685,0.0,0.0,0.0,0.0,0.0,0.0,0.0,0.0,0.0,0.0,0.0,0.0,0.0,0.0,0.0,0.0,0.0,0.0,0.0,0.0,0.0,0.0,0.0,0.0,0.0,0.0,0.0,0.0,0.0,0.0,0.0,0.0,0.0,0.0,0.0,0.0,0.0,8.5159,8.6224,0.0,8.7986,8.7325,8.7509,8.9124,9.0482,9.2427,9.5144,9.6098,9.753,9.9695,10.0796,10.1604,10.2191,10.3293,10.3696,10.3403,10.4798,10.5275,10.5091,10.6486,10.6302,10.5091,10.5091,10.399,10.2081,10.0686,9.7787,9.4189,9.4189,9.3529,9.2611,9.2868,9.3161,9.3455,0.0,0.0,0.0,0.0,0.0,0.0,0.0,5.8727,5.9641,6.0419,6.2482,6.5121,6.8335,7.0703,7.2834,7.4796,7.4525,7.3713,7.2496,7.0331,6.8741,6.7929,6.7692,6.8741,7.1244,7.3477,7.5879,7.8382,8.0615,8.2069,8.2813,8.3558,8.393,8.3896,8.3152,8.2649,8.2033,7.7358,7.4086,7.1909,7.0368,6.9254,6.8199,0.0,0.0,0.0,0.0,0.0,0.0,0.0,0.0,0.0,0.0,0.0,0.0,0.0,0.0,0.0,0.0,0.0,0.0,0.0,0.0,0.0,0.0,0.0,0.0,0.0,0.0,0.0,0.0,0.0,0.0,0.0,0.0,0.0,0.0,8.4315,8.7325,8.8133,9.0372,9.1987,9.2244,9.2281,9.2831,9.4153,9.5547,9.7383,9.9805,10.0393,10.1604,10.3476,10.4577,10.5385,10.5972,10.678,10.711,10.6816,10.7881,10.8101,10.7697,10.8982,10.8909,10.7587,10.7587,10.6706,10.5091,10.4577,10.2008,9.8227,9.7163,9.6208,9.5474,9.5217,9.5107,9.5219,0.0,0.0,0.0,0.0,0.0,0.0,5.7881,5.9133,6.0385,6.1163,6.4512,6.7692,6.9992,7.3544,7.5811,7.5912,7.5811,7.483,7.2665,7.0364,6.8741,6.7963,6.8774,7.0601,7.3544,7.5879,7.8483,8.1393,8.3625,8.508,8.5824,8.6602,8.6941,8.7016,8.6196,8.6198,8.6414,8.3022,7.868,7.3889,7.3342,7.2232,7.0623,0.0,0.0,0.0,0.0,0.0,0.0,0.0,0.0,0.0,0.0,0.0,0.0,0.0,0.0,0.0,0.0,0.0,0.0,0.0,0.0,0.0,0.0,0.0,0.0,0.0,0.0,0.0,0.0,0.0,0.0,0.0,0.0,0.0,8.4682,8.7509,8.9895,9.0776,9.441,9.6575,9.5841,9.7163,9.8374,9.9218,10.0099,10.1604,10.399,10.41,10.5275,10.7661,10.7771,10.8505,11.0083,10.9312,10.9312,11.0083,11.0083,11.0083,11.0083,11.0891,11.0817,11.0083,11.0083,10.9166,10.7697,10.7661,10.6192,10.3696,10.0503,9.8741,9.7897,9.7126,9.6795,9.7098,0.0,0.0,0.0,0.0,0.0,0.0,5.7881,5.9133,6.0182,6.0419,6.4174,6.8098,7.1413,7.5134,7.8213,8.0378,7.8585,7.6623,7.4897,7.121,6.9011,6.8774,7.1041,7.3443,7.5912,7.9194,8.1832,8.3761,8.5452,8.6399,8.6602,8.7347,8.8272,8.9122,8.8504,8.9396,9.1104,8.8907,8.6219,8.2944,7.6919,7.5152,7.5657,0.0,0.0,0.0,0.0,0.0,0.0,0.0,0.0,0.0,0.0,0.0,0.0,0.0,0.0,0.0,0.0,0.0,0.0,0.0,0.0,0.0,0.0,0.0,0.0,0.0,0.0,0.0,0.0,0.0,0.0,0.0,8.6885,8.7692,8.6518,9.0152,9.3896,9.6465,9.8778,10.0576,10.1494,10.1494,10.2008,10.3329,10.4798,10.6376,10.8175,10.9386,11.0377,11.1074,11.1588,11.2176,11.2579,11.2396,11.2396,11.2579,11.2579,11.2579,11.2579,11.28,11.28,11.2506,11.1405,11.0597,11.012,10.8982,10.8101,10.711,10.388,10.1714,10.0393,9.9622,9.9721,10.0266,0.0,0.0,0.0,0.0,0.0,0.0,5.7881,5.9133,6.0317,6.0994,6.5527,6.9992,7.3409,7.713,7.9938,8.1359,7.8754,7.6115,7.4018,7.0872,6.9654,7.0872,7.3477,7.6251,7.916,8.2238,8.4573,8.6095,8.7583,8.8592,8.9141,8.9928,9.1088,9.2735,9.2305,9.319,9.4749,9.3178,9.2014,9.0671,8.3993,8.0891,7.9793,7.5508,7.5577,7.7458,7.3869,7.3297,7.397,7.2237,0.0,0.0,0.0,0.0,0.0,0.0,0.0,0.0,0.0,0.0,0.0,0.0,0.0,0.0,0.0,0.0,0.0,0.0,0.0,0.0,0.0,0.0,0.0,0.0,9.0445,9.2207,9.2978,9.5804,9.8521,10.0393,10.2889,10.4908,10.5899,10.6119,10.6816,10.8101,10.9386,11.0671,11.1919,11.2579,11.3093,11.3387,11.3497,11.3791,11.4084,11.4084,11.4305,11.4598,11.4598,11.4598,11.4598,11.4305,11.4084,11.4011,11.28,11.2212,11.2102,11.0817,11.027,0.0,0.0,0.0,0.0,0.0,10.3088,10.4078,0.0,0.0,0.0,0.0,0.0,0.0,5.8017,5.9201,6.0655,6.2178,6.7387,7.1988,7.4762,7.8348,8.0412,8.0107,7.7232,7.4322,7.1616,7.0195,7.0838,7.3849,7.6318,7.9329,8.2949,8.5429,8.7437,8.8897,9.0401,9.1755,9.293,9.3729,9.5117,9.7145,9.6951,9.7265,9.7868,9.6515,9.6507,9.6865,9.2671,8.8222,8.3698,8.0166,8.037,8.2128,7.8843,7.7746,7.755,7.5013,0.0,0.0,0.0,0.0,0.0,0.0,0.0,0.0,0.0,0.0,0.0,0.0,0.0,0.0,0.0,0.0,0.0,0.0,0.0,0.0,0.0,0.0,0.0,0.0,9.4042,9.764,10.1494,10.2999,10.3623,10.3513,10.6816,10.9092,10.9312,11.0707,11.1919,11.2616,11.3497,11.4305,11.5002,11.4488,0.0,0.0,0.0,11.4488,11.5185,11.5222,11.5589,11.6287,11.6287,11.6287,11.6213,11.5516,11.5185,11.5002,11.4338,11.397,11.375,11.3117,11.2753,11.2474,10.9341,10.7983,10.7696,10.6466,10.6904,10.8016,0.0,0.0,0.0,0.0,0.0,0.0,5.8693,5.9539,6.0655,6.2178,6.6,6.9248,7.1075,7.4052,7.6826,7.9126,7.6014,7.3409,7.2259,7.1921,7.3375,7.6961,8.0378,8.3693,8.6839,9.025,9.2609,9.4129,9.6205,9.738,9.7582,9.843,9.9554,10.0881,9.9831,10.0493,10.2521,10.0472,10.0028,10.0393,9.8174,9.4399,8.9642,8.4856,8.3955,8.4698,8.1798,8.1295,8.178,8.0586,7.9937,7.9247,7.7452,7.7362,0.0,0.0,0.0,0.0,0.0,0.0,0.0,0.0,0.0,0.0,0.0,0.0,0.0,0.0,0.0,0.0,0.0,0.0,0.0,9.4042,9.8337,10.2301,10.5091,10.7807,10.9312,10.8688,10.99,11.1221,11.2506,11.3497,11.4194,11.4305,11.5699,11.6617,11.6727,11.7204,11.7498,11.7718,11.7608,11.7498,11.7718,11.7718,11.7792,11.7902,11.7902,0.0,11.7902,11.7792,11.7314,11.6654,11.6677,11.6281,11.5694,11.5582,11.5194,11.428,11.1697,11.0299,10.9696,11.0113,11.0504,11.0587,0.0,0.0,0.0,0.0,0.0,0.0,5.8896,5.9641,6.0791,6.2719,6.6203,6.9079,7.0601,7.3071,7.4762,7.5168,7.2428,7.1176,7.2326,7.3443,7.6048,8.0547,8.3964,8.7375,9.0657,9.3995,9.6412,9.7745,9.9733,10.0942,10.17,10.213,10.3229,10.483,10.4091,10.449,10.5715,10.4568,10.407,10.3806,10.2595,10.0393,9.7232,9.1943,8.9971,8.9786,8.7551,8.6241,8.5446,8.4135,8.323,8.2461,8.1057,8.0568,8.014,0.0,0.0,0.0,0.0,0.0,0.0,0.0,0.0,0.0,0.0,0.0,0.0,0.0,0.0,8.7986,8.9234,0.0,9.5327,9.8557,10.2485,10.6009,10.8505,11.0891,11.1992,11.0707,11.1992,11.3497,11.4672,11.5516,11.6213,11.6617,11.7314,11.8012,11.8416,11.8783,11.9003,11.9003,11.9003,11.8783,11.8416,11.9187,11.9407,11.9003,12.0288,12.0739,12.04,12.04,12.0233,11.9818,11.9063,11.8468,11.8093,11.7416,11.6599,11.5712,11.4412,11.3213,11.2088,11.2462,11.2675,11.2733,0.0,0.0,0.0,0.0,0.0,0.0,5.9099,5.9844,6.1095,6.3226,6.6373,6.8842,6.9891,7.1853,7.2394,7.0601,6.9147,6.9688,7.2834,7.5134,7.8754,8.4133,8.7245,9.0632,9.4421,9.7349,9.964,10.1262,10.2988,10.443,10.5523,10.5523,10.638,10.8064,10.7881,10.7771,10.7771,10.7771,10.7477,10.678,10.5899,10.5201,10.41,9.9218,9.6502,9.4997,9.3235,9.0886,8.8466,8.6974,8.5736,8.4694,8.41,8.3402,8.27,8.1746,8.0901,0.0,0.0,0.0,0.0,0.0,0.0,0.0,0.0,8.5086,8.7031,8.8206,9.0225,9.2281,9.3969,9.6906,10.0099,10.3182,10.6302,10.9092,11.1295,11.291,11.3387,11.2102,11.3791,11.5406,11.6397,11.7314,11.8122,11.8599,11.8893,11.9297,11.9811,11.9884,11.9884,12.0104,12.0104,11.9811,11.9407,12.0691,12.1081,12.0592,12.2506,12.3229,12.2825,12.2713,12.2519,12.2245,12.0685,12.0131,12.0025,11.8699,11.7607,11.6782,11.68,11.5773,11.4412,11.4495,11.4484,11.4484,0.0,0.0,0.0,0.0,0.0,0.0,0.0,0.0,6.1738,6.3328,6.5019,6.5865,6.5392,6.6745,6.759,6.7354,6.891,7.1481,7.51,7.7468,8.1359,8.7245,9.0357,9.401,9.841,10.0694,10.3148,10.5945,10.8091,10.9233,10.9394,10.9394,10.9519,10.9679,10.8982,10.8688,10.8688,10.8688,10.8615,10.8505,10.7587,10.7294,10.6963,10.4798,10.1788,9.8264,9.5951,9.3051,9.0335,9.0081,8.8099,8.5783,8.6343,8.6045,8.5086,8.3581,8.2553,8.1562,7.9947,8.0094,8.0901,8.1636,8.3618,8.5747,0.0,8.883,9.0702,9.3015,9.4813,9.6502,9.8154,10.109,10.41,10.6596,10.9202,11.1405,11.3093,11.4084,11.4598,11.4415,11.5296,11.6507,11.8012,11.959,12.0214,11.948,12.0802,12.1389,12.0802,12.0802,12.1095,12.1793,12.1793,12.2086,12.271,12.2894,12.3395,12.4183,12.3737,12.3916,12.4706,12.4028,12.2746,12.1415,12.0621,12.0222,12.0333,12.0074,11.9122,11.77,11.7669,11.7093,11.6201,11.6215,11.6176,11.6099,0.0,0.0,0.0,0.0,0.0,0.0,0.0,0.0,6.1839,6.3328,6.441,6.4952,6.4647,6.4783,6.5222,6.6068,6.7421,7.0567,7.6048,7.9295,8.3693,8.9647,9.3577,9.7321,10.094,10.3535,10.6114,10.8601,10.9965,11.0707,11.0707,11.0707,11.0707,11.0707,11.0304,11.0193,11.0193,11.0193,11.0193,11.0193,10.979,10.9092,10.8101,10.6486,10.2779,9.8154,9.6208,9.3382,0.0,8.8426,8.7215,8.6554,8.6885,8.6151,8.4976,8.4315,8.2884,8.1452,8.1232,8.1782,8.27,8.3985,8.6444,8.9014,9.0665,9.2648,9.4703,9.6685,9.8741,10.0796,10.2999,10.5605,10.8101,11.0083,11.1992,11.3497,11.4194,11.4598,11.4598,11.4194,11.4782,11.6103,11.8195,11.948,12.0398,12.0985,12.1279,12.1683,12.2307,12.2307,12.2727,12.3615,12.4097,12.464,12.5029,12.5515,12.5457,12.4889,12.5527,12.546,12.5116,12.5278,12.4422,12.2918,12.2085,12.1513,12.0985,12.0485,11.96,11.8484,11.8023,11.7292,11.6484,11.6484,11.6484,11.6484,0.0,0.0,0.0,0.0,0.0,0.0,0.0,0.0,0.0,0.0,6.3971,6.4309,6.4309,6.4005,6.4241,6.529,6.6271,6.9519,7.5845,7.9735,8.4573,9.0729,9.5487,9.9453,10.2913,10.5625,10.8104,11.0304,11.0891,11.1221,11.1221,11.1221,11.1221,11.1221,11.1221,11.1221,11.1221,11.1221,11.1221,11.1221,11.1221,11.001,10.7881,10.5789,10.1494,9.6428,9.5254,9.217,8.828,8.6187,8.5416,8.5453,8.6151,8.5563,8.4572,8.4352,8.2884,8.1562,8.259,8.3765,8.5159,8.6995,8.9895,9.2758,9.4666,9.6795,9.8888,10.0723,10.2889,10.5091,10.7294,10.9312,11.1184,11.28,11.4011,11.4818,11.4818,11.4415,11.3791,11.2689,11.2689,11.3791,11.6213,11.8085,11.9884,12.1279,12.1279,12.1719,12.2894,12.3368,12.4099,12.5101,12.6,12.6649,12.704,12.7457,12.7189,12.6113,12.6989,12.6902,12.5937,12.5803,12.5165,12.3985,12.2985,12.1985,12.1177,12.0292,11.9485,11.8715,11.7792,11.71,11.6484,11.6484,11.6484,11.6484,0.0,0.0,0.0,0.0,0.0,0.0,0.0,0.0,0.0,0.0,6.3531,6.3531,6.3531,6.4174,6.458,6.4647,6.5967,6.9045,7.4322,7.8179,8.3253,8.9951,9.5212,10.0016,10.4437,10.6702,10.8903,11.1184,11.1221,11.1221,11.1221,11.1221,11.1221,11.1221,11.1221,11.1221,11.1221,11.1221,11.1221,11.1221,11.1221,10.9312,10.6082,10.2889,9.8154,9.3235,9.3198,8.905,8.3728,8.4425,8.3104,8.1599,8.3948,8.4646,8.4462,8.3691,8.2847,8.2517,8.4095,8.6261,8.8647,9.1033,9.4079,9.7126,9.9548,10.131,10.3219,10.5678,10.7477,10.9092,11.0817,11.1808,11.291,11.4488,11.4818,11.4818,11.4818,11.3497,11.1882,11.0304,10.8762,10.8799,11.1221,11.5699,11.8783,11.959,12.1169,12.2086,12.2086,12.3816,12.5101,12.5883,12.692,12.7796,12.8589,12.8702,12.865,12.8762,12.8,12.7696,12.7706,12.5283,12.4139,12.3985,12.2408,12.11,12.0292,11.9485,11.86,11.7792,11.6907,11.6484,11.6484,11.6484,11.6484,11.6484,0.0,0.0,0.0,0.0,0.0,0.0,0.0,0.0,0.0,0.0,0.0,0.0,0.0,0.0,0.0,0.0,6.5764,6.8064,7.2834,7.757,8.2069,8.6332,9.3764,9.8964,10.146,10.512,10.7827,10.9606,10.9606,10.99,11.0414,11.0414,11.0707,11.1221,11.1221,11.1221,11.1221,11.0597,11.0414,11.0193,10.8028,10.6192,10.4173,9.8778,9.3859,8.9491,0.0,8.3765,8.0791,7.9433,7.9176,7.9653,8.0975,8.1415,8.1342,8.1085,8.1966,8.3691,8.6921,8.9601,9.2427,9.6428,9.9071,10.131,10.3806,10.5201,10.6486,10.8395,10.7514,10.689,10.8505,10.8578,10.9092,11.1295,11.2983,11.4194,11.4708,11.3901,11.1772,10.8101,10.8505,10.8688,10.7294,11.1111,11.5621,12.022,12.1198,12.2546,12.4708,12.5411,12.6364,12.7893,12.7708,12.8432,12.9876,12.9264,12.8825,12.8202,12.6783,12.621,12.6217,12.4216,12.3601,12.3985,12.2293,12.1408,12.11,12.0216,11.9408,11.86,11.7715,11.6984,11.6484,11.6484,11.6484,11.6484,0.0,0.0,0.0,0.0,0.0,0.0,0.0,0.0,0.0,0.0,0.0,0.0,0.0,0.0,0.0,0.0,0.0,6.6981,7.0973,7.517,7.907,8.2614,8.9729,9.4381,9.6328,9.9851,10.2301,10.3586,10.3917,10.4504,10.5275,10.5495,10.6302,10.7294,10.7294,10.7514,10.7697,10.689,10.6192,10.5495,10.3109,10.0723,9.819,9.3161,8.872,0.0,8.1269,7.9176,7.7892,7.6864,7.7231,7.8222,7.8736,7.9103,7.9543,8.0388,8.2774,8.6004,9.0078,9.3565,9.7052,10.1017,10.3219,10.4981,10.7183,10.8101,10.8468,10.8688,10.7,10.5605,10.5789,10.5385,10.5789,10.7881,10.9606,11.1074,11.2506,11.1405,10.9632,10.7139,10.7656,10.7781,10.6581,10.8881,11.2901,11.8916,12.0228,12.209,12.5119,12.6199,12.7404,12.8901,12.8458,12.8975,13.0487,12.9294,12.8217,12.6986,12.5909,12.5216,12.4909,12.3793,12.3485,12.3601,12.2177,12.16,12.1485,12.0292,11.96,11.8985,11.7792,11.6984,11.6484,11.6484,11.6484,11.6484,0.0,0.0,0.0,0.0,0.0,0.0,0.0,0.0,0.0,0.0,0.0,0.0,0.0,0.0,0.0,0.0,0.0,0.0,6.8741,7.1301,7.4567,7.8866,8.3603,8.7213,8.9436,9.168,9.3235,9.4042,9.4813,9.5621,9.6392,9.7163,9.8337,9.9879,9.9879,10.0319,10.1017,10.0209,9.8961,9.7493,9.6539,9.3382,8.9014,8.6444,8.3141,7.9543,7.7047,7.5689,7.5249,7.6754,7.7304,7.7378,7.7378,7.8002,7.9213,8.1672,8.5233,8.9307,9.3455,9.808,10.2301,10.4724,10.6486,10.8101,10.9679,10.99,10.9166,10.678,10.6082,10.5201,10.2815,10.2529,10.3117,10.4807,10.5248,10.6397,10.8897,10.7206,10.6217,10.7703,10.6581,10.6631,10.8931,10.922,11.1164,11.5874,11.8482,12.1088,12.3718,12.6311,12.8124,12.8811,12.8969,12.9487,13.0294,12.8717,12.6986,12.5293,12.5293,12.4909,12.3985,12.3985,12.3601,12.2908,12.1985,12.16,12.1485,11.9792,11.91,11.8908,11.7176,11.6484,11.6484,11.6484,11.6529,11.649,0.0,0.0,0.0,0.0,0.0,0.0,0.0,0.0,0.0,0.0,0.0,0.0,0.0,0.0,0.0,0.0,0.0,0.0,6.6474,7.0408,7.3233,7.4325,8.0412,8.4259,8.5447,8.8107,8.9858,9.0665,9.0849,9.14,9.217,9.2391,9.3015,9.4042,9.4042,9.4483,9.5144,9.3712,9.3198,9.3088,8.9858,8.8206,8.7178,8.292,8.1048,8.0388,7.7892,7.6864,7.668,7.6497,7.7231,7.8259,7.8259,7.925,8.0975,8.3985,8.7766,9.2097,9.7346,10.142,10.4908,10.7991,10.9092,10.9496,10.99,10.8578,10.7,10.5715,10.2118,9.8961,9.8337,9.9205,10.1235,10.4653,10.8294,11.1793,11.4868,11.4268,11.3023,11.157,11.157,11.1214,11.0089,11.1599,11.3719,11.6181,11.8825,12.1872,12.5685,12.7205,12.7924,12.8116,12.7579,12.7409,12.7678,12.7178,12.5794,12.3485,12.4101,12.3985,12.3216,12.2485,12.2485,12.2908,12.1985,12.16,12.1485,11.9792,11.91,11.8908,11.7176,11.6484,11.6484,11.6484,11.6666,11.69,0.0,0.0,0.0,0.0,0.0,0.0,0.0,0.0,0.0,0.0,0.0,0.0,0.0,0.0,0.0,0.0,0.0,0.0,0.0,6.7914,7.0079,7.0895,7.5225,7.8273,7.9453,8.1044,8.2406,8.3581,8.3581,8.4168,8.5343,8.5343,8.5967,8.7105,8.7105,8.7545,8.8243,8.6958,8.6261,0.0,0.0,8.248,8.1966,7.9617,7.8993,7.9213,7.7818,7.7304,7.7414,7.8038,7.8883,7.9764,8.0498,8.2296,8.4866,8.8463,9.2391,9.6649,10.1604,10.5091,10.7807,11.001,11.0304,10.9679,10.8688,10.711,10.4908,10.1604,9.8903,9.6584,9.4411,9.6183,9.9028,10.2062,10.6105,11.0315,11.4393,11.4506,11.426,11.4436,11.4815,11.4671,11.3706,11.4811,11.6296,11.7987,11.9479,12.1823,12.5399,12.6294,12.7101,12.7909,12.6409,12.5409,12.4986,12.4986,12.4101,12.2293,12.3216,12.3101,12.2293,12.2216,12.2216,12.2293,12.1793,12.1408,12.0908,11.96,11.8908,11.8407,11.6984,11.662,11.671,11.671,11.6895,11.72,0.0,0.0,0.0,0.0,0.0,0.0,0.0,0.0,0.0,0.0,0.0,0.0,0.0,0.0,0.0,0.0,0.0,0.0,0.0,0.0,6.6869,6.8505,7.0141,7.1837,7.331,7.3465,7.4221,7.5616,7.5616,7.6387,7.7781,7.7781,7.8552,7.9874,7.9874,8.0314,8.1012,8.0314,7.9286,7.8112,7.8112,7.7304,7.6166,0.0,7.7231,7.7304,7.7304,7.7304,7.7708,8.0314,8.1305,8.1819,8.3618,8.6407,8.9821,9.3896,9.7787,10.1604,10.5605,10.8395,11.0304,11.1001,11.0377,10.8909,10.6706,10.5091,10.2412,9.6649,9.6323,9.5786,9.165,9.4024,9.7383,9.983,10.2758,10.6732,11.1902,11.2645,11.3721,11.6809,11.7094,11.7284,11.8092,11.81,11.8715,12.0216,12.0414,12.1495,12.3976,12.4793,12.5909,12.7294,12.5101,12.3601,12.2908,12.3024,12.2601,12.16,12.2485,12.2408,12.16,12.2408,12.2293,12.16,12.16,12.11,12.0216,11.9408,11.86,11.7677,11.6881,11.6711,11.6998,11.6987,11.7179,11.7506,0.0,0.0,0.0,0.0,0.0,0.0,0.0,0.0,0.0,0.0,0.0,0.0,0.0,0.0,0.0,0.0,0.0,0.0,0.0,0.0,0.0,6.8176,7.0089,7.1232,7.1567,7.229,7.2826,7.312,7.312,7.3266,7.356,7.356,7.3707,7.3964,7.3964,7.4404,7.5175,7.5028,7.5175,7.5542,7.5542,7.5763,7.613,7.624,7.6717,0.0,7.7304,7.7304,7.7781,8.0938,8.2884,8.4499,8.7435,9.0629,9.4042,9.808,10.12,10.399,10.7477,10.9679,11.1001,11.1221,10.9092,10.6706,10.5605,10.1604,9.764,9.5878,9.4081,9.2786,9.2625,9.4767,9.8534,10.4372,10.7504,11.1408,11.7894,11.8201,11.8518,12.0535,12.0113,11.9699,11.9908,11.9908,11.9985,12.0292,12.1006,12.2198,12.4024,12.4216,12.4486,12.4716,12.3716,12.3024,12.2908,12.3601,12.3101,12.16,12.2485,12.2408,12.16,12.1793,12.1677,12.16,12.16,12.11,12.0216,11.9408,11.86,11.7683,11.7098,11.6891,11.6993,11.7206,11.7508,11.782,0.0,0.0,0.0,0.0,0.0,0.0,0.0,0.0,0.0,0.0,6.1709,6.2448,0.0,0.0,0.0,0.0,0.0,0.0,0.0,0.0,0.0,6.6976,6.8324,6.9664,7.1059,7.1573,7.223,7.312,0.0,7.2716,7.312,7.2716,7.2496,7.2496,7.2496,7.2936,7.3707,7.3707,7.4147,7.4955,7.5359,7.5763,7.6166,7.657,7.6974,0.0,7.7304,7.7304,7.7818,8.1085,8.3544,8.593,9.0041,9.3859,9.7603,10.1604,10.421,10.6413,10.9312,11.0597,11.1111,11.0707,10.8101,10.5091,10.2595,9.8924,9.5364,9.2868,9.269,9.2774,9.1912,9.5009,9.8802,10.219,10.538,10.9598,11.5484,11.6792,11.81,12.06,12.0985,12.0985,12.0985,12.0985,12.0985,12.0985,12.1408,12.21,12.3408,12.3909,12.3716,12.2793,12.2908,12.2716,12.2216,12.2601,12.2408,12.16,12.1985,12.1985,12.16,12.16,12.1408,12.0908,12.0908,12.0216,11.8985,11.8674,11.8101,11.7407,11.7314,11.7323,11.7524,11.7603,11.7884,11.8102,0.0,0.0,0.0,0.0,0.0,0.0,0.0,5.5962,5.8083,6.0642,6.2164,6.2762,6.2482,6.2381,0.0,0.0,0.0,0.0,0.0,0.0,0.0,0.0,6.6692,6.8287,7.0734,0.0,0.0,7.345,7.2826,0.0,0.0,0.0,0.0,0.0,7.2679,7.312,7.3707,7.4074,7.4588,0.0,0.0,7.635,7.6423,0.0,0.0,0.0,0.0,7.7304,7.7781,8.0901,8.3324,8.582,9.0372,9.5034,9.9585,10.3219,10.5789,10.7881,11.0304,11.1111,11.1001,10.9973,10.7,10.3521,10.0078,9.7062,9.4079,9.1043,9.2244,9.3401,9.1873,9.503,9.8178,9.9364,10.2195,10.6213,11.1714,11.3907,11.6215,11.9408,12.0677,12.1293,12.11,12.1177,12.1293,12.1293,12.1485,12.1908,12.2601,12.3216,12.2985,12.16,12.2293,12.2293,12.16,12.16,12.1485,12.1293,12.1293,12.1177,12.11,12.11,12.0677,11.9985,11.9985,11.9229,11.7896,11.8099,11.78,11.7112,11.7419,11.7693,11.7906,11.8004,11.8102,11.8281,0.0,0.0,0.0,0.0,0.0,0.0,0.0,5.3646,5.5612,5.878,6.027,6.1457,6.2278,6.2381,0.0,0.0,0.0,0.0,0.0,0.0,0.0,0.0,0.0,0.0,0.0,0.0,0.0,7.2606,7.2532,0.0,0.0,0.0,0.0,0.0,0.0,7.3634,7.378,7.5249,0.0,0.0,0.0,0.0,0.0,0.0,0.0,0.0,0.0,7.7304,7.7708,8.0241,8.1746,8.3104,8.6518,9.2354,9.8484,10.109,10.41,10.7,10.9496,11.0597,11.0817,10.9312,10.5311,10.1513,10.0386,9.6511,9.3338,9.3614,9.3395,9.347,9.4604,9.4655,9.5971,10.039,10.1402,10.402,11.0714,11.3099,11.5099,11.7715,11.9408,12.01,11.9408,11.9985,12.0408,12.0408,12.1177,12.16,12.1677,12.1793,12.1793,12.16,12.1677,12.1677,12.16,12.16,12.1177,12.0408,12.0408,11.9985,11.9292,11.9292,11.9292,11.9215,11.9215,11.879,11.8207,11.8203,11.7918,11.738,11.7686,11.7884,11.7917,11.8193,11.8281,11.8281,0.0,0.0,0.0,0.0,0.0,0.0,0.0,5.3702,5.5779,5.8593,6.055,6.1795,6.2463,6.2133,6.1896,0.0,0.0,0.0,0.0,0.0,0.0,0.0,0.0,0.0,0.0,0.0,7.1031,7.2496,7.2496,0.0,0.0,0.0,0.0,0.0,0.0,7.3964,7.4515,7.5616,0.0,0.0,0.0,0.0,0.0,0.0,0.0,0.0,0.0,0.0,7.7561,7.9066,8.0094,8.0975,8.226,8.6297,9.1657,9.7016,10.131,10.4798,10.7771,10.9496,11.001,10.7881,10.399,10.0178,9.7875,9.5118,9.2965,9.2713,9.3558,9.4372,9.4528,9.501,9.591,9.7418,9.8017,9.9942,10.4713,10.679,10.9598,11.4214,11.6215,11.7792,11.8985,11.9408,11.96,11.96,11.9908,12.01,12.01,12.06,12.11,12.16,12.11,12.11,12.16,12.11,12.06,12.0292,11.9792,11.9408,11.91,11.91,11.8792,11.8292,11.8484,11.8099,11.7496,11.7878,11.7897,11.7686,11.7999,11.8107,11.8189,11.8319,11.8281,11.8281,0.0,0.0,0.0,0.0,0.0,0.0,5.1708,5.3249,5.5285,5.8173,5.9949,6.1386,6.2289,6.1896,6.1532,6.1593,0.0,0.0,0.0,0.0,0.0,0.0,0.0,0.0,0.0,0.0,7.0243,7.2165,7.2386,7.2496,0.0,0.0,7.2496,7.2532,0.0,0.0,0.0,0.0,0.0,0.0,0.0,0.0,0.0,0.0,0.0,0.0,0.0,0.0,0.0,0.0,0.0,7.9066,7.9066,8.1342,8.5343,9.217,9.7383,10.1714,10.5201,10.7294,10.7991,10.5789,10.2837,9.9461,9.6468,9.4681,9.3518,9.3144,9.4212,9.5096,9.4817,9.5407,9.5862,9.5576,9.5981,9.7403,10.0519,10.2712,10.5597,11.0291,11.2599,11.4714,11.6984,11.81,11.8715,11.8715,11.8985,11.8985,11.8715,11.9292,11.9985,12.0793,12.0292,12.0216,12.0908,12.0292,11.9792,11.96,11.8985,11.86,11.8292,11.8292,11.8074,11.7591,11.7826,11.7593,11.731,11.7709,11.7878,11.7999,11.8198,11.8281,11.8281,11.8281,11.8281,11.8281,0.0,0.0,0.0,0.0,0.0,0.0,0.0,5.1798,5.3451,5.6712,5.8085,5.9548,6.1488,6.1475,6.1603,6.2313,0.0,0.0,0.0,0.0,0.0,0.0,0.0,0.0,0.0,0.0,6.9519,7.1321,7.2129,7.2496,7.2496,7.2496,7.2496,7.2532,0.0,0.0,0.0,0.0,0.0,0.0,0.0,0.0,7.7304,0.0,0.0,0.0,0.0,0.0,0.0,0.0,0.0,0.0,0.0,7.8479,8.0975,8.6628,9.2317,9.764,10.1714,10.3917,10.4798,10.3109,10.1497,9.9568,9.7057,9.5793,9.5363,9.6098,9.57,9.5407,9.6136,9.57,9.5446,9.6174,9.6288,9.7173,9.975,10.2289,10.4482,10.629,10.8713,11.0906,11.2599,11.5792,11.7792,11.7792,11.86,11.8715,11.7907,11.7792,11.8215,11.91,11.91,11.91,11.91,11.91,11.8715,11.7792,11.7792,11.7407,11.6484,11.6484,11.6668,11.6998,11.6998,11.7284,11.7895,11.7895,11.8084,11.8281,11.8281,11.8281,11.8281,11.8281,11.8281,11.8281,0.0,0.0,0.0,0.0,0.0,0.0,0.0,5.0152,5.1596,5.3451,5.4835,5.6213,5.7674,5.7914,5.8707,6.0322,0.0,0.0,0.0,0.0,0.0,0.0,0.0,0.0,0.0,0.0,0.0,0.0,0.0,7.3303,7.3303,7.3303,7.3303,7.334,7.4147,7.4661,0.0,0.0,0.0,0.0,0.0,7.7304,7.7304,0.0,0.0,0.0,0.0,0.0,0.0,0.0,0.0,0.0,0.0,0.0,0.0,8.3398,8.85,9.4006,9.6979,9.9769,10.142,9.9805,9.8201,9.651,9.4578,9.4317,9.4528,9.4768,9.5407,9.602,9.6251,9.6098,9.602,9.6251,9.6288,9.6596,9.7403,9.9712,10.2597,10.602,11.1214,11.4676,11.5215,11.6292,11.6907,11.6907,11.7176,11.7176,11.6907,11.6907,11.76,11.91,11.8484,11.8484,11.91,11.8484,11.81,11.7792,11.7215,11.6792,11.6484,11.6711,11.6898,11.6993,11.738,11.7709,11.7906,11.8097,11.8198,11.8281,11.8281,11.8281,11.8281,11.8281,11.8281,11.8281,0.0,0.0,0.0,0.0,0.0,0.0,0.0,4.8985,5.0062,5.1618,5.2687,5.4046,5.5845,5.6257,5.7228,5.94,0.0,0.0,0.0,0.0,0.0,0.0,0.0,0.0,0.0,0.0,0.0,0.0,0.0,0.0,0.0,0.0,7.4001,7.3707,7.4221,7.4625,0.0,0.0,0.0,0.0,7.7304,7.7304,7.7304,0.0,0.0,0.0,0.0,0.0,0.0,0.0,0.0,0.0,0.0,0.0,0.0,0.0,8.5233,8.9748,9.2831,9.5804,9.7827,9.7138,9.6428,9.5551,9.4207,9.4198,9.4579,9.4866,9.5407,9.5981,9.6251,9.6288,9.6288,9.6288,9.6288,9.6288,9.6288,9.8211,10.1096,10.4982,11.0598,11.4099,11.4099,11.4984,11.5676,11.5984,11.5715,11.5676,11.5984,11.5715,11.6099,11.71,11.7292,11.76,11.81,11.76,11.7215,11.6907,11.6292,11.6115,11.6207,11.6085,11.65,11.7309,11.7023,11.7302,0.0,11.7888,11.8008,11.8281,11.8281,11.8281,11.8281,11.8281,11.8281,11.8281,0.0,0.0,0.0,0.0,0.0,0.0,0.0,0.0,0.0,0.0,5.1513,5.2781,5.5442,5.5963,5.6981,0.0,0.0,0.0,0.0,0.0,0.0,0.0,0.0,0.0,0.0,0.0,0.0,0.0,7.1492,7.3207,7.4918,0.0,0.0,7.378,7.378,7.4221,0.0,0.0,0.0,0.0,7.7304,7.7304,0.0,0.0,0.0,0.0,0.0,0.0,0.0,0.0,0.0,0.0,0.0,0.0,0.0,0.0,0.0,0.0,0.0,9.1987,9.4044,9.4778,9.552,9.5875,9.5132,9.5058,0.0,9.6098,9.57,9.549,9.6174,9.6288,9.6288,9.6288,9.6288,9.6288,9.6288,9.7942,10.0404,10.3789,10.779,11.0406,11.0406,11.2599,11.4291,11.5099,11.4484,11.4407,11.5176,11.4407,11.3984,11.3984,11.5484,11.6292,11.6292,11.6292,11.5907,11.5176,11.5182,11.5397,11.5604,11.4817,11.5676,11.7583,11.5994,11.6405,11.8086,11.7187,11.7383,11.8086,11.8086,11.8086,11.8086,11.8203,11.8203,11.8086,0.0,0.0,0.0,0.0,0.0,0.0,0.0,0.0,0.0,0.0,5.0276,5.1091,5.2208,5.3939,5.5422,0.0,0.0,0.0,0.0,0.0,0.0,0.0,0.0,0.0,0.0,0.0,0.0,6.8026,7.0907,7.327,7.4918,7.5542,0.0,0.0,0.0,0.0,0.0,0.0,0.0,0.0,7.7304,7.7304,0.0,0.0,0.0,0.0,7.7304,7.7745,0.0,0.0,0.0,0.0,0.0,0.0,0.0,0.0,8.2774,8.4022,8.56,0.0,8.9819,9.0619,9.1417,9.2084,0.0,9.3445,9.4579,9.5318,9.5741,9.6098,9.6251,9.6288,9.6288,9.6288,9.6288,9.6288,9.6288,9.9981,10.3712,10.6482,10.9906,11.2099,11.2099,11.3291,11.4099,11.4291,11.4099,11.4099,11.4291,11.4099,11.3984,11.3984,11.4407,11.4599,11.4599,11.4599,11.4484,11.4291,11.4511,11.4577,11.4674,11.5012,11.54,11.5905,11.572,11.5896,11.6289,11.6093,11.6093,11.6289,11.6289,11.6289,11.6484,11.7109,11.6914,11.6484,0.0,0.0,0.0,0.0,0.0,0.0,0.0,0.0,0.0,0.0,0.0,0.0,0.0,0.0,0.0,0.0,0.0,0.0,0.0,0.0,0.0,0.0,0.0,0.0,0.0,0.0,0.0,0.0,0.0,7.2437,0.0,0.0,0.0,0.0,0.0,0.0,0.0,0.0,7.6974,7.7304,7.7304,0.0,0.0,0.0,0.0,0.0,7.7304,7.7598,0.0,7.8883,7.9727,8.0571,0.0,0.0,0.0,0.0,8.2517,8.3104,8.4278,8.6077,8.7982,8.9529,9.0483,9.1416,9.254,9.3483,9.4319,9.5048,9.5533,9.5902,9.6251,9.6288,9.6288,9.6288,9.6288,9.6557,9.7326,10.0789,10.4097,10.629,10.9098,11.0983,11.0983,11.1406,11.1791,11.2214,11.1906,11.1791,11.2214,11.1906,11.1714,11.1714,11.1714,11.2406,11.3984,11.3599,11.3304,11.3005,11.2797,11.3,11.3584,11.3591,11.4296,11.5396,11.4802,11.5,11.5703,11.5312,11.539,11.5703,11.5703,11.5703,11.5781,11.6211,11.6089,11.5602,0.0,0.0,0.0,0.0,0.0,0.0,0.0,0.0,0.0,0.0,0.0,0.0,0.0,0.0,0.0,0.0,0.0,0.0,0.0,0.0,0.0,0.0,0.0,0.0,0.0,0.0,0.0,0.0,0.0,0.0,0.0,0.0,7.5799,0.0,0.0,0.0,0.0,0.0,7.657,7.7304,7.7304,0.0,0.0,0.0,0.0,0.0,0.0,0.0,0.0,7.914,7.9764,8.0204,8.1599,0.0,0.0,0.0,0.0,0.0,8.4168,8.5631,8.7298,8.9581,9.0749,9.1783,9.335,9.3822,9.4157,9.501,9.5189,9.5407,9.6136,9.6288,9.6288,9.6288,9.6288,9.6903,9.8557,10.0789,10.2789,10.4482,10.679,10.8406,10.8482,10.8482,10.8906,10.9906,10.9213,10.9098,10.9983,10.929,10.8906,10.8906,10.8906,11.0294,11.3304,11.2495,11.2002,11.1505,11.0778,11.1211,11.2315,11.171,11.2702,11.4804,11.3593,0.0,11.5117,11.4414,11.4492,11.5195,11.5117,11.5,11.4883,11.5194,11.5011,11.4695,0.0,0.0,0.0,0.0,0.0,0.0,0.0,0.0,0.0,0.0,0.0,0.0,0.0,0.0,0.0,0.0,0.0,0.0,0.0,0.0,0.0,0.0,0.0,6.2685,6.3328,0.0,0.0,0.0,0.0,0.0,7.3724,7.6053,7.635,0.0,0.0,0.0,0.0,7.5763,7.657,7.7304,7.7304,0.0,0.0,0.0,0.0,0.0,0.0,0.0,0.0,7.8699,7.969,8.0865,8.1122,0.0,0.0,0.0,0.0,0.0,8.4168,8.517,8.6276,8.8072,8.915,9.0131,9.1721,9.2617,9.3567,9.4915,9.5189,9.5407,9.6136,9.6288,9.6288,9.6288,9.6288,9.6903,9.8557,9.975,10.1096,10.2789,10.4597,10.5982,10.6713,10.679,10.7405,10.8983,10.829,10.8213,10.9098,10.8983,10.8906,10.8906,10.8906,10.9301,10.9974,10.9896,10.9775,10.9717,11.0109,11.0395,11.0598,11.0686,11.1014,11.1406,0.0,11.2187,11.25,11.2383,11.2383,11.2383,11.1718,11.1406,11.1484,11.2689,11.2686,11.2097,0.0,0.0,0.0,0.0,0.0,0.0,0.0,0.0,0.0,0.0,0.0,0.0,0.0,0.0,0.0,0.0,0.0,0.0,0.0,0.0,0.0,0.0,6.2415,6.2753,6.3497,6.3903,0.0,0.0,0.0,7.096,7.2572,7.4312,7.5114,7.4882,0.0,0.0,0.0,7.5763,7.657,7.7304,0.0,0.0,0.0,0.0,0.0,0.0,0.0,0.0,0.0,0.0,7.9103,7.9837,8.0718,0.0,0.0,0.0,0.0,0.0,8.4168,8.4866,8.5778,8.8729,8.9979,9.1012,9.2667,9.3634,9.4372,9.5048,9.5533,9.5902,9.6251,9.6288,9.6288,9.6288,9.6288,9.6903,9.8557,9.9558,10.0712,10.2404,10.3712,10.4597,10.4982,10.502,10.5482,10.679,10.6482,10.6713,10.7521,10.7521,10.7521,10.7521,10.7721,10.7818,10.7897,10.8203,10.859,10.9096,10.8887,10.9113,10.9705,10.9802,11.0195,11.0586,0.0,11.1211,11.1211,11.1211,11.1211,11.1211,11.0781,11.0503,11.0502,11.1294,11.1622,11.171,0.0,0.0,0.0,0.0,0.0,0.0,0.0,0.0,0.0,0.0,0.0,0.0,0.0,0.0,0.0,0.0,0.0,0.0,0.0,0.0,6.1434,6.2922,6.2618,6.2888,6.4005,6.458,6.5595,6.7083,6.8979,7.0694,7.23,7.3226,7.3986,0.0,0.0,0.0,7.4955,7.5763,7.657,7.7304,0.0,0.0,0.0,0.0,0.0,0.0,0.0,0.0,0.0,0.0,0.0,0.0,0.0,0.0,0.0,8.1966,8.2186,8.2517,8.3948,8.4559,8.566,8.9324,9.0788,9.1808,9.367,9.4528,9.4963,9.5142,9.5657,9.6098,9.6251,9.6288,9.6288,9.6288,9.6288,9.6826,9.8288,9.925,10.0289,10.1789,10.2789,10.3405,10.3597,10.3405,10.3712,10.4713,10.4789,10.5213,10.602,10.629,10.6407,10.6488,10.6697,10.6902,10.699,10.7387,10.7905,10.8607,10.8011,10.8216,10.8984,10.8984,10.9414,11.0,11.0195,11.0312,11.0312,11.0312,11.0311,11.0189,10.9993,10.9902,11.0005,11.0224,11.0892,11.1799,0.0,0.0,0.0,0.0,0.0,0.0,0.0,0.0,0.0,0.0,0.0,0.0,0.0,0.0,0.0,0.0,0.0,0.0,0.0,0.0,5.9877,6.14,6.2042,6.3362,6.5493,6.5561,6.6339,6.7827,7.0333,7.238,7.4163,7.4402,7.4163,7.3573,0.0,7.4845,7.4955,7.5763,7.657,7.7304,7.7304,0.0,0.0,0.0,0.0,0.0,0.0,0.0,0.0,0.0,0.0,0.0,0.0,0.0,8.1158,8.1966,8.2186,8.237,8.3251,8.4458,8.6147,8.8703,8.9957,9.1171,9.3558,9.4157,9.4372,9.5048,9.5234,9.549,9.6174,9.6288,9.6288,9.6288,9.6288,9.6596,9.748,9.8327,9.925,10.0173,10.0981,10.1789,10.2597,10.202,10.2212,10.3905,10.3982,10.4289,10.5174,10.602,10.6526,10.6789,10.6782,10.6989,10.752,10.7582,10.7593,10.771,10.7917,10.8007,10.8086,10.8086,10.8086,10.8203,10.8984,10.9414,10.9414,10.9414,10.9206,10.89,10.8119,10.8511,10.9392,10.9407,11.0298,11.1487,0.0,0.0,0.0,0.0,0.0,0.0,0.0,0.0,0.0,0.0,0.0,0.0,0.0,0.0,0.0,0.0,0.0,0.0,0.0,0.0,5.9911,6.1907,6.1806,6.2753,6.4952,6.6339,6.7793,6.9316,7.0735,7.1847,7.2713,7.2897,0.0,0.0,7.4482,7.5175,7.5689,7.6497,7.7047,7.7304,7.7304,7.7304,0.0,0.0,0.0,0.0,0.0,0.0,0.0,0.0,7.7524,7.7965,7.8772,7.9617,8.0388,8.1232,8.1819,8.237,8.3177,8.4484,8.6058,8.8093,8.9868,9.1808,9.425,9.4768,9.4963,9.5741,9.5862,9.5981,9.6251,9.6288,9.6288,9.6288,9.6288,9.6596,9.7403,9.825,9.9096,9.9981,10.0789,10.1404,10.1789,10.152,10.1789,10.2981,10.3597,10.4289,10.5097,10.6099,10.673,10.6812,10.7083,10.7387,10.7593,10.7814,10.7796,10.78,10.8007,10.8008,10.8008,10.8008,10.8008,10.8008,10.8281,10.8515,10.8515,10.8299,10.8488,10.8781,10.8201,10.8194,10.8601,10.8874,10.9685,11.0791,0.0,0.0,0.0,0.0,0.0,0.0,0.0,0.0,0.0,0.0,0.0,0.0,0.0,0.0,0.0,0.0,0.0,0.0,0.0,5.7842,5.9102,6.1231,6.1061,6.1975,6.4208,6.6203,6.8064,6.9857,7.0601,7.1076,7.1228,7.1721,7.2299,7.3105,7.4577,7.5579,7.6166,7.6974,7.7304,7.7304,7.7304,7.7304,0.0,0.0,0.0,0.0,0.0,0.0,0.0,0.0,7.7304,7.7451,7.8332,7.8993,7.958,8.0388,8.135,8.2239,8.2792,8.4262,8.6042,8.7939,8.9874,9.1973,9.4582,9.5189,9.5407,9.6136,9.6288,9.6288,9.6288,9.6288,9.6288,9.6288,9.6288,9.648,9.7057,9.7865,9.8711,9.9596,10.0404,10.1019,10.1289,10.1289,10.152,10.2097,10.2981,10.3791,10.4405,10.5686,10.6505,10.66,10.7309,10.7612,10.7684,10.7884,10.8008,10.8008,10.8008,10.8008,10.8008,10.8008,10.8008,10.8008,10.8008,10.8007,10.7917,10.7708,10.7886,10.8199,10.7687,10.7899,10.8405,10.8798,10.9598,11.0714,0.0,0.0,0.0,0.0,0.0,0.0,0.0,0.0,0.0,0.0,0.0,0.0,0.0,0.0,0.0,0.0,0.0,0.0,5.4505,5.5618,5.7033,5.889,5.9708,6.1163,6.3463,6.4918,6.6812,6.9079,6.9823,7.0161,7.0216,7.1412,7.2009,7.2117,7.4869,7.6093,7.6166,7.6974,7.7304,7.7304,7.7304,7.7304,7.7304,0.0,0.0,0.0,0.0,0.0,0.0,0.0,7.7304,7.7451,7.8332,7.8589,7.8772,7.9543,8.0859,8.1997,8.1997,8.3785,8.6159,8.8458,8.9817,9.135,9.4448,9.5189,9.5407,9.6136,9.6288,9.6288,9.6288,9.6288,9.6288,9.6288,9.6288,9.6288,9.6288,9.698,9.7827,9.8673,9.9558,10.0404,10.1212,10.1289,10.1289,10.1289,10.2097,10.2709,10.2987,10.4605,10.5692,10.6294,10.7085,10.7691,10.8008,10.8008,10.8008,10.8008,10.8008,10.8008,10.8008,10.8008,10.8008,10.8008,10.8008,10.7796,10.7593,10.7593,10.7285,10.6789,10.6488,10.7405,10.8906,10.8906,11.0021,11.1522,0.0,0.0,0.0,0.0,0.0,0.0,0.0,0.0,0.0,0.0,0.0,0.0,0.0,0.0,0.0,0.0,0.0,0.0,5.4172,5.5474,5.6723,5.783,5.9295,6.0689,6.1941,6.441,6.6542,6.8267,6.9045,6.8876,6.7827,6.9451,7.0461,7.1175,7.3826,7.5393,7.5901,7.6909,7.7304,7.7304,7.7304,7.7304,7.7304,0.0,0.0,0.0,0.0,0.0,0.0,0.0,0.0,0.0,7.7598,7.8112,7.8662,7.8883,8.0062,8.1317,8.1317,8.3748,8.653,8.7342,8.9808,9.2353,9.3923,9.4731,9.5407,9.6136,9.6288,9.6288,9.6288,9.6288,9.6288,9.6288,9.6288,9.6288,9.6288,9.698,9.7596,9.7865,9.9211,10.0173,10.0404,10.1019,10.1289,10.1289,10.2315,10.2895,10.3017,10.4404,10.5623,10.6305,10.6688,10.73,10.8008,10.8008,10.8008,10.8008,10.8008,10.8008,10.8008,10.7383,10.7383,10.8007,10.7201,10.7122,10.761,10.7887,10.7385,10.6603,10.71,10.7598,10.8098,10.8713,10.9598,11.0714,0.0,0.0,0.0,0.0,0.0,0.0,0.0,0.0,0.0,0.0,5.0331,5.093,0.0,0.0,0.0,0.0,0.0,0.0,0.0,0.0,5.6137,5.7324,5.884,6.0317,6.1704,6.4343,6.5831,6.617,6.7218,6.7421,6.6812,6.8613,6.9817,7.0739,7.329,7.4762,7.5192,7.5823,7.633,7.6692,7.6692,7.6956,7.7304,0.0,0.0,0.0,0.0,0.0,0.0,0.0,0.0,0.0,7.7304,7.7671,7.8075,7.8075,7.9462,8.0997,8.1292,8.3938,8.6971,8.8376,9.0673,9.3028,9.4505,9.5236,9.5741,9.6213,9.6288,9.6288,9.6288,9.6288,9.6288,9.6288,9.6288,9.6288,9.6288,9.6711,9.7134,9.7442,9.8442,9.9327,9.9981,10.0481,10.0981,10.1395,10.209,10.2589,10.2784,10.3893,10.488,10.5393,10.6285,10.6992,10.75,10.7812,10.8008,10.8008,10.7617,10.75,10.75,10.6914,10.7187,10.789,10.7007,10.6903,10.7286,10.7424,10.6988,10.6521,10.7405,10.7905,10.829,10.9098,10.9983,11.0791,0.0,0.0,0.0,0.0,0.0,0.0,0.0,0.0,0.0,0.0,5.0122,5.0391,0.0,0.0,0.0,0.0,0.0,0.0,0.0,0.0,5.5407,5.7164,5.8562,6.0351,6.255,6.4546,6.4952,6.3599,6.4952,6.5933,6.6643,6.8429,6.9703,7.0534,7.3027,7.4158,7.4158,7.4234,7.4903,7.5787,7.5718,7.633,7.7304,7.7181,0.0,0.0,0.0,0.0,0.0,0.0,0.0,0.0,7.7304,7.7304,7.7304,7.7304,7.8951,8.0898,8.166,8.4213,8.7348,9.0548,9.2182,9.3621,9.579,9.6288,9.6288,9.6288,9.6288,9.6288,9.6288,9.6288,9.6288,9.6288,9.6288,9.6288,9.6288,9.6288,9.6557,9.7288,9.7442,9.8134,9.9712,9.9981,10.0511,10.1516,10.1691,10.2,10.2509,10.3309,10.3909,10.4219,10.5703,10.6484,10.6601,10.7383,10.7812,10.7812,10.6992,10.6601,10.6601,10.6484,10.6914,10.7611,10.7176,10.69,10.6602,10.6488,10.6405,10.6597,10.7405,10.8213,10.9098,10.9906,11.0791,11.1522,0.0,0.0,0.0,0.0,0.0,0.0,0.0,0.0,0.0,0.0,0.0,0.0,0.0,0.0,0.0,0.0,0.0,0.0,0.0,0.0,5.5076,5.6034,5.9685,6.2448,6.4072,6.458,6.4681,6.4377,6.4681,6.4918,6.5121,6.6656,6.8064,6.951,7.1974,7.309,7.3171,7.3928,7.4903,7.5718,7.4903,7.5685,7.7243,7.6396,7.6628,0.0,0.0,0.0,0.0,0.0,0.0,0.0,7.7304,7.7304,7.7304,7.7304,7.8603,8.0161,8.0971,8.3919,8.7336,8.9982,9.3098,9.5675,9.6174,9.6288,9.6288,9.6288,9.6288,9.6288,9.6288,9.6288,9.6288,9.6288,9.6288,9.6288,9.6288,9.6288,9.6365,9.6557,9.7134,9.7634,9.8019,9.9288,10.0319,10.0703,10.1502,10.2205,10.2509,10.2905,10.3396,10.4219,10.4492,10.5117,10.5781,10.5898,10.6015,10.6015,10.5781,10.5781,10.5703,10.5,10.4612,10.4377,10.5371,10.5712,10.5486,10.6099,10.679,10.7405,10.7598,10.8598,10.9906,11.0098,11.0791,11.1522,0.0,0.0,0.0,0.0,0.0,0.0,0.0,0.0,0.0,0.0,0.0,0.0,0.0,0.0,0.0,0.0,0.0,0.0,0.0,0.0,0.0,5.7705,6.1421,6.3632,6.4072,6.4783,6.4952,6.4613,6.4613,6.4783,6.5155,6.6643,6.7963,6.918,7.1181,7.185,7.1628,7.2527,7.3203,7.3779,7.3632,7.4757,7.6563,7.6027,7.6396,7.7304,7.7304,0.0,0.0,0.0,0.0,0.0,0.0,0.0,7.7304,7.7304,7.8479,7.9984,8.0791,8.3552,8.705,9.0624,9.3927,9.6288,9.6288,9.6288,9.6288,9.6288,9.6288,9.6288,9.6288,9.6288,9.6288,9.6288,9.6288,9.6288,9.6288,9.6288,9.6288,9.6288,9.6673,9.7096,9.7442,9.8468,9.946,10.0507,10.1291,10.1996,10.2705,10.2808,10.3086,10.3594,10.3984,10.4414,10.4883,10.5312,10.5508,10.5508,10.5117,10.4607,10.412,10.4511,10.4115,10.3327,10.4809,10.531,10.5213,10.602,10.6905,10.7713,10.8098,10.9098,11.0291,11.1098,11.1406,11.1598,0.0,0.0,0.0,0.0,0.0,0.0,0.0,0.0,0.0,0.0,0.0,0.0,0.0,0.0,0.0,0.0,0.0,0.0,0.0,0.0,0.0,6.0001,6.3045,6.4377,6.3903,6.5189,6.5595,6.4986,6.4986,6.5358,6.6102,6.7184,6.8132,6.8944,7.0331,7.0601,7.0026,7.0669,7.1165,7.155,7.2009,7.3533,7.5606,7.5433,7.6155,7.7304,7.7304,7.7304,7.7304,7.7304,0.0,0.0,0.0,0.0,7.7304,7.7304,7.8405,7.98,8.0755,8.3571,8.7285,9.1591,9.4251,9.5942,9.6249,9.6057,9.5903,9.6057,9.6211,9.6288,9.6288,9.6288,9.6288,9.6288,9.6288,9.6288,9.6288,9.6288,9.6288,9.6288,9.6288,9.6594,9.7283,9.7658,9.8608,10.0297,10.0892,10.1593,10.2382,10.2695,10.2812,10.2695,10.3515,10.3984,10.3984,10.4687,10.5117,10.5,10.4296,10.3413,10.2476,10.3895,10.388,10.2901,10.4505,10.509,10.4982,10.602,10.7021,10.7982,10.8598,10.9598,11.0791,11.2022,11.2214,11.1791,0.0,0.0,0.0,0.0,0.0,0.0,0.0,0.0,0.0,0.0,4.7519,4.7818,0.0,0.0,0.0,0.0,0.0,0.0,5.1229,0.0,0.0,6.0423,6.3146,6.485,6.5392,6.6237,6.6609,6.6508,6.6508,6.688,6.759,6.7151,6.7354,6.8098,6.8977,6.935,6.9248,6.935,6.9935,7.0718,6.9935,7.1682,7.4709,7.3904,7.5141,7.7304,7.7304,7.7304,7.7304,7.7304,7.7304,0.0,0.0,0.0,7.7304,7.7304,7.8002,7.9103,8.0608,8.477,8.9339,9.1873,9.329,9.4441,9.598,9.5134,9.4249,9.5018,9.5788,9.6288,9.6288,9.6288,9.6288,9.6288,9.6288,9.6288,9.6288,9.6288,9.6288,9.6288,9.6288,9.6394,9.6667,9.7451,9.8202,9.8927,10.0402,10.1007,10.0703,10.2109,10.2617,10.1797,10.2617,10.3086,10.3086,10.3203,10.3203,10.3203,10.2894,10.2515,10.2187,10.2187,10.2096,10.1981,10.3514,10.4099,10.4212,10.579,10.729,10.879,10.8906,11.0291,11.2291,11.1791,11.2022,11.2522,0.0,0.0,0.0,0.0,0.0,0.0,0.0,0.0,0.0,0.0,0.0,4.7698,0.0,0.0,0.0,5.069,5.105,5.163,5.2673,5.5003,5.7444,5.9876,6.1916,6.3667,6.5053,6.5797,6.6406,6.6812,6.6812,6.7184,6.7895,6.7557,6.8064,6.9214,6.9992,6.9891,6.9113,6.9553,6.9492,6.913,6.9049,7.0995,7.3762,7.2902,7.45,0.0,7.679,7.6937,7.7304,7.7304,7.7304,7.7304,7.7304,0.0,0.0,0.0,7.7928,7.9154,8.1538,8.4947,8.8329,9.0593,9.245,9.3903,9.4672,9.4249,9.3787,9.4172,9.4595,9.498,9.548,9.598,9.6288,9.6288,9.6288,9.6288,9.6288,9.6288,9.6288,9.6288,9.642,9.6529,9.6588,9.7242,9.791,9.8656,9.9491,10.0108,10.0312,10.1015,10.1289,10.0898,10.1719,10.2187,10.2187,10.2695,10.289,10.289,10.2002,10.1711,10.209,10.168,10.1697,10.2202,10.2905,10.3712,10.4597,10.5405,10.6905,10.8906,10.8906,11.0214,11.2022,11.2099,11.2099,11.2022,0.0,0.0,0.0,0.0,0.0,0.0,0.0,0.0,0.0,0.0,0.0,0.0,0.0,0.0,0.0,0.0,5.102,5.1904,5.3592,5.5132,5.6832,5.8799,6.0693,6.2363,6.3833,6.4855,6.5696,6.6237,6.644,6.6981,6.7895,6.8098,6.9011,7.0466,7.0669,7.0128,6.9113,6.9451,6.8944,6.7963,6.888,7.0718,7.2897,7.2726,7.4632,0.0,0.0,7.679,7.7304,7.7304,7.7304,7.7304,7.7304,7.7304,0.0,0.0,0.0,7.9142,8.1603,8.4026,8.638,8.8607,9.0834,9.2641,9.3251,9.321,9.3133,9.3364,9.3403,9.3595,9.4249,9.5249,9.6057,9.6249,9.6288,9.6288,9.6288,9.6288,9.6325,9.639,9.6529,9.6669,9.6804,9.7145,9.7698,9.8385,9.878,9.9179,9.9609,10.0117,10.0195,9.9961,10.0781,10.1289,10.1289,10.1914,10.2186,10.2103,10.1203,10.1097,10.1712,10.1418,10.1789,10.2597,10.2597,10.3289,10.4482,10.4905,10.6405,10.829,10.8713,10.9983,11.1598,11.2214,11.2099,11.1906,0.0,0.0,0.0,0.0,0.0,0.0,0.0,0.0,0.0,0.0,0.0,0.0,0.0,0.0,4.9284,4.9344,5.0511,5.1768,5.3121,5.4939,5.6341,5.7088,6.0081,0.0,6.1877,6.3717,6.4681,6.4715,6.5392,6.6474,6.7929,6.8673,6.9823,7.121,6.9823,6.918,6.9045,6.8335,6.7963,6.798,6.9026,7.0511,7.2297,7.3967,7.5705,0.0,0.0,0.0,0.0,0.0,7.7304,7.7304,7.7304,7.7304,7.7304,0.0,0.0,0.0,7.9484,8.1512,8.3913,8.6127,8.7951,8.9756,9.2025,9.1902,9.1556,9.2402,9.2556,9.2595,9.2633,9.398,9.5326,9.6172,9.6288,9.6288,9.6288,9.6288,9.639,9.6542,9.6588,9.6804,9.7327,9.7358,9.7487,9.7733,9.8515,9.8672,9.789,9.9414,9.9922,9.9101,9.9922,10.039,10.039,10.039,10.0304,10.0118,10.0598,10.0679,10.0528,10.109,10.1789,10.2597,10.2597,10.2597,10.2904,10.4405,10.5713,10.6713,10.829,10.9983,11.1522,11.1522,11.2022,11.2522,0.0,0.0,0.0,0.0,0.0,0.0,0.0,0.0,0.0,0.0,0.0,0.0,0.0,4.8716,4.9434,4.9853,5.1468,5.2875,5.3773,5.4926,5.6296,5.8085,5.9724,6.1491,6.3533,6.4281,6.4816,6.529,6.5561,6.6203,6.7218,6.7963,6.8876,6.9925,7.0331,7.0263,6.9789,6.9485,6.9113,6.8759,6.9761,7.1252,7.2864,7.3676,7.5334,0.0,0.0,0.0,0.0,0.0,0.0,7.7304,7.7304,7.7304,7.7304,7.7304,7.7524,7.8039,7.9187,8.0562,8.2067,8.3805,8.5823,8.761,8.8421,8.9533,9.0441,9.0787,9.1287,9.1825,9.2402,9.3403,9.4441,9.5326,9.548,9.5672,9.6211,9.6288,9.639,9.657,9.6757,9.7012,9.7348,9.7505,9.7611,9.7695,9.8008,9.8047,9.7734,9.8281,9.8476,9.8164,9.9023,9.9726,10.0312,9.9765,9.9598,9.9875,9.9413,9.963,10.0422,10.0511,10.0981,10.1789,10.1789,10.2404,10.3482,10.4097,10.5097,10.6521,10.7713,10.9213,11.0714,11.0714,11.1214,11.1906,0.0,0.0,0.0,0.0,0.0,0.0,0.0,0.0,0.0,0.0,0.0,0.0,0.0,0.0,4.9942,5.081,5.2306,5.3473,5.4162,5.5189,5.6634,5.8525,5.9762,6.1622,6.3936,6.391,6.4343,6.5324,6.5087,6.5595,6.6812,6.732,6.8098,6.9147,6.9857,7.0161,7.0195,7.0195,6.9925,6.9625,7.0926,7.196,7.2841,7.3898,7.532,7.672,0.0,0.0,0.0,0.0,0.0,0.0,7.7304,7.7304,7.7304,7.7304,7.7304,7.7537,7.8475,7.9389,8.0358,8.1557,8.3587,8.5447,8.5921,8.7619,8.9133,8.944,9.0171,9.0941,9.1518,9.2287,9.321,9.4364,9.4557,9.4749,9.5365,9.5508,9.5741,9.6217,9.6526,9.6928,9.7454,9.7611,9.7695,9.7695,9.7695,9.7695,9.7695,9.7695,9.7695,9.7695,9.8242,9.8827,9.9327,9.8738,9.858,9.8806,9.8354,9.8608,9.9436,9.99,10.0404,10.0904,10.1212,10.202,10.302,10.3289,10.4289,10.5713,10.679,10.8098,10.9406,10.9983,11.0598,11.1098,0.0,0.0,0.0,0.0,0.0,0.0,0.0,0.0,0.0,0.0,0.0,0.0,0.0,0.0,0.0,5.2157,5.2845,5.3503,5.4291,5.601,5.7366,5.8145,6.0469,6.2088,6.2814,6.2595,6.3193,6.4647,6.3903,6.4647,6.6745,6.6745,6.7523,6.8944,6.8199,6.8707,7.0094,7.0161,7.0195,7.0338,7.2372,7.2606,7.2116,7.4762,7.5787,7.5855,7.5855,7.6498,0.0,7.7304,0.0,0.0,0.0,0.0,7.7304,7.7304,7.7304,7.7304,0.0,0.0,0.0,7.9298,8.1117,8.32,8.4691,8.6202,8.7555,8.844,8.9248,8.9825,8.9863,9.0594,9.171,9.3326,9.3633,9.3672,9.371,9.3925,9.4511,9.5554,9.5914,9.6472,9.7539,9.7656,9.7656,9.7656,9.7695,9.7695,9.7695,9.7695,9.7695,9.7695,9.7695,9.7609,9.7407,9.7407,9.713,9.6588,9.7479,9.7735,9.7557,9.9288,10.0096,10.0096,10.0981,10.1289,10.1404,10.2289,10.3097,10.4097,10.5713,10.6905,10.7905,10.9598,11.0214,11.0291,0.0,0.0,0.0,0.0,0.0,0.0,0.0,0.0,0.0,0.0,0.0,0.0,0.0,0.0,0.0,5.3503,5.3832,5.4556,5.6107,5.6707,5.787,5.9814,6.1611,6.2993,6.4052,6.4518,6.4986,6.5392,6.4647,6.4613,6.5222,6.5222,6.5459,6.5865,6.6745,6.7354,6.7861,6.9485,7.0195,7.0371,7.2195,7.3177,7.3723,7.5191,7.6264,7.6893,0.0,7.7082,7.7304,0.0,7.7304,7.7304,0.0,0.0,7.7304,7.7304,7.7304,7.7304,7.7304,0.0,0.0,0.0,0.0,0.0,8.1612,8.3396,8.5245,8.6526,8.7517,8.8286,8.8902,8.971,9.0402,9.0902,9.2018,9.3018,9.3633,9.3925,9.4278,9.4718,9.5018,9.5339,9.5859,9.6445,9.6836,9.6836,9.7383,9.7695,9.7695,9.7695,9.7695,9.7695,9.7695,9.7609,9.7407,9.7407,9.713,9.6588,9.6859,9.7156,9.7557,9.8634,9.9481,10.0096,10.0981,10.1289,10.1404,10.2904,10.3712,10.4097,10.5713,10.6905,10.779,10.8906,10.9713,11.0291,0.0,0.0,0.0,0.0,0.0,0.0,0.0,0.0,0.0,0.0,0.0,0.0,0.0,0.0,0.0,0.0,5.4221,5.5024,5.6865,5.7434,5.8887,6.139,6.2846,6.4153,6.5527,6.5324,6.5527,6.617,6.5121,6.4918,6.5527,6.5189,6.5222,6.5527,6.5764,6.6237,6.6914,6.8233,6.9316,7.0371,7.2221,7.3256,7.385,7.5263,7.6161,7.6628,0.0,0.0,7.7304,7.7304,7.7304,0.0,0.0,0.0,0.0,0.0,7.7304,7.7304,7.7304,7.7304,7.7304,7.7304,0.0,0.0,8.0321,8.1946,8.3594,8.4796,8.5747,8.6594,8.744,8.8286,8.8979,8.9325,9.0248,9.1325,9.2479,9.2844,9.3231,9.3842,9.4121,9.4519,9.5156,9.5664,9.5976,9.5976,9.6719,9.7344,9.7695,9.7695,9.7695,9.7695,9.7611,9.7448,9.724,9.7115,9.6871,9.6467,9.6467,9.6685,9.7019,9.7865,9.8711,9.9596,10.0404,10.1019,10.1404,10.3212,10.3905,10.3982,10.529,10.6597,10.779,10.8598,10.9483,11.0291,0.0,0.0,0.0,0.0,0.0,0.0,0.0,0.0,0.0,0.0,0.0,0.0,0.0,0.0,0.0,0.0,5.4311,5.5085,5.7024,5.8177,0.0,6.2769,6.3985,6.5256,6.6643,6.5459,6.5459,6.6677,6.5358,6.5358,6.6542,6.5797,6.5797,6.6406,6.5053,6.5222,6.644,6.6609,6.798,7.0138,7.2232,7.2957,7.3067,7.5012,7.5891,7.5959,7.5959,7.6563,7.7304,7.7304,7.7304,0.0,0.0,0.0,0.0,0.0,7.7304,0.0,0.0,0.0,0.0,7.7304,7.8163,0.0,8.0141,8.1191,8.2265,8.3247,8.4055,8.4863,8.567,8.6517,8.7401,8.8248,8.8479,8.9094,9.071,9.1106,9.1602,9.2636,9.3029,9.3628,9.4687,9.4922,9.5078,9.5078,9.5937,9.6758,9.7383,9.7617,9.7656,9.7578,9.7461,9.7265,9.7012,9.6732,9.6499,9.6288,9.6288,9.6288,9.6326,9.7134,9.798,9.8865,9.9712,10.0596,10.1404,10.3212,10.3905,10.3982,10.4905,10.6213,10.7713,10.8598,10.9406,11.0214,0.0,0.0,0.0,0.0,0.0,0.0,0.0,0.0,0.0,0.0,0.0,0.0,0.0,0.0,0.0,0.0,0.0,5.5963,0.0,0.0,0.0,6.3228,6.4194,6.5019,6.5899,6.6203,6.6237,6.5899,6.5628,6.5324,6.5019,6.4275,6.4005,6.414,6.3869,6.3869,6.4241,6.5392,6.6937,6.8739,7.1086,7.2442,7.331,7.5118,7.633,7.7019,7.7019,7.7118,7.7304,7.7304,7.7304,7.7304,0.0,0.0,0.0,7.7304,0.0,0.0,0.0,0.0,0.0,0.0,7.751,0.0,7.915,7.9645,8.0304,8.2194,8.267,8.3054,8.3939,8.4786,8.567,8.6478,8.7209,8.8017,8.9017,8.9359,8.9624,9.0029,9.0924,9.1637,9.2031,9.332,9.414,9.414,9.5625,9.625,9.5703,9.6953,9.7383,9.6758,9.7187,9.7265,9.7012,9.6732,9.6499,9.6288,9.6288,9.6288,9.6326,9.7134,9.798,9.8865,9.9712,10.0596,10.1404,10.3212,10.3905,10.3982,10.5597,10.6405,10.679,10.829,10.8983,10.9406,0.0,0.0,0.0,0.0,0.0,0.0,0.0,0.0,0.0,0.0,0.0,0.0,0.0,0.0,0.0,0.0,0.0,0.0,0.0,0.0,0.0,6.3924,6.441,6.5121,6.6237,6.6609,6.6643,6.6237,6.6237,6.5865,6.5121,6.4783,6.4619,6.4649,6.3872,6.3905,6.4718,6.506,6.5854,6.7204,7.0558,7.2674,7.4117,7.5871,7.6856,7.7304,7.7304,7.7304,7.7304,7.7304,7.7304,0.0,7.7304,7.7304,7.7304,0.0,7.7304,7.7304,0.0,0.0,0.0,7.7304,0.0,0.0,0.0,7.9198,7.9961,8.0961,8.1469,8.1939,8.2785,8.3324,8.3862,8.4709,8.5209,8.567,8.6094,8.7711,8.8984,8.9272,8.9791,9.0286,9.0624,9.1445,9.2304,9.3203,9.4453,9.5195,9.5195,9.6015,9.6209,9.5684,9.6246,9.6459,9.6182,9.6387,9.642,9.6288,9.6288,9.6288,9.6326,9.6711,9.7365,9.8211,9.9058,9.9942,10.0904,10.2981,10.3905,10.4097,10.5713,10.6713,10.7213,10.8406,10.9213,10.9713,4.3313,0.0,0.0,0.0,0.0,0.0,0.0,0.0,0.0,0.0,0.0,0.0,0.0,0.0,0.0,0.0,0.0,0.0,0.0,0.0,0.0,6.4262,6.4377,6.5019,6.6373,6.6406,6.6305,6.617,6.6305,6.6,6.5256,6.5256,6.5289,6.5386,6.4118,6.4161,6.5214,6.4971,6.5289,6.6371,7.0253,7.2656,7.4068,7.6045,7.6851,7.6864,7.7047,7.7194,7.7304,7.7304,7.7304,7.7304,7.7304,7.7304,0.0,0.0,0.0,0.0,0.0,0.0,0.0,0.0,0.0,7.8146,0.0,0.0,0.0,8.0086,8.0643,8.1285,8.1939,8.2054,8.2285,8.2978,8.3247,8.3362,8.3362,8.5863,8.7842,8.8226,8.8434,8.8794,8.9367,8.9765,9.0586,9.1992,9.3047,9.3867,9.4414,9.4922,9.4992,9.4567,9.5299,9.5589,9.5388,9.5996,9.6288,9.6288,9.6288,9.6288,9.6288,9.6288,9.6826,9.7788,9.8481,9.9365,10.0481,10.2904,10.3905,10.4097,10.5713,10.679,10.7598,10.8482,10.929,11.0098,4.3504,4.5389,0.0,0.0,0.0,0.0,0.0,0.0,0.0,0.0,0.0,0.0,0.0,0.0,0.0,0.0,0.0,0.0,6.0501,0.0,0.0,0.0,6.3632,6.4005,6.485,6.485,6.4546,6.3903,6.4546,6.4478,6.3768,6.3768,6.378,6.3724,6.3721,6.3371,6.2921,6.4924,6.6303,6.7446,7.0026,7.1161,7.1624,7.4064,7.507,7.5285,7.5983,7.6717,7.7304,0.0,7.7304,7.7304,0.0,7.7304,7.7304,7.7304,0.0,0.0,0.0,0.0,0.0,0.0,7.7365,0.0,7.8146,0.0,7.9469,7.9969,0.0,8.1131,8.1208,0.0,0.0,8.1362,8.1977,8.2439,8.2439,8.3439,8.428,8.449,8.533,8.6324,8.7315,8.8977,9.0078,9.0273,9.1836,9.2461,9.1797,9.3945,9.4718,9.3669,9.4987,9.5589,9.5388,9.5996,9.6288,9.6288,9.6288,9.6288,9.6288,9.6288,9.7173,9.8673,9.875,9.9712,10.1289,10.3097,10.3905,10.4097,10.5713,10.6521,10.6713,10.829,10.8983,10.9205,4.4442,4.6077,0.0,0.0,0.0,0.0,0.0,0.0,0.0,0.0,0.0,0.0,0.0,0.0,0.0,0.0,0.0,6.1119,0.0,0.0,0.0,0.0,0.0,0.0,0.0,6.4613,6.4444,6.414,6.4444,6.4241,6.3531,6.3531,6.3543,6.368,6.4161,6.4488,6.4737,6.667,6.7694,6.8219,6.9672,7.0521,7.1314,7.3861,7.4836,7.4955,7.5285,7.5616,7.5969,0.0,7.6191,0.0,0.0,0.0,0.0,7.6918,0.0,0.0,0.0,0.0,0.0,0.0,0.0,0.0,7.7768,0.0,7.8853,0.0,0.0,0.0,0.0,0.0,0.0,0.0,8.1362,8.1593,8.1593,8.19,8.2554,8.3745,8.4294,8.5071,8.6276,8.7255,8.8203,8.9179,8.9922,9.0625,9.1289,9.2344,9.2829,9.2561,9.4129,9.4762,9.4441,9.5665,9.6288,9.6288,9.6288,9.6288,9.6326,9.6788,9.7365,9.8096,9.9096,9.9942,10.0712,10.2404,10.3405,10.3982,10.5213,10.602,10.6518,10.7703,10.8098,10.8307,4.583,0.0,0.0,0.0,0.0,0.0,0.0,0.0,0.0,0.0,0.0,0.0,5.6131,5.875,0.0,0.0,0.0,6.2381,0.0,0.0,6.2843,0.0,0.0,0.0,0.0,0.0,6.4005,6.4005,6.4005,6.3734,6.3193,6.3193,6.3246,6.3422,6.42,6.502,6.5933,6.755,6.8534,6.9023,6.9807,7.0668,7.1718,7.3507,7.4515,7.4882,7.4661,7.4816,7.5215,7.5639,7.5585,0.0,7.7362,0.0,7.5958,0.0,0.0,0.0,7.6449,0.0,0.0,0.0,0.0,0.0,0.0,0.0,0.0,0.0,0.0,0.0,0.0,0.0,8.1016,8.0785,0.0,8.1016,8.0785,8.0939,8.16,8.296,8.3396,8.401,8.5097,8.5522,8.6286,8.7578,8.8086,8.8906,9.0195,9.0937,9.1375,9.1542,9.318,9.3953,9.3672,9.5172,9.6057,9.6288,9.6288,9.6288,9.6326,9.6903,9.7403,9.7942,9.9173,9.9981,10.0481,10.1981,10.3097,10.402,10.4509,10.5383,10.649,10.7317,10.7615,10.7682,4.7555,4.7728,0.0,0.0,0.0,0.0,0.0,0.0,0.0,0.0,0.0,0.0,0.0,0.0,0.0,0.0,0.0,6.2381,6.2381,0.0,6.3119,0.0,0.0,6.3231,0.0,0.0,6.2448,6.2448,6.2448,6.2448,6.2415,6.2415,6.2415,6.2459,6.3348,6.4208,6.5009,6.6672,6.8337,6.9976,7.077,7.1635,7.2438,0.0,7.356,7.4808,7.4001,0.0,0.0,7.5761,7.6169,0.0,0.0,0.0,0.0,0.0,0.0,0.0,0.0,0.0,0.0,7.745,0.0,0.0,0.0,0.0,7.8484,0.0,0.0,0.0,0.0,0.0,0.0,0.0,0.0,0.0,0.0,8.0554,8.1131,8.1201,8.2122,8.2922,8.3341,8.4146,8.4765,8.5,8.6562,8.7578,8.7617,8.9961,9.1101,9.0686,9.2325,9.3395,9.3672,9.4595,9.548,9.6288,9.6288,9.6288,9.6288,9.6326,9.7211,9.875,9.8827,9.975,10.1289,10.2212,10.3097,10.3903,10.3861,10.4875,10.6477,10.7316,10.7588,10.7596,0.0,0.0,0.0,0.0,0.0,0.0,0.0,5.1001,0.0,0.0,0.0,0.0,0.0,0.0,6.2381,0.0,0.0,6.2381,6.2381,6.2381,0.0,0.0,0.0,6.3708,0.0,0.0,0.0,6.2381,6.2381,6.2381,6.2381,6.2381,6.2736,6.3348,6.4707,6.6171,6.7588,6.9245,7.0605,7.1706,7.1902,7.1897,7.1762,0.0,0.0,7.3324,7.3461,7.3781,0.0,7.5085,7.5216,7.5405,7.7035,7.6577,7.5701,7.6607,7.724,0.0,0.0,0.0,7.9335,7.8716,0.0,0.0,0.0,0.0,0.0,0.0,0.0,0.0,0.0,0.0,0.0,0.0,0.0,0.0,0.0,8.0054,8.0246,8.0246,8.1169,8.2164,8.3013,8.2962,8.3437,8.4804,8.4922,8.5429,8.6562,8.8008,8.8837,8.8918,9.1157,9.2247,9.2056,9.3441,9.4557,9.5441,9.5441,9.5749,9.6326,9.6865,9.7711,9.8827,9.9404,10.0013,10.0627,10.0895,10.154,10.2304,10.226,10.3293,10.479,10.5692,10.628,10.6874,4.7763,0.0,0.0,0.0,0.0,0.0,0.0,0.0,0.0,0.0,5.7288,0.0,6.0436,0.0,6.2516,0.0,6.255,6.2516,6.2753,6.311,0.0,6.5757,6.5244,0.0,0.0,0.0,0.0,0.0,6.2717,6.2581,6.2855,6.2855,6.3176,6.3799,6.5155,6.6589,6.8053,6.9695,7.0909,7.1651,7.1651,7.1505,0.0,0.0,7.2373,7.2465,0.0,7.3651,7.4124,7.4828,7.5017,7.5171,7.6785,7.6403,7.5552,7.6453,7.7225,7.7678,7.7169,7.8514,0.0,7.9335,7.9198,0.0,7.8704,0.0,0.0,0.0,0.0,0.0,0.0,0.0,0.0,0.0,0.0,0.0,0.0,7.9323,7.9438,7.9746,8.0674,8.16,8.2481,8.2143,8.2468,8.3867,8.375,8.4101,8.5234,8.6596,8.744,8.7634,8.9761,9.0985,9.121,9.2287,9.3557,9.498,9.498,9.5441,9.6326,9.6826,9.7557,9.8365,9.8976,9.9409,9.9765,9.9784,10.0289,10.112,10.112,10.207,10.3605,10.4834,10.5656,10.6497,4.797,0.0,0.0,0.0,4.9733,0.0,0.0,0.0,5.4705,0.0,5.854,6.0403,6.2201,6.2381,6.2685,6.3463,6.2821,0.0,6.3577,6.4374,0.0,0.0,6.7508,6.8302,6.9967,0.0,0.0,0.0,6.3315,6.2863,6.3791,6.3687,6.3764,6.3937,6.4711,6.5554,6.6608,6.8125,6.9332,7.011,7.0128,7.0569,7.1287,7.1923,7.2186,7.2261,7.3156,7.4212,7.5091,7.5127,7.5551,7.613,7.6976,7.7246,7.7246,7.7246,7.84,7.9383,7.8022,7.8866,7.997,7.9425,0.0,0.0,0.0,0.0,7.9448,0.0,0.0,0.0,0.0,0.0,0.0,0.0,0.0,0.0,7.8438,7.8438,7.8746,7.9631,8.0508,8.1219,8.1648,8.168,8.1867,8.2265,8.3086,8.3554,8.3554,8.5668,8.6852,8.6683,8.8118,8.9571,9.1056,9.1133,9.2402,9.4941,9.4941,9.5403,9.6288,9.6288,9.6749,9.7443,9.7516,9.8039,9.8818,9.8857,9.9402,10.0187,10.0225,10.1225,10.2826,10.4613,10.572,10.6486,4.797,4.8147,4.8147,0.0,4.8686,4.9221,0.0,0.0,0.0,0.0,5.9671,6.1223,6.2313,6.2381,6.2685,6.3463,6.2821,0.0,0.0,0.0,0.0,6.9189,6.8631,6.8806,7.0003,6.782,0.0,6.5827,0.0,6.3865,6.4665,6.3436,6.3896,6.574,6.5273,6.6234,6.8292,6.8694,6.9355,7.0128,7.0502,7.0448,7.0252,0.0,7.1769,7.1864,7.3951,7.4828,7.5163,7.5616,7.5848,7.6053,7.6245,7.6322,7.6322,7.6322,7.7092,7.7985,7.8199,7.9051,8.0016,8.049,8.024,7.9893,0.0,0.0,0.0,0.0,0.0,0.0,0.0,0.0,0.0,0.0,0.0,0.0,7.7592,7.7592,7.79,7.8746,7.9737,8.0716,8.1625,8.168,8.1867,8.2265,8.25,8.2617,8.2617,8.3677,8.4473,8.4855,8.6372,8.787,8.9325,8.994,9.1518,9.4018,9.4018,9.4826,9.6288,9.6288,9.6442,9.6675,9.673,9.6892,9.7167,9.7242,9.7688,9.8503,9.854,9.9827,10.2075,10.4323,10.5302,10.5605,4.767,0.0,0.0,4.8297,0.0,0.0,5.163,0.0,0.0,5.828,6.0136,0.0,6.1873,6.2212,6.2809,6.3991,6.3418,0.0,0.0,0.0,0.0,6.9868,7.0165,7.0572,7.1078,6.9038,0.0,6.7332,0.0,6.4208,6.5046,6.377,6.4124,6.5892,6.5803,6.6318,6.7357,6.793,6.8897,6.9947,7.0144,7.0151,0.0,7.1171,7.1712,7.2151,7.3806,7.4407,7.444,7.4773,7.513,7.5438,7.5438,7.5707,7.6015,7.6015,7.663,7.7476,7.8284,7.9131,8.0015,8.09,8.0822,8.0566,8.0683,8.0523,8.0482,0.0,0.0,0.0,0.0,0.0,0.0,7.8237,0.0,0.0,7.6746,7.7053,7.7592,7.84,7.9373,8.0251,8.0922,8.1516,8.1976,8.2265,8.2304,8.2304,8.2304,8.2866,8.3494,8.4193,8.5265,8.6731,8.8671,8.9133,9.0825,9.371,9.371,9.4595,9.6288,9.6288,9.6171,9.5875,9.5931,9.5781,9.5595,9.5971,9.64,9.6942,9.8007,9.9475,10.12,10.3293,10.4504,10.5201,4.7429,0.0,0.0,0.0,0.0,0.0,0.0,5.5744,0.0,5.872,0.0,6.1434,6.1434,6.2009,6.3008,6.4611,0.0,6.4776,6.7508,6.8371,6.9245,7.0299,7.1706,7.2496,7.2496,7.0168,0.0,0.0,0.0,6.4455,6.5222,6.4245,6.4293,6.5338,6.5925,6.5904,6.5455,6.6749,6.8148,6.9481,6.9416,6.9808,7.0531,7.1096,7.1765,7.2482,7.2976,7.3322,7.3514,7.3514,7.3976,7.4553,7.4668,7.5207,7.5861,7.5976,7.6553,7.7323,7.813,7.89,7.9708,8.0708,8.0939,8.0939,8.1116,8.1272,8.1522,8.168,8.1739,8.1878,0.0,0.0,0.0,7.6503,0.0,0.0,7.6233,7.6899,7.768,7.8604,7.9404,0.0,8.0067,8.1141,8.1858,8.2067,8.2109,8.2187,8.2304,8.264,8.3259,8.4193,8.4518,8.6017,8.8671,8.8709,9.0364,9.371,9.371,9.4595,9.6288,9.6213,9.5741,9.5048,9.5021,9.4594,9.4102,9.5,9.5474,9.5878,9.808,9.9365,10.0209,10.1788,10.3329,10.4724,4.7997,0.0,0.0,0.0,0.0,5.3732,5.5006,5.6986,5.8946,6.0572,6.166,6.2212,6.2212,6.2313,6.3008,6.4611,6.4135,0.0,0.0,0.0,0.0,7.197,7.2365,7.2496,7.2496,7.0767,6.9905,0.0,0.0,6.5459,6.6243,6.3994,6.3789,6.5301,6.4751,6.5017,6.5942,6.69,6.7666,6.8399,6.951,7.0068,7.0217,7.0754,7.1055,7.1238,7.1332,7.2283,7.3514,7.3514,7.3591,7.3822,7.4514,7.4822,7.5091,7.5784,7.6092,7.6399,7.7284,7.763,7.8092,7.9631,8.0054,8.026,8.1143,8.1483,8.168,8.1899,8.2065,8.2171,8.2065,0.0,0.0,0.0,0.0,0.0,0.0,7.7542,7.8085,7.9632,8.0086,8.0223,8.0113,8.0452,8.0752,8.096,8.1126,8.1523,8.2265,8.2065,8.2653,0.0,8.3966,0.0,0.0,0.0,9.0364,9.371,9.371,9.4595,9.6288,9.57,9.4963,9.4265,9.362,9.3359,9.3345,9.4154,9.529,9.6612,9.7676,9.819,9.8521,10.0099,10.131,10.2301,4.8745,0.0,0.0,0.0,0.0,0.0,0.0,5.8111,0.0,6.0545,6.1366,6.1839,6.1839,6.254,6.36,6.4813,6.5046,6.6296,6.9186,6.9027,6.9529,7.1211,7.1651,0.0,7.1872,7.0697,7.011,7.011,0.0,6.5521,6.5852,6.3796,6.3466,6.464,6.4512,6.5069,6.6052,6.7037,0.0,6.8523,6.9954,7.0524,7.0524,7.0805,7.0898,7.0898,7.0898,7.1437,7.2168,7.2168,7.2437,7.2976,7.3822,7.4361,7.4861,7.5745,7.6015,7.6207,7.7053,7.7284,7.7592,7.8823,7.9131,7.9383,8.0327,8.0361,8.0375,8.1039,8.0985,8.0636,8.0133,7.9193,0.0,0.0,0.0,0.0,0.0,7.8565,7.9349,8.0165,8.0331,8.017,7.9621,7.967,8.0,8.0665,8.1318,8.1875,8.2265,8.1909,8.2458,0.0,0.0,0.0,0.0,0.0,0.0,9.3095,9.348,9.4408,9.57,9.5363,9.4579,9.3507,9.314,9.2758,9.2501,9.3786,9.4997,9.6208,9.7419,9.7897,9.8043,9.9255,10.0209,10.109,0.0,5.0002,0.0,0.0,5.3481,0.0,5.7066,5.8964,6.0148,6.0317,6.1028,6.1535,6.1535,6.2822,6.4042,6.4933,6.5842,6.7121,6.8807,6.8898,6.9265,7.0073,7.0697,7.1064,7.1064,7.0257,6.9853,0.0,0.0,6.5301,6.5264,6.3576,6.3222,6.4009,6.4373,6.5142,0.0,0.0,6.8139,6.9113,7.0402,7.0898,7.0898,7.0898,7.0898,7.0898,7.0898,7.0898,7.0898,7.0898,7.136,7.2091,7.2937,7.3668,7.4361,7.5438,7.5707,7.5899,7.6784,7.7015,7.7207,7.8015,7.8246,7.8477,7.9323,7.9146,7.9055,7.992,7.9783,7.9248,7.8565,7.8233,0.0,0.0,0.0,0.0,0.0,7.9377,8.0312,8.0701,8.0571,8.009,7.919,7.9297,7.9688,8.0353,8.1387,8.2068,8.2304,8.1909,8.238,0.0,0.0,8.4709,8.7094,0.0,8.9902,0.0,9.3062,9.3979,9.4922,9.479,9.4102,9.2987,9.283,9.251,9.217,9.3675,9.4777,9.5658,9.7089,9.764,9.775,9.8557,9.9255,9.9989,0.0,0.0,0.0,0.0,0.0,0.0,0.0,5.8964,6.0351,6.1095,6.1839,6.2279,6.2279,6.3131,6.4042,6.4933,6.5842,6.7121,6.8807,6.8898,6.9265,7.0073,7.0183,7.022,7.022,6.9412,6.9009,0.0,0.0,6.5301,6.5264,6.3576,6.3099,6.3654,6.3698,0.0,0.0,6.724,6.8373,6.969,7.0525,7.0898,7.0898,7.0898,7.0898,7.0898,7.0898,7.0898,7.0898,7.0898,7.0937,7.1168,7.2052,7.236,7.2745,7.4361,7.4822,7.5014,7.5861,7.613,7.6322,7.7207,7.74,7.763,7.8438,7.8709,7.8861,7.9142,7.9455,7.9602,7.9353,7.8844,7.8293,0.0,0.0,0.0,0.0,7.9409,8.0064,8.1663,8.1156,8.0251,7.9204,7.9996,8.0259,7.9572,8.036,8.1256,8.2265,8.1909,8.2147,8.3065,0.0,8.4439,8.6209,8.7863,8.9594,9.1325,9.2248,9.3174,9.3999,9.3483,9.3114,9.2923,9.2229,9.2317,9.3051,9.3932,9.4777,9.5584,9.6465,9.6795,9.6906,9.7713,9.8043,9.8337,0.0,0.0,0.0,0.0,0.0,0.0,0.0,5.9077,6.0216,6.0554,6.1637,6.2581,6.3124,6.3971,6.4835,6.5779,6.6641,6.7432,6.8164,6.8164,6.8311,6.8641,6.9119,6.9376,6.9376,6.9082,6.8898,0.0,0.0,0.0,6.5264,6.3576,6.311,6.3631,6.4783,6.5679,6.6504,6.8165,6.9184,6.9783,7.0591,7.0898,7.0898,7.0898,7.0898,7.0898,7.0898,7.0898,7.0898,7.0898,7.0898,7.1052,7.1937,7.2206,7.2437,7.363,7.4322,7.4784,7.513,7.5592,7.6092,7.6438,7.6515,7.6746,7.7592,7.7439,7.7355,7.8137,7.8253,7.8163,7.8077,7.7794,7.7508,0.0,0.0,0.0,0.0,0.0,8.0027,8.1237,8.0183,7.92,7.878,7.9463,7.9828,7.9597,8.0886,8.1868,8.2265,8.1909,8.2108,8.2948,0.0,8.417,8.5363,8.7594,8.9286,9.0441,9.19,9.2822,9.3226,9.3035,9.2765,9.2262,9.1912,9.1987,9.2427,9.3749,9.4483,9.4887,9.6208,9.6685,9.6722,9.7052,9.7493,9.797,5.1229,0.0,5.188,0.0,5.4589,5.5393,5.7857,5.9302,6.0182,6.0419,6.1569,6.2736,6.3574,6.4495,6.5361,6.6344,6.7174,6.7687,6.7687,6.7687,6.7687,6.7687,6.8238,0.0,6.8568,6.8568,6.8568,6.8568,6.6623,0.0,0.0,0.0,0.0,0.0,6.6097,6.6955,6.7493,6.902,6.986,7.009,7.0667,7.0898,7.0898,7.0898,7.0898,7.0898,7.0898,7.0898,7.0898,7.0898,7.0898,7.1014,7.1629,7.1822,7.1975,7.286,7.3514,7.4053,7.4591,7.5168,7.5668,7.5938,7.6015,7.6169,7.6784,7.6438,7.6276,7.7265,7.7121,7.6836,7.6836,7.6902,7.6927,7.6749,0.0,0.0,0.0,7.9296,7.9648,8.0508,7.9375,7.8594,7.8828,7.9175,7.9567,7.9956,8.1309,8.2168,8.2219,8.1889,0.0,0.0,0.0,0.0,0.0,8.7072,8.8651,8.9265,9.1119,9.2035,9.2128,9.2503,9.2331,9.1803,9.1803,9.1803,9.1913,9.3602,9.4299,9.4446,9.6061,9.6685,9.6685,9.6685,9.7052,9.7566,5.1229,5.1229,5.188,5.4168,5.4589,5.5556,5.8564,5.9641,6.0385,6.1197,6.1941,6.2736,6.3574,6.4495,6.5361,6.6344,6.7174,6.7687,6.7687,6.7687,6.7687,0.0,0.0,6.7687,6.7687,6.7687,6.7687,6.7687,0.0,0.0,6.6476,0.0,6.6288,6.6785,6.7338,6.8365,6.9667,6.9706,7.0167,7.0898,7.0898,7.0898,7.0898,7.0898,7.0898,7.0898,7.0898,7.0898,7.0898,7.0898,7.0898,7.0898,7.0898,7.0937,7.1091,7.1937,7.2206,7.2591,7.4245,7.4707,7.4938,7.5784,7.6015,7.6015,7.6015,7.6015,7.6121,7.6527,7.6223,7.5937,7.5937,7.6601,7.6833,7.5801,0.0,0.0,0.0,7.8386,0.0,7.9609,7.8984,7.8828,7.9609,7.9504,7.9768,8.0626,0.0,0.0,0.0,0.0,0.0,8.143,8.2844,0.0,8.3593,8.624,8.7638,8.7676,8.9592,9.0566,9.054,9.1422,9.1803,9.1803,9.1803,9.1803,9.1913,9.3602,9.4299,9.4446,9.6061,9.6685,9.6685,9.6685,9.6722,9.6832,5.1229,5.1229,5.188,5.4168,5.4589,5.5426,5.7891,5.8896,5.9438,5.9708,6.0858,6.2221,6.3655,6.4548,6.5617,0.0,6.7542,6.7687,0.0,6.7687,6.7687,6.7687,6.7687,6.7687,6.7687,6.7687,6.7687,6.7687,0.0,0.0,0.0,6.6481,6.6861,6.741,6.8518,6.9289,6.9744,7.0283,7.0667,7.0898,7.0898,7.0898,7.0898,7.0898,7.0898,7.0898,7.0898,7.0898,7.0898,7.0898,7.0898,7.0898,7.0898,7.0898,7.0937,7.1245,7.1745,7.2322,7.286,7.3822,7.463,7.4361,7.4707,7.4976,7.4437,7.4456,7.4653,7.4802,7.4935,7.5,7.5,7.5234,7.5312,7.4954,7.5701,0.0,0.0,0.0,7.793,7.8789,7.8672,7.8512,7.8601,7.9626,8.015,7.9838,0.0,0.0,0.0,0.0,0.0,0.0,8.2266,0.0,8.3593,8.5666,8.6985,8.7595,8.9592,9.0843,9.1422,9.1691,9.1803,9.1803,9.1803,9.1803,9.1877,9.3015,9.3492,9.3639,9.5254,9.5878,9.5951,9.6502,9.6685,9.6722,5.1229,5.1542,5.2487,5.4603,5.5081,5.5908,5.7999,5.8693,5.9099,5.9404,6.0755,6.2427,6.4124,6.5041,0.0,6.7542,6.7687,6.7687,6.7687,6.7687,6.7687,6.7687,6.7687,6.7687,6.7687,0.0,0.0,6.7687,6.7399,6.716,6.7029,6.7688,6.8218,6.8602,6.9654,7.0167,7.0167,7.0706,7.0898,7.0898,7.0898,7.0898,7.0898,7.0898,7.0898,7.0898,7.0898,7.0898,7.0898,7.0898,7.0898,7.0898,7.0898,7.0898,7.0898,7.0898,7.1283,7.1783,7.2091,7.2976,7.3707,7.3553,7.3899,7.412,7.3678,7.3549,7.3639,7.4014,7.4101,7.4101,7.4101,7.4375,7.4492,7.414,7.4844,7.5586,7.6133,0.0,7.6914,0.0,0.0,0.0,0.0,7.9491,7.9984,0.0,0.0,0.0,0.0,0.0,0.0,8.1311,8.1946,0.0,8.3243,8.4999,8.6236,8.6868,8.9048,9.0563,9.1363,9.1657,9.1803,9.1803,9.1803,9.1803,9.1877,9.2758,9.3088,9.3272,9.4887,9.5511,9.5621,9.6392,9.6685,9.6685,5.1229,5.2154,0.0,0.0,5.5913,0.0,5.8714,5.9032,5.9268,6.0013,6.1517,6.3102,6.4756,6.5734,6.6722,6.7633,0.0,0.0,0.0,6.7687,6.7687,6.7687,6.7687,6.7687,6.7687,6.7687,6.7687,6.7687,6.821,6.8511,6.8567,6.9626,7.0129,7.0162,7.0652,7.0898,7.0898,7.0898,7.0898,7.0898,7.0898,7.0898,7.0898,7.0898,7.0898,7.0898,7.0898,7.0898,7.0898,7.0821,7.0821,7.0821,7.0744,7.0744,7.0744,7.086,7.0898,7.1091,7.1898,7.2129,7.236,7.3129,7.3322,7.3355,7.3519,7.304,7.2899,7.393,7.3615,7.3203,7.3203,7.3867,7.414,7.3359,7.3945,7.4492,7.4492,0.0,7.582,0.0,0.0,0.0,0.0,7.9273,7.9385,0.0,8.0712,0.0,0.0,0.0,8.1311,8.1093,8.1792,8.2288,8.2604,8.4221,8.5296,8.5753,8.8146,8.9784,9.0629,9.1363,9.173,9.1803,9.1803,9.1803,9.184,9.2684,9.3015,9.3161,9.474,9.5327,9.5437,9.6318,9.6575,9.6539,0.0,0.0,5.3284,5.4645,5.5588,5.6857,5.8714,5.9032,5.9268,6.0013,6.0998,6.2335,6.3978,6.4911,6.6011,6.756,6.7687,6.7687,6.7687,6.7687,6.7687,6.7687,6.7687,6.7687,6.7687,6.7687,6.7687,6.7687,6.821,6.8705,6.9148,6.9775,7.033,7.0719,7.0832,7.0898,7.0898,7.0898,7.0898,7.0898,7.0898,7.0898,7.0898,7.0898,7.0898,7.0898,7.0898,7.0898,7.0821,7.0206,6.9975,6.986,6.9206,6.9013,6.9244,7.0514,7.0898,7.0937,7.1168,7.1668,7.2091,7.1629,7.1621,7.1756,7.1781,7.1885,7.201,7.2268,7.233,7.2305,7.2305,7.2461,7.2539,7.2344,7.3047,7.3594,7.3594,7.4375,0.0,0.0,7.6548,7.7536,7.9027,7.96,7.9653,0.0,0.0,0.0,0.0,8.0365,8.1146,8.1093,8.08,8.127,8.2604,8.2699,8.4057,8.6642,8.7872,8.9234,9.0629,9.0812,9.1216,9.1803,9.1803,9.1803,9.1803,9.2024,9.2097,9.2207,9.3272,9.3675,9.3859,9.5254,9.5401,9.5034,5.1229,5.2575,5.4008,5.492,5.6119,5.7457,5.8822,5.8727,5.8761,5.9505,6.0384,6.1534,6.3165,6.4409,6.5706,6.7046,6.7467,6.7687,6.7687,6.7687,6.7687,6.7687,6.7687,6.7687,6.7687,6.7687,6.7687,6.7687,6.821,6.8795,6.9313,6.9847,7.0362,7.0898,7.0898,7.0898,7.0898,7.0898,7.0898,7.0898,7.0898,7.0898,7.0898,7.0898,7.0898,7.0898,7.0898,7.0667,7.0283,6.986,6.9436,6.9013,6.8552,6.8398,6.859,6.9475,7.0052,7.0437,7.0783,7.1245,7.153,7.1144,7.1201,7.1348,7.1403,7.1565,7.1741,7.1811,7.191,7.1992,7.1992,7.1992,7.1992,7.1992,7.2383,7.2695,7.2695,7.3394,0.0,7.5063,7.578,7.6885,7.8766,7.9287,7.9439,7.9288,0.0,0.0,7.9339,8.0145,8.0643,8.0643,8.0315,8.0646,8.1698,8.263,8.4294,8.6481,8.7655,8.8647,8.9528,9.0262,9.0849,9.1253,9.1657,9.1803,9.1803,9.1803,9.1803,9.1877,9.2758,9.3088,9.3235,9.4483,9.4666,9.441,5.1229,5.3077,5.4781,5.5389,5.6822,5.8152,5.8896,5.8457,5.8321,5.9066,5.9976,6.1142,6.2705,6.4304,6.5602,6.6606,6.7283,6.7687,6.7687,6.7687,6.7687,6.7687,6.7687,6.7687,6.7687,6.7687,6.7687,6.7687,6.8357,6.8847,6.9313,6.9918,7.0463,7.0898,7.0898,7.0898,7.0898,7.0898,7.0898,7.0898,7.0783,7.0706,7.0706,7.0552,7.0514,7.0514,7.0514,7.009,6.9475,6.936,6.8821,6.8167,6.8052,6.8013,6.8052,6.8167,6.8821,6.9667,7.0514,7.0733,7.0786,7.1007,7.1109,7.1171,7.1277,7.1351,7.1451,7.1757,7.1797,7.1836,7.1992,7.1992,7.1953,7.1836,7.1797,7.1797,7.1795,0.0,7.3009,7.4117,7.4742,7.5988,7.8386,7.8727,7.9005,7.9584,8.0516,8.0708,0.0,8.0004,8.0048,7.9969,7.9888,8.0037,8.0599,8.3134,8.4829,8.5637,8.7142,8.7949,8.8243,8.9748,9.0482,9.0629,9.1436,9.1803,9.1803,9.1803,9.1803,9.1877,9.2611,9.2905,9.3015,9.3822,9.4042,9.3969,5.1229,5.3077,5.4621,5.4749,5.6492,5.8152,5.8896,5.893,5.9099,5.9844,6.0739,6.1969,6.3512,6.4643,6.5893,6.7393,6.7614,6.7687,6.7687,6.7687,6.7687,6.7687,6.7687,6.7687,6.7687,6.7687,6.7687,6.7687,6.8705,6.9231,6.9313,7.0298,7.0805,7.0898,7.0898,7.0898,7.0898,7.0898,7.0898,7.0821,7.0167,6.9898,6.9821,6.909,6.8783,6.8783,6.8783,6.8706,6.8513,6.7744,6.7398,6.7167,6.6513,6.6282,6.6436,6.709,6.7936,6.8783,6.9667,6.9987,7.0117,7.0293,6.9963,6.9561,6.9575,6.9706,7.0037,7.0742,7.0898,7.1133,7.1875,7.1992,7.1758,7.1015,7.0898,7.0857,7.0743,0.0,7.1659,7.3795,7.3989,7.4981,7.7534,7.8258,7.8575,7.8669,8.0169,8.0708,7.9862,8.0004,7.9888,7.938,7.8853,7.9037,7.9915,8.2361,8.3985,8.4792,8.571,8.6885,8.8243,8.916,8.9968,9.0629,9.1436,9.1803,9.1803,9.1803,9.1803,9.1803,9.195,9.1987,9.2097,9.2978,9.2831,9.2391,5.1229,5.2575,5.3913,5.4505,5.5889,5.7323,5.8281,5.8423,5.8524,5.8863,6.0048,6.1401,6.2521,6.4194,6.577,6.699,6.743,6.7687,6.7687,6.7687,6.7687,6.7687,6.7687,6.7687,6.7687,6.7687,6.7863,6.8148,6.8614,6.919,6.9738,6.9737,7.0162,7.086,6.9975,6.9821,7.0206,6.9744,6.9552,6.9513,6.9167,6.9013,6.8975,6.8552,6.8398,6.8398,6.8398,6.809,6.7628,6.7244,6.6821,6.6397,6.6013,6.5897,6.5974,6.632,6.7398,6.8616,6.9562,6.9595,6.9399,6.9624,6.9504,6.9361,6.9361,6.941,6.9609,6.9922,7.0039,7.0156,7.0547,7.0976,7.0976,7.0064,7.0296,0.0,0.0,7.0239,7.1077,7.3544,7.3673,7.4604,7.7189,7.8094,7.8669,7.9169,8.0059,8.0381,7.9999,7.941,7.901,7.8704,7.8536,7.8883,7.9764,8.2186,8.3801,8.4609,8.5857,8.6848,8.7582,8.839,8.8977,8.9381,9.0629,9.1143,9.1179,9.162,9.1803,9.1803,9.1803,9.1803,9.184,9.2244,9.2134,9.1913,5.1229,5.2154,5.3253,5.4421,5.549,5.6624,5.7735,5.7881,5.7949,5.8118,5.9423,6.0834,6.1997,6.3968,6.5597,6.668,6.732,6.7687,6.7687,6.7504,6.7504,6.7687,6.7687,6.7687,6.7687,6.781,6.8097,6.8511,6.8563,6.9086,7.0057,6.9355,6.9689,7.0821,6.936,6.909,6.9629,6.8783,6.8398,6.8398,6.8167,6.809,6.809,6.7898,6.7821,6.7821,6.7821,6.7398,6.6821,6.6821,6.6397,6.5897,6.5897,6.5897,6.5923,6.5958,6.6916,6.8204,6.9343,6.9181,6.8738,6.8925,6.8935,6.8906,6.8906,6.8906,6.8945,6.9101,6.914,6.9258,6.9375,6.9921,7.0106,6.9321,0.0,0.0,0.0,6.998,7.0754,7.3087,7.3446,7.4361,7.6476,7.763,7.8515,7.9169,7.9583,7.982,7.982,7.8838,7.82,7.8072,7.838,7.8993,7.9764,8.1819,8.3434,8.4609,8.5857,8.6664,8.7031,8.7839,8.8206,8.828,8.9711,9.0445,9.0665,9.1253,9.162,9.1803,9.1803,9.1803,9.1803,9.1803,9.1803,9.1803,5.1229,5.2154,5.3253,5.4421,5.549,5.6624,5.7735,5.7881,5.8152,5.8829,5.9766,6.115,6.3483,6.4552,6.5757,6.745,6.765,6.7687,6.7687,6.699,6.6916,6.765,6.7687,6.7687,6.7687,6.8161,6.8464,6.8511,6.8716,6.9226,7.0057,6.9778,7.0102,7.086,6.9975,6.9629,6.9629,6.8783,6.8398,6.8321,6.7513,6.7205,6.709,6.6359,6.609,6.609,6.609,6.6051,6.5974,6.5974,6.5936,6.5897,6.5897,6.5897,6.5933,6.6049,6.6312,6.6892,6.8539,6.8465,6.8027,6.8238,6.7695,6.7109,6.7109,6.7109,6.7305,6.8125,6.8281,6.8515,6.9258,6.9358,6.9282,6.9192,0.0,0.0,6.9828,6.9884,7.0474,7.2134,7.3042,7.386,7.4822,7.6399,7.74,7.7476,7.8397,7.8981,7.8981,7.8538,7.8016,7.7426,7.8148,7.8993,7.9764,8.0718,8.2333,8.4609,8.4719,8.5563,8.7031,8.7839,8.8206,8.8243,8.9124,8.9931,9.0592,9.0665,9.1143,9.1803,9.1803,9.1803,9.1803,9.1803,9.1803,9.1803,5.1229,5.1572,5.2395,5.4253,5.492,5.581,5.7628,5.7881,5.7983,5.8287,5.9904,6.1427,6.2351,6.4051,6.5395,6.6166,6.6219,6.6219,6.6219,6.5925,6.6109,6.6916,6.6953,6.7173,6.7687,6.7878,6.8357,6.8978,6.8524,6.8853,6.9855,6.8652,6.8552,6.9283,6.7936,6.7628,6.8013,6.7205,6.6859,6.6821,6.6474,6.6359,6.632,6.6013,6.5897,6.5897,6.5897,6.5897,6.5897,6.5897,6.5897,6.5909,6.6019,6.6024,6.6049,6.6228,6.6412,6.6672,6.7296,6.729,6.7141,6.7342,6.7148,6.6914,6.6914,6.6914,6.6992,6.7344,6.7383,6.7459,6.7637,6.8044,6.8141,6.7411,0.0,6.88,6.8969,6.9423,7.0375,7.2003,7.2976,7.3822,7.463,7.5923,7.6978,7.7441,7.7657,7.7984,7.8511,7.796,7.757,7.7304,7.7635,7.8222,7.9029,8.0351,8.1709,8.3104,8.4132,8.5196,8.6261,8.6554,8.6995,8.7509,8.8316,8.883,8.9197,9.0188,9.0776,9.1106,9.162,9.1803,9.1803,9.1803,9.1803,9.1803,5.1229,5.1229,5.188,5.4168,5.4589,5.5329,5.7554,5.7881,5.7983,5.822,5.9652,6.0912,6.1506,6.3218,6.4469,6.4894,6.5108,6.5301,6.5301,6.5081,6.5301,6.6109,6.6109,6.6366,6.6916,6.7479,6.8082,6.852,6.8262,6.8559,6.9283,6.8052,6.7821,6.8359,6.7205,6.6821,6.7051,6.6244,6.5897,6.5897,6.5897,6.5897,6.5897,6.5897,6.5897,6.5897,6.5897,6.5897,6.5897,6.5897,6.5897,6.5909,6.6069,6.6179,6.6266,6.6435,6.6588,6.6687,6.6687,6.6687,6.6738,6.6874,6.6914,6.6914,6.6914,6.6914,6.6914,6.6914,6.6834,6.6745,6.6628,6.6993,6.7151,6.6591,6.7715,6.8668,6.877,6.9552,7.042,7.1419,7.2532,7.3392,7.3762,7.4978,7.6083,7.688,7.6798,7.7047,7.7942,7.757,7.7304,7.7304,7.7304,7.7598,7.8185,7.98,8.1158,8.2223,8.3581,8.4646,8.5416,8.5673,8.6114,8.6664,8.7472,8.7986,8.8316,8.9674,9.0372,9.0702,9.1473,9.1803,9.1803,9.1803,9.1803,9.173,5.1229,5.1229,5.188,5.4168,5.4589,5.5329,5.7554,5.7881,5.8152,5.8896,5.9032,5.9638,6.1293,6.2178,6.304,6.395,6.4767,6.5301,6.5301,6.453,6.4457,6.5264,6.5301,6.5301,6.5301,6.7149,6.7692,6.6822,6.7875,6.8398,6.8398,6.8398,6.8398,6.8398,6.8398,6.7898,6.7051,6.6244,6.5897,6.5897,6.5897,6.5897,6.5897,6.5897,6.5897,6.5897,6.5897,6.5897,6.5897,6.5897,6.5897,6.5909,6.6069,6.6335,6.6616,6.6616,6.6742,6.6914,6.6914,6.6914,6.6914,6.6914,6.6914,6.6914,6.6914,6.6914,6.6914,6.6914,6.6738,6.6616,6.6616,6.6322,6.638,6.7271,6.7942,6.8706,6.959,7.0398,7.0681,7.0162,7.1582,7.2357,7.1845,7.3312,7.4633,7.5418,7.5682,7.6217,7.7231,7.7304,7.7304,7.7304,7.7304,7.7304,7.7304,7.8956,8.0571,8.2186,8.2994,8.3801,8.4609,8.5416,8.5783,8.582,8.6664,8.7472,8.8243,8.9087,8.9858,9.0665,9.1473,9.1767,9.1803,9.1803,9.1803,9.162,5.1229,5.1229,5.188,5.4168,5.4589,5.5329,5.7554,5.7881,5.7983,5.8186,5.8693,5.9413,6.0569,6.1376,6.2224,6.3089,6.3387,6.3576,6.3576,6.3319,6.3282,6.3539,6.4127,6.488,6.5764,6.6366,6.6886,6.7341,6.7076,6.7122,6.7475,6.6898,6.6667,6.6667,6.6667,6.6513,6.6244,6.6013,6.5897,6.5897,6.5897,6.5897,6.5897,6.5897,6.5897,6.5897,6.5897,6.5897,6.5897,6.5897,6.5897,6.5958,6.6234,6.6457,6.6628,6.6784,6.6834,6.6914,6.6914,6.6914,6.6914,6.6914,6.6914,6.6874,6.6735,6.6687,6.6673,6.6572,6.6488,6.6423,6.6266,6.6161,6.6167,6.6322,6.7487,6.8513,6.8744,6.9672,7.0298,7.0129,7.1256,7.1968,7.1845,7.2958,7.3987,7.4847,7.5587,7.6405,7.7268,7.7304,7.7304,7.7304,7.7304,7.7304,7.7304,7.8405,7.947,8.0534,8.1342,8.2443,8.3801,8.4609,8.527,8.582,8.6664,8.7142,8.7435,8.8243,8.872,8.8979,8.9524,9.0222,9.096,9.0648,9.1097,9.173,5.1229,5.1229,5.1819,5.3569,5.4337,5.5166,5.6963,5.7628,5.7881,5.7881,5.8558,5.9234,5.9765,6.1084,6.2042,6.2257,6.2558,6.2805,6.2805,6.2805,6.2805,6.2805,6.3319,6.396,6.4753,6.5434,6.6024,6.6319,6.6497,6.6643,6.6628,6.6436,6.6205,6.5897,6.6244,6.6205,6.5897,6.5897,6.5897,6.5897,6.5897,6.5897,6.5897,6.5897,6.5897,6.5897,6.5897,6.5897,6.5897,6.5897,6.599,6.6129,6.6358,6.6564,6.6742,6.6874,6.6914,6.6914,6.6914,6.6914,6.6914,6.6914,6.6914,6.6834,6.6634,6.6616,6.6549,6.6423,6.6334,6.6244,6.6146,6.6069,6.6074,6.6346,6.7341,6.8215,6.8522,6.9256,6.9701,6.9511,7.0357,7.0991,7.1135,7.2011,7.3162,7.4643,7.5558,7.646,7.7268,7.7304,7.7304,7.7304,7.7304,7.7304,7.7304,7.7818,7.8662,7.98,8.0608,8.1672,8.2957,8.3765,8.4389,8.4903,8.604,8.6273,8.5955,8.7049,8.7523,8.7559,8.7681,8.8425,8.9417,8.904,8.9374,8.9929,5.1229,5.1229,5.1542,5.2723,5.3828,5.5002,5.6047,5.7189,5.7881,5.7881,5.8558,5.8998,5.9072,6.1255,6.2379,6.1663,6.235,6.2805,6.2805,6.2805,6.2805,6.2805,6.2855,6.2904,6.2904,6.4566,6.52,6.4518,6.6183,6.6628,6.5897,6.6628,6.659,6.5936,6.6667,6.659,6.5897,6.5897,6.5897,6.5897,6.5897,6.5897,6.5897,6.5897,6.5897,6.5897,6.5897,6.5897,6.5897,6.5884,6.6109,6.6374,6.6399,6.6649,6.6874,6.6875,6.6914,6.6914,6.6914,6.6914,6.6914,6.6875,6.6874,6.6832,6.6622,6.6557,6.6525,6.6374,6.6195,6.607,6.607,6.5913,6.6077,6.6884,6.734,6.7817,6.8617,6.902,6.9064,6.8521,6.9171,6.973,7.0055,7.0881,7.2386,7.4735,7.5579,7.6326,7.7107,7.7181,7.7082,7.7019,7.7019,7.7019,7.7019,7.7019,7.795,7.969,8.0498,8.1305,8.2113,8.2994,8.3331,8.3338,8.5013,8.5007,8.3971,8.5639,8.6211,8.6125,8.5842,8.6417,8.7385,8.7015,8.6984,8.7072,5.1011,5.1229,5.1542,5.2723,5.3828,5.5002,5.6047,5.7189,5.7881,5.7881,5.8558,5.9259,5.9907,6.159,6.2631,6.2485,6.2656,6.2805,6.2805,6.2805,6.2805,6.2805,6.3215,6.3408,6.3408,6.4247,6.4955,6.5569,6.5974,6.6051,6.5897,6.609,6.6051,6.5897,6.609,6.6051,6.5897,6.5897,6.5897,6.5897,6.5897,6.5897,6.5897,6.5897,6.5897,6.5897,6.5897,6.5897,6.5909,6.6024,6.6109,6.6212,6.6488,6.6616,6.6687,6.6834,6.6914,6.6914,6.6914,6.6914,6.6873,6.6692,6.6678,6.6622,6.6468,6.6334,6.6161,6.6063,6.5967,6.5919,6.5919,6.5586,6.5528,6.6338,6.6736,6.7241,6.8073,6.8452,6.8614,6.8511,6.8851,6.9319,7.0,7.1394,7.2973,7.4771,7.5065,7.5421,7.6088,7.613,7.5718,7.5012,7.4903,7.4903,7.4903,7.4903,7.6259,7.8883,7.9653,8.0461,8.1305,8.2774,8.292,8.2251,8.4081,8.3774,8.213,8.3888,8.4127,8.3425,8.3626,8.4386,8.5366,8.4993,8.5842,8.7072,5.0917,5.1229,5.1386,5.1972,5.3483,5.4838,5.5377,5.6811,5.7881,5.7881,5.8558,5.9146,5.9658,6.1457,6.2877,6.333,6.3042,6.2805,6.2805,6.2805,6.2917,6.3168,6.3453,6.3813,6.4332,6.459,6.5003,6.5542,6.5781,6.5897,6.5897,6.5897,6.5897,6.5897,6.5897,6.5897,6.5897,6.5897,6.5897,6.5897,6.5897,6.5897,6.5897,6.5897,6.5897,6.5897,6.5897,6.5919,6.6003,6.607,6.6228,6.6373,6.6549,6.6678,6.6745,6.6874,6.6914,6.6914,6.6914,6.6832,6.6738,6.6628,6.6459,6.6335,6.6275,6.6161,6.6069,6.5933,6.569,6.5542,6.5542,6.5099,6.5031,6.5831,6.6217,6.6716,6.7541,6.7942,6.8148,6.8148,6.8231,6.8586,6.9377,7.0883,7.2325,7.3399,7.3543,7.3992,7.5049,7.5048,7.483,7.431,7.431,7.431,7.431,7.431,7.508,7.6578,7.7697,7.8673,7.9503,8.0732,8.0978,8.0524,8.1881,8.1591,8.0154,8.1436,8.1882,8.1699,8.1328,8.2093,8.3361,8.2983,8.3645,8.4855,5.0603,5.1011,5.1229,5.1229,5.29,5.4421,5.4589,5.6315,5.7701,5.7881,5.8558,5.9032,5.9032,6.1083,6.2892,6.3832,6.3232,6.2805,6.2805,6.2805,6.3014,6.3453,6.3637,6.4138,6.4932,6.513,6.5261,6.5261,6.569,6.5897,6.5897,6.5897,6.5897,6.5897,6.5897,6.5897,6.5897,6.5897,6.5897,6.5897,6.5897,6.5897,6.5897,6.5897,6.5897,6.5897,6.5933,6.6024,6.6144,6.6179,6.6373,6.6616,6.6634,6.6784,6.6914,6.6914,6.6914,6.6875,6.6873,6.6738,6.661,6.6533,6.6295,6.609,6.6051,6.6089,6.6007,6.5909,6.5475,6.5099,6.5099,6.4626,6.4519,6.5348,6.5565,6.5932,6.685,6.7126,6.725,6.7249,6.7449,6.7877,6.8418,6.9901,7.1179,7.1976,7.2009,7.2607,7.3934,7.4005,7.3928,7.3807,7.3807,7.3807,7.3807,7.3807,7.3807,7.3807,7.5178,7.6508,7.7602,7.8558,7.8903,7.8776,7.961,7.9227,7.8141,7.9048,7.974,8.0086,7.9182,7.9951,8.1371,8.1324,8.1596,8.2171,4.9161,5.0383,5.1229,5.1229,5.2215,5.3483,5.4421,5.5651,5.6778,5.7808,5.8558,5.9032,5.9032,6.0563,6.2042,6.2888,6.285,6.2805,6.2805,6.2805,6.2855,6.2904,6.3808,6.4332,6.4481,6.5359,6.5781,6.5781,6.5872,6.5897,6.5897,6.5897,6.5897,6.5897,6.5897,6.5897,6.5897,6.5897,6.5897,6.5897,6.5897,6.5897,6.5897,6.5897,6.5897,6.5947,6.6007,6.6217,6.6374,6.6507,6.6557,6.6628,6.6791,6.6875,6.6914,6.6914,6.6914,6.6873,6.6687,6.6622,6.6533,6.6221,6.6126,6.6051,6.5943,6.5933,6.5909,6.5897,6.5475,6.5099,6.5099,6.437,6.3941,6.4762,6.4594,6.4626,6.5291,6.5446,6.5418,6.5383,6.65,6.7425,6.7504,6.896,7.0487,7.1903,7.2009,7.2307,7.2939,7.3044,7.2582,7.1776,7.1688,7.1688,7.1688,7.1688,7.1688,7.1688,7.2539,7.4325,7.6788,7.831,7.8494,7.7563,7.8682,7.7996,7.6258,7.7926,7.8156,7.7522,7.7972,7.8684,7.9596,8.0885,8.0953,8.0682,4.8936,5.0287,5.1229,5.1229,5.2154,5.3077,5.3569,5.5134,5.636,5.6854,5.7749,5.8389,5.8389,5.9899,6.1199,6.2053,6.2542,6.2805,6.2805,6.2805,6.2917,6.3262,6.4016,6.4518,6.4765,6.5513,6.5897,6.5897,6.5897,6.5897,6.5897,6.5897,6.5897,6.5897,6.5897,6.5897,6.5897,6.5897,6.5897,6.5897,6.5897,6.5897,6.5897,6.5897,6.5943,6.6046,6.6217,6.6387,6.6516,6.6564,6.6683,6.6787,6.6874,6.6914,6.6914,6.6914,6.6832,6.6696,6.6628,6.6449,6.6281,6.6126,6.6028,6.5866,6.5531,6.5446,6.5446,6.5446,6.4799,6.4294,6.4294,6.368,6.3279,6.3648,6.3923,6.4161,6.4368,6.4852,6.5238,6.5561,6.6628,6.727,6.7158,6.8208,6.931,7.028,7.0419,7.0864,7.1901,7.1969,7.1776,7.1312,7.1312,7.1312,7.1312,7.1312,7.1312,7.1312,7.2056,7.3037,7.4325,7.5846,7.6218,7.5835,7.6755,7.6599,7.5709,7.6548,7.6897,7.6927,7.7266,7.7841,7.8619,7.9667,7.987,7.9803]}]]